     2              OBSERVATION DATA    GPS                 RINEX VERSION / TYPE
ASHTORIN MIT 08 - JUN - 97 14:33                            PGM / RUN BY / DATE
                                                            COMMENT
--> THIS IS THE START OF A NEW SITE <---                    COMMENT
--> THIS IS THE START OF A NEW SITE <---                    COMMENT
Original Marker Name: GS06                                  COMMENT
Campaign Name: China Lake May 1997                          COMMENT
4-Character Station Name: GS06                              COMMENT
6-Character Antenna Code: ASHGD3                            COMMENT
Vertical Measurement Point: TGP                             COMMENT
Vertical Offset to Rinex Ref. Point: 0.0640                 COMMENT
Radial Measurement Point: OOH                               COMMENT
Radial Offset to Rinex Ref. Point: 0.1737                   COMMENT
Antenna Height from Field Measurement: 1.0370 m             COMMENT
Additional Antenna Identification Info.:                    COMMENT
The Whopper (700718AB)                                      COMMENT
Original XYZ: -2436022.0700 -4555382.7800 3731070.3800      COMMENT
New XYZ position is based on association with SCEC monument COMMENT
E1F4S5C8+0011. Position of that monument is believed to be  COMMENT
valid to within 1 m horizontally; vertical accuracy         COMMENT
should be no worse than 3-times this value.                 COMMENT
                                                            COMMENT
Revised Rinex header created by UCSD GPS archive for        COMMENT
GSAC on 02-Aug-2000 (2000:215) 18:44:22 GMT                 COMMENT
For assistance contact dagnew@ucsd.edu                      COMMENT
or anderson@python.ucsd.edu                                 COMMENT
                                                            COMMENT
JPL GPS 1991 STATION ROD 3059-S                             MARKER NAME
gs06                                                        MARKER NUMBER
HEM US DEFENSE MAPPING AGENCY                               OBSERVER / AGENCY
453 ASHTECH Z-XII3 1G001C7                                  REC # / TYPE / VERS
292 ASHTECH GEODETIC III                                    ANT # / TYPE
 -2351061.8412 -4579714.7940  3755411.2272                  APPROX POSITION XYZ
        0.9583        0.0000        0.0000                  ANTENNA: DELTA H/E/N
     1     1     0                                          WAVELENGTH FACT L1/2
     7    L1    L2    C1    P1    P2    D1    D2            # / TYPES OF OBSERV
    30                                                      INTERVAL
  1997     5    13    15    23   30.000000                  TIME OF FIRST OBS
  1997     5    13    21    30    0.000000                  TIME OF LAST OBS
                                                            END OF HEADER
 97  5 13 15 23 30.0000000  0  5 19  2 27 26  7                     -0.001615428
     66875.00019     27703.77357  19388325.947           0.0005   19388335.4455
     -2482.832       -1934.674
    -14876.14419    -10018.03458  18099669.376           0.0005   18099675.0775
       485.732         378.492
      6978.53919      4074.37158  17127263.149           0.0005   17127268.5105
      -261.604        -203.847
    -57991.64919    -33152.24157  20320265.158           0.0005   20320277.1515
      2088.532        1627.428
    -75063.01019    -30759.04658  18671623.650           0.0005   18671630.0045
      2752.125        2144.513
 97  5 13 15 24  0.0000000  0  7 19  2 27 26 31  7 15               -0.001616052
    141508.819 9     85859.96947  19402536.769    19402533.0035   19402537.8614
     -2491.829       -1941.685
    -29366.404 9    -21309.15048  18096911.452    18096912.5565   18096917.6974
       481.110         374.891
     15047.523 9     10361.87748  17128796.157    17128799.6555   17128804.0294
      -275.434        -214.624
   -120448.135 9    -81819.64147  20308386.824    20308386.7965   20308391.8464
      2076.035        1617.690
     53924.62019     23027.78952  21700301.314           0.0005          0.0005
     -3566.786       -2779.314
   -157462.381 9    -94966.34448  18655943.009    18655943.8375   18655949.9934
      2741.909        2136.552
    -50509.70019    -31166.23056  20858877.275           0.0005          0.0005
      1514.435        1180.079
 97  5 13 15 24 30.0000000  0  5 19  2 27 26  7                      0.000994374
    216374.912 9    144197.10647  22714499.151    22714496.1154   22714501.7424
     -2500.529       -1948.464
    -43717.368 9    -32491.71848  21391897.470    21391898.7454   21391903.8754
       476.437         371.250
     23527.964 9     16970.00448  20428129.970    20428130.5474   20428134.8964
      -289.743        -225.774
   -182501.909 9   -130173.22847  23594295.740    23594295.0504   23594300.0664
      2062.867        1607.429
   -239515.929 9   -158904.16348  21938046.304    21938046.5384   21938052.7704
      2730.681        2127.803
 97  5 13 15 25  0.0000000  3  2
GS06                                                        MARKER NAME
--> THIS IS THE START OF A NEW SITE <---                    COMMENT
 97  5 13 15 25  0.0000000  0  7 19  2 27 26 31  7 15                0.000993238
    291510.600 9    202744.40857  22728795.320    22728794.2645   22728799.4145
     -2508.401       -1954.598
    -57942.779 9    -43576.44458  21389191.341    21389191.8285   21389196.9085
       471.838         367.666
     32420.201 9     23899.01858  20429823.669    20429822.7185   20429827.0365
      -302.983        -236.091
   -244196.858 9   -178247.20957  23582555.171    23582554.8315   23582559.9435
      2050.194        1597.554
    268083.772 9    189904.62756  25038772.050           0.0004   25038777.7275
     -3572.595       -2783.840
   -321273.646 9   -222611.46558  21922486.482    21922488.5525   21922494.7615
      2719.938        2119.432
   -140554.793 9   -101331.00156  24139458.866    24139454.7135   24139461.6305
      1488.048        1159.518
 97  5 13 15 25 30.0000000  0  7 19  2 27 26 31  7 15                0.000991934
    366855.518 9    261454.64647  22743131.825    22743131.8914   22743137.2784
     -2514.967       -1959.715
    -72042.043 9    -54562.88548  21386508.523    21386508.8874   21386513.9484
       467.565         364.336
     41687.332 9     31120.14548  20431586.271    20431586.2564   20431590.5154
      -315.185        -245.599
   -305527.215 9   -226037.10947  23570884.023    23570884.1154   23570889.0974
      2038.136        1588.158
    375276.554 9    273431.39055  25059168.169    25059171.0005   25059175.7195
     -3574.087       -2785.003
   -402735.716 9   -286088.39248  21906985.342    21906986.8474   21906992.9624
      2710.327        2111.943
   -185015.696 9   -135975.83756  24130990.543    24130994.8615   24131000.5555
      1475.542        1149.773
 97  5 13 15 26  0.0000000  0  7 19  2 27 26 31  7 15                0.000990663
    442396.307 9    320317.57447  22757506.611    22757506.9054   22757512.0874
     -2520.867       -1964.312
    -85992.989 9    -65433.75348  21383853.935    21383854.1824   21383859.1994
       462.457         360.356
     51322.105 9     38627.75048  20433419.271    20433419.7164   20433423.9384
      -327.063        -254.854
   -366486.841 9   -273538.11347  23559283.647    23559283.8984   23559288.8424
      2025.712        1578.477
    482519.248 9    356997.12245  25079576.092    25079578.7495   25079583.8414
     -3575.706       -2786.264
   -483893.285 9   -349328.03948  21891541.629    21891543.1054   21891549.1604
      2700.325        2104.149
   -229093.487 9   -170322.25046  24122606.033    24122607.6204   24122612.2184
      1462.944        1139.956
 97  5 13 15 26 30.0000000  0  7 19  2 27 26 31  7 15                0.000989351
    518109.870 9    379315.09747  22771914.132    22771914.8284   22771920.0314
     -2526.812       -1968.944
    -99780.652 9    -76177.38648  21381230.323    21381230.5564   21381235.5274
       456.885         356.014
     61317.441 9     46416.31248  20435321.307    20435321.8084   20435325.9774
      -339.276        -264.371
   -427057.740 9   -320736.20447  23547757.222    23547757.6244   23547762.4494
      2012.483        1568.168
    589821.640 8    440609.34145  25099995.835    25099997.4064   25100002.8504
     -3577.663       -2787.789
   -564751.351 9   -412334.30948  21876155.433    21876156.3824   21876162.3554
      2690.228        2096.282
   -272784.981 9   -204367.56346  24114292.130    24114293.5954   24114298.0774
      1449.881        1129.777
 97  5 13 15 27  0.0000000  0  7 19  2 27 26 31  7 15                0.000988013
    594005.093 9    438454.17647  22786356.337    22786357.2054   22786362.4714
     -2533.234       -1973.949
   -113401.995 9    -86791.41348  21378638.141    21378638.5464   21378643.5014
       450.976         351.410
     71681.557 9     54492.23348  20437293.580    20437294.0774   20437298.2294
      -352.188        -274.432
   -487236.726 9   -367628.92647  23536305.523    23536306.0054   23536310.7584
      1999.096        1557.737
    697173.204 8    524259.80145  25120424.212    25120425.5434   25120431.0944
     -3579.607       -2789.304
   -645311.454 9   -475108.39348  21860825.397    21860826.3214   21860832.2834
      2680.067        2088.364
   -316084.018 9   -238106.97046  24106052.665    24106053.9344   24106058.8824
      1436.356        1119.238
 97  5 13 15 27 30.0000000  0  7 19  2 27 26 31  7 15                0.000986658
    670108.343 9    497755.35747  22800838.187    22800839.1674   22800844.4524
     -2540.220       -1979.392
   -126849.701 9    -97270.14448  21376079.128    21376079.5724   21376084.5464
       445.695         347.295
     82444.749 9     62879.12448  20439341.738    20439342.3144   20439346.4174
      -365.249        -284.610
   -547005.522 9   -414202.02347  23524931.621    23524932.3894   23524937.0684
      1985.645        1547.256
    804587.913 8    607959.48345  25140864.833    25140865.9674   25140871.5604
     -3581.360       -2790.670
   -725556.328 9   -537636.85048  21845555.184    21845556.2994   21845562.1604
      2669.603        2080.210
   -358972.983 9   -271526.83746  24097891.093    24097892.0704   24097897.7464
      1423.045        1108.866
 97  5 13 15 28  0.0000000  0  7 19  2 27 26 31  7 15                0.000985290
    746458.245 9    557248.73747  22815367.431    22815368.2084   22815373.5884
     -2549.761       -1986.827
   -140117.788 9   -107608.90948  21373554.329    21373554.7284   21373559.7544
       438.955         342.043
     93626.504 9     71592.16748  20441469.570    20441470.1434   20441474.2974
      -380.386        -296.405
   -606345.994 9   -460441.35147  23513639.492    23513640.1304   23513644.8884
      1970.303        1535.301
    912078.444 8    691718.27445  25161319.852    25161320.8734   25161326.3374
     -3584.846       -2793.386
   -805458.135 9   -599897.98248  21830350.357    21830351.4894   21830357.3084
      2657.282        2070.609
   -401442.567 9   -304619.94346  24089809.087    24089810.3014   24089816.2544
      1408.219        1097.313
 97  5 13 15 28 30.0000000  0  7 19  2 27 26 31  7 15                0.000983917
    823092.172 9    616963.41947  22829950.233    22829951.0474   22829956.5814
     -2559.521       -1994.432
   -153204.228 9   -117806.14048  21371064.027    21371064.4464   21371069.5114
       433.186         337.548
    105261.394 9     80658.30048  20443683.583    20443684.2354   20443688.4084
      -395.619        -308.274
   -665241.694 9   -506334.10447  23502431.762    23502432.6994   23502437.4534
      1956.010        1524.164
   1019664.383 8    775551.40945  25181793.006    25181793.8664   25181799.2104
     -3587.728       -2795.632
   -885007.661 9   -661884.61348  21815212.877    21815213.7804   21815219.4994
      2645.645        2061.542
   -443478.030 9   -337374.87046  24081810.325    24081811.4514   24081817.0514
      1393.900        1086.156
 97  5 13 15 29  0.0000000  0  7 19  2 27 26 31  7 15                0.000982528
    900030.740 9    676915.49747  22844591.342    22844592.0754   22844597.6524
     -2569.756       -2002.407
   -166109.796 9   -127862.42748  21368608.091    21368608.6204   21368613.7014
       426.902         332.651
    117366.529 9     90090.85748  20445987.157    20445987.7864   20445992.0054
      -411.511        -320.658
   -723707.134 9   -551891.59147  23491306.073    23491307.1124   23491311.6964
      1941.483        1512.844
   1127340.305 8    859454.65545  25202283.091    25202284.0524   25202289.2314
     -3591.070       -2798.236
   -964201.417 9   -723594.01348  21800142.971    21800143.7304   21800149.4114
      2633.751        2052.274
   -485076.325 9   -369789.16646  24073894.684    24073895.6584   24073900.6894
      1379.061        1074.593
 97  5 13 15 29 30.0000000  0  7 19  2 27 26 31  7 15                0.000981131
    977270.804 9    737102.49147  22859289.964    22859290.4294   22859296.1724
     -2579.842       -2010.266
   -178829.644 9   -137773.99548  21366187.620    21366188.0994   21366193.2324
       420.518         327.676
    129932.460 9     99882.47248  20448378.336    20448379.0064   20448383.2834
      -426.652        -332.456
   -781734.782 9   -597107.93247  23480263.789    23480264.7734   23480269.5234
      1926.539        1501.199
   1235126.364 8    943443.75545  25222793.776    25222795.5454   25222800.3484
     -3595.104       -2801.380
  -1043037.635 9   -785024.82148  21785140.602    21785141.6944   21785147.3704
      2621.571        2042.783
   -526232.280 9   -401858.74746  24066062.767    24066063.7884   24066068.6324
      1364.049        1062.895
 97  5 13 15 30  0.0000000  0  7 19  2 27 26 31  7 15                0.000979738
   1054804.665 9    797518.44547  22874043.999    22874044.6204   22874050.2474
     -2589.098       -2017.479
   -191356.152 9   -147534.91348  21363803.869    21363804.4024   21363809.5864
       414.583         323.052
    142955.144 9    110029.99648  20450856.316    20450857.1474   20450861.4384
      -441.775        -344.240
   -839307.299 9   -641969.65047  23469308.209    23469309.2094   23469313.8034
      1911.511        1489.489
   1343041.849 7   1027533.67945  25243329.572    25243331.2594   25243336.1584
     -3599.386       -2804.716
  -1121505.877 9   -846168.88948  21770208.669    21770209.6704   21770215.3884
      2609.487        2033.366
   -566927.439 9   -433569.18846  24058318.278    24058319.3924   24058324.9274
      1348.701        1050.936
 97  5 13 15 30 30.0000000  0  7 19  2 27 26 31  7 15                0.000978332
   1132579.411 9    858122.09347  22888843.937    22888844.7394   22888850.5474
     -2596.437       -2023.198
   -203732.019 9   -157178.44548  21361448.709    21361449.3454   21361454.6084
       409.989         319.472
    156408.576 9    120513.17448  20453416.396    20453417.2344   20453421.5584
      -455.540        -354.966
   -896450.855 9   -686497.10347  23458433.935    23458435.1134   23458439.7024
      1897.600        1478.649
   1451060.989 7   1111704.40255  25263885.523    25263886.7134          0.0005
     -3602.314       -2806.998
  -1199629.119 9   -907044.13248  21755342.231    21755343.3234   21755349.0904
      2598.192        2024.565
   -607177.444 9   -464932.76346  24050658.608    24050659.9474   24050665.8934
      1334.151        1039.598
 97  5 13 15 31  0.0000000  0  7 19  2 27 26 31  7 15                0.000976925
   1210582.964 9    918904.00947  22903687.094    22903688.3614   22903694.1014
     -2603.762       -2028.905
   -215958.418 9   -166705.51148  21359122.109    21359122.7624   21359128.0694
       405.083         315.649
    170283.374 9    131324.68748  20456056.692    20456057.5324   20456061.8684
      -469.423        -365.784
   -953152.979 9   -730680.57047  23447643.968    23447645.0794   23447649.6994
      1882.498        1466.881
   1559177.97617   1195951.44254  25284459.758    25284463.8275          0.0005
     -3605.863       -2809.763
  -1277391.776 9   -967638.40048  21740544.658    21740545.5834   21740551.4034
      2585.902        2014.989
   -646972.179 9   -495941.55946  24043085.882    24043087.0044   24043093.6094
      1318.816        1027.649
 97  5 13 15 31 30.0000000  0  7 19  2 27 26 31  7 15                0.000975526
   1288789.502 9    979844.11247  22918569.860    22918570.5734   22918576.3644
     -2610.310       -2034.008
   -228055.440 9   -176131.75948  21356819.986    21356820.7924   21356826.1304
       401.192         312.617
    184555.022 9    142445.42948  20458772.523    20458773.3454   20458777.6894
      -482.368        -375.871
  -1009410.868 9   -774517.88547  23436938.286    23436939.5474   23436944.1564
      1867.921        1455.523
   1667383.28917   1280267.34154  25305049.792           0.0005          0.0005
     -3608.577       -2811.878
  -1354792.812 9  -1027950.88148  21725815.832    21725816.6524   21725822.4864
      2573.951        2005.676
   -686317.880 9   -526600.52846  24035598.829    24035599.6494   24035606.3584
      1304.018        1016.118
 97  5 13 15 32  0.0000000  0  6 19  2 27 26  7 15                   0.000974117
   1367188.908 9   1040934.50747  22933488.186    22933489.5824   22933495.3324
     -2616.780       -2039.049
   -240044.953 9   -185474.23448  21354538.619    21354539.2764   21354544.5904
       397.705         309.900
    199219.070 9    153871.94048  20461562.985    20461563.8654   20461568.1854
      -495.634        -386.208
  -1065245.383 9   -818025.30447  23426313.468    23426314.7164   23426319.2944
      1854.141        1444.785
  -1431841.180 9  -1087988.55848  21711154.141    21711154.8444   21711160.6504
      2562.305        1996.601
   -725228.752 9   -556920.70445  24028193.959    24028194.9484   24028201.3134
      1289.728        1004.983
 97  5 13 15 32 30.0000000  0  6 19  2 27 26  7 15                   0.000972692
   1445804.916 9   1102193.67347  22948448.586    22948449.7744   22948455.5664
     -2624.712       -2045.230
   -251907.277 9   -194717.60348  21352281.260    21352281.9294   21352287.2164
       392.605         305.926
    214297.497 9    165621.34548  20464432.492    20464433.2624   20464437.5524
      -509.903        -397.327
  -1120657.662 9   -861203.70647  23415768.869    23415770.1534   23415774.7014
      1839.630        1433.478
  -1508529.752 9  -1147745.86348  21696560.659    21696561.5444   21696567.2644
      2549.940        1986.966
   -763703.691 9   -586901.17146  24020872.349    24020873.3324   24020879.5104
      1274.877         993.411
 97  5 13 15 33  0.0000000  0  6 19  2 27 26  7 15                   0.000971256
   1524665.715 9   1163643.58647  22963455.211    22963456.5704   22963462.2884
     -2632.231       -2051.089
   -263609.631 9   -203836.32148  21350054.389    21350055.0684   21350060.2864
       387.716         302.116
    229809.479 9    177708.58748  20467384.347    20467385.1484   20467389.4164
      -523.980        -408.296
  -1175629.968 9   -904039.26747  23405307.906    23405309.3774   23405313.9934
      1825.457        1422.434
  -1584846.913 9  -1207213.76048  21682038.195    21682038.8844   21682044.5464
      2538.183        1977.805
   -801731.819 8   -616533.41946  24013635.606    24013636.5674   24013642.9714
      1260.503         982.210
 97  5 13 15 33 30.0000000  0  6 19  2 27 26  7 15                   0.000969798
   1603760.153 9   1225275.54947  22978506.854    22978507.9044   22978513.7604
     -2640.811       -2057.775
   -275157.062 9   -212834.31648  21347857.028    21347857.6724   21347862.8634
       382.028         297.684
    245743.878 9    190124.97948  20470416.576    20470417.4204   20470421.6574
      -538.527        -419.631
  -1230174.962 9   -946541.87447  23394928.524    23394929.8634   23394934.4154
      1810.804        1411.016
  -1660814.428 9  -1266409.20848  21667582.132    21667582.7524   21667588.3724
      2526.238        1968.497
   -839328.735 9   -645829.66346  24006481.114    24006481.6794   24006488.4414
      1245.827         970.774
 97  5 13 15 34  0.0000000  0  6 19  2 27 26  7 15                   0.000968309
   1683110.137 9   1287106.63847  22993606.377    22993607.6234   22993613.5234
     -2648.981       -2064.141
   -286528.735 9   -221695.35448  21345693.171    21345693.7444   21345698.8894
       376.372         293.277
    262126.397 9    202890.55348  20473534.158    20473534.9704   20473539.1724
      -553.434        -431.247
  -1284283.639 9   -988704.46947  23384632.045    23384633.2404   23384637.9714
      1796.511        1399.879
  -1736430.086 9  -1325330.47848  21653192.912    21653193.6044   21653199.1904
      2515.096        1959.815
   -876485.736 9   -674783.17246  23999410.495    23999411.0584   23999417.6284
      1231.434         959.559
 97  5 13 15 34 30.0000000  0  6 19  2 27 26  7 15                   0.000966791
   1762706.083 9   1349129.41247  23008753.416    23008754.4634   23008760.3154
     -2657.157       -2070.512
   -297728.362 9   -230422.32448  21343561.968    21343562.5524   21343567.6444
       370.441         288.655
    278956.405 9    216004.82448  20476736.830    20476737.6514   20476741.8664
      -568.343        -442.865
  -1337948.928 9  -1030521.58847  23374420.013    23374421.1574   23374425.8414
      1781.328        1388.048
  -1811710.598 9  -1383990.59448  21638867.522    21638868.1804   21638873.8284
      2503.585        1950.845
   -913205.627 9   -703396.07346  23992423.305    23992423.5564   23992429.9114
      1216.538         947.952
 97  5 13 15 35  0.0000000  0  6 19  2 27 26  7 15                   0.000965249
   1842542.710 9   1411339.69847  23023945.638    23023946.8644   23023952.7814
     -2665.462       -2076.983
   -308756.589 9   -239015.74748  21341463.347    21341463.9744   21341469.0364
       364.522         284.043
    296230.274 9    229464.96448  20480023.951    20480024.7474   20480029.0314
      -583.431        -454.622
  -1391161.627 9  -1071986.03847  23364293.708    23364295.0514   23364299.6984
      1765.934        1376.052
  -1886642.884 9  -1442379.36748  21624608.516    21624608.9904   21624614.7204
      2491.677        1941.566
   -949474.235 9   -731657.34446  23985521.932    23985522.1104   23985527.9634
      1201.029         935.867
 97  5 13 15 35 30.0000000  0  6 19  2 27 26  7 15                   0.000963683
   1922612.682 9   1473731.83947  23039182.393    23039183.7634   23039189.5384
     -2672.648       -2082.583
   -319626.570 9   -247485.85948  21339394.897    21339395.5354   21339400.6024
       360.134         280.624
    313931.194 9    243257.86948  20483392.271    20483393.1474   20483397.4704
      -596.834        -465.065
  -1443936.596 9  -1113109.38347  23354250.998    23354252.2804   23354257.0684
      1752.328        1365.450
  -1961237.382 9  -1500504.92748  21610413.517    21610414.0754   21610419.8514
      2481.124        1933.343
   -985293.652 9   -759568.63546  23978706.281    23978706.4094   23978711.8294
      1186.753         924.743
 97  5 13 15 36  0.0000000  0  6 19  2 27 26  7 15                   0.000962086
   2002911.170 9   1536302.04047  23054462.707    23054464.1004   23054469.9354
     -2679.746       -2088.114
   -330343.816 9   -255836.95348  21337355.600    21337356.1594   21337361.2164
       355.212         276.788
    332059.432 9    257383.75848  20486842.067    20486842.8514   20486847.2224
      -610.923        -476.044
  -1496282.536 9  -1153898.43347  23344289.753    23344291.1384   23344295.9264
      1738.079        1354.347
  -2035492.982 9  -1558366.42048  21596282.933    21596283.7154   21596289.5314
      2469.875        1924.578
  -1020659.534 9   -787126.46146  23971976.167    23971976.6204   23971981.9344
      1171.613         912.945
 97  5 13 15 36 30.0000000  0  6 19  2 27 26  7 15                   0.000960466
   2083410.876 9   1599029.01047  23069781.725    23069782.7534   23069788.7964
     -2686.902       -2093.690
   -340926.117 9   -264082.89948  21335341.904    21335342.4324   21335347.4954
       350.235         272.910
    350590.115 9    271823.23348  20490368.371    20490369.1624   20490373.5374
      -624.563        -486.672
  -1548205.369 9  -1194357.76847  23334409.144    23334410.5924   23334415.4484
      1723.475        1342.967
  -2109402.029 9  -1615957.85848  21582218.338    21582219.3344   21582225.1684
      2457.251        1914.741
  -1055573.427 9   -814332.07146  23965332.621    23965332.7704   23965338.3194
      1155.870         900.678
 97  5 13 15 37  0.0000000  0  6 19  2 27 26  7 15                   0.000958833
   2164122.703 9   1661921.31147  23085140.897    23085141.6764   23085147.6324
     -2693.978       -2099.204
   -351365.530 9   -272217.50148  21333355.236    21333355.9084   21333360.9614
       345.760         269.423
    369532.859 9    286583.80348  20493973.023    20493973.8714   20493978.2844
      -638.406        -497.459
  -1599694.966 9  -1234479.55647  23324611.060    23324612.5384   23324617.2184
      1709.052        1331.729
  -2182934.757 9  -1673256.06648  21568225.317    21568226.5874   21568232.3924
      2444.989        1905.186
  -1090018.058 9   -841172.04946  23958778.091    23958778.2454   23958783.9504
      1140.361         888.593
 97  5 13 15 37 30.0000000  0  6 19  2 27 26  7 15                   0.000957190
   2245056.834 9   1724986.78647  23100541.834    23100543.0374   23100549.0944
     -2701.071       -2104.731
   -361670.513 9   -280247.35448  21331394.251    21331394.9754   21331399.9774
       341.631         266.206
    388902.468 9    301677.00048  20497658.966    20497659.8004   20497664.2544
      -652.553        -508.483
  -1650740.944 9  -1274255.63047  23314897.439    23314898.7234   23314903.6194
      1694.473        1320.369
  -2256091.253 9  -1730261.11348  21554304.075    21554305.3964   21554311.1844
      2432.513        1895.465
  -1123988.433 9   -867642.47247  23952313.692    23952314.0174   23952319.8814
      1124.801         876.468
 97  5 13 15 38  0.0000000  0  6 19  2 27 26  7 15                   0.000955527
   2326194.516 9   1788210.90147  23115982.422    23115983.1134   23115989.0614
     -2708.280       -2110.348
   -371856.129 9   -288184.19548  21329456.093    21329456.7504   21329461.7344
       337.245         262.788
    408697.644 9    317101.81048  20501425.779    20501426.7274   20501431.2204
      -667.200        -519.896
  -1701352.173 9  -1313692.96747  23305266.571    23305267.7544   23305272.5614
      1679.532        1308.726
  -2328875.331 9  -1786975.95748  21540453.818    21540455.0674   21540460.8354
      2419.706        1885.485
  -1157500.140 9   -893755.46347  23945936.865    23945937.0434   23945943.1714
      1109.220         864.327
 97  5 13 15 38 30.0000000  0  6 19  2 27 26  7 15                   0.000953848
   2407560.306 9   1851612.77347  23131465.376    23131466.5794   23131472.4774
     -2716.553       -2116.794
   -381904.410 9   -296014.02948  21327544.068    21327544.6014   21327549.6024
       332.135         258.806
    428938.084 9    332873.57848  20505277.422    20505278.3934   20505282.8754
      -682.536        -531.846
  -1751511.914 9  -1352778.47947  23295721.179    23295722.6754   23295727.5574
      1664.120        1296.717
  -2401270.933 9  -1843388.09548  21526677.567    21526678.6234   21526684.3984
      2406.327        1875.060
  -1190540.772 9   -919501.43147  23939649.715    23939649.7954   23939655.9644
      1093.114         851.777
 97  5 13 15 39  0.0000000  0  6 19  2 27 26  7 15                   0.000952162
   2489190.247 9   1915220.44147  23146999.069    23147000.2824   23147006.4264
     -2725.018       -2123.391
   -391786.749 9   -303714.55148  21325663.368    21325664.0334   21325669.0584
       327.014         254.816
    449650.840 9    349013.37948  20509218.843    20509219.9004   20509224.3904
      -697.840        -543.771
  -1801203.152 9  -1391498.92447  23286265.010    23286266.7104   23286271.5924
      1648.965        1284.908
  -2473267.965 9  -1899489.66448  21512977.087    21512978.0124   21512983.8104
      2393.816        1865.311
  -1223093.842 8   -944867.36846  23933454.540    23933454.8364   23933461.5584
      1077.474         839.590
 97  5 13 15 39 30.0000000  0  6 19  2 27 26  7 15                   0.000950470
   2571082.973 9   1979032.92747  23162582.291    23162583.9834   23162589.9214
     -2734.127       -2130.488
   -401488.619 9   -311274.44848  21323817.210    21323817.8434   21323822.8634
       319.930         249.296
    470828.579 9    365515.50448  20513248.799    20513249.8774   20513254.3574
      -713.787        -556.198
  -1850421.642 9  -1429851.00247  23276899.436    23276900.8134   23276905.7804
      1632.529        1272.101
  -2544872.115 9  -1955285.08948  21499351.200    21499352.1714   21499358.0084
      2379.990        1854.538
  -1255160.073 9   -969854.01046  23927351.751    23927352.6124   23927359.6304
      1060.551         826.403
 97  5 13 15 40  0.0000000  0  6 19  2 27 26  7 15                   0.000948781
   2653243.745 9   2043054.23846  23178217.250    23178218.6804   23178224.8074
     -2742.537       -2137.042
   -410972.686 9   -318664.62348  21322012.382    21322013.0844   21322018.1434
       313.043         243.930
    492481.476 9    382387.87948  20517369.052    20517370.2654   20517374.7334
      -729.150        -568.169
  -1899142.472 9  -1467815.29347  23267628.026    23267629.5084   23267634.4974
      1616.096        1259.295
  -2616062.251 9  -2010757.91048  21485804.108    21485805.1304   21485810.9774
      2366.625        1844.123
  -1286721.194 9   -994447.15346  23921346.438    23921347.0414   23921353.5404
      1044.076         813.566
 97  5 13 15 40 30.0000000  0  6 19  2 27 26  7 15                   0.000947090
   2735644.487 9   2107262.57347  23193897.754    23193899.1134   23193905.1404
     -2750.657       -2143.369
   -420263.208 9   -325903.99148  21320244.411    21320245.1714   21320250.2434
       306.399         238.752
    514580.970 9    399608.25348  20521574.424    20521575.6494   20521580.1244
      -744.097        -579.816
  -1947370.090 9  -1505395.26347  23258450.424    23258452.1374   23258457.1554
      1599.082        1246.038
  -2686860.615 9  -2065925.45348  21472331.700    21472332.7124   21472338.5384
      2353.141        1833.616
  -1317791.553 9  -1018657.73846  23915433.888    23915434.5344   23915441.1344
      1027.271         800.471
 97  5 13 15 41  0.0000000  0  6 19  2 27 26  7 15                   0.000945411
   2818280.339 9   2171654.08747  23209622.620    23209624.2814   23209630.3254
     -2757.825       -2148.955
   -429355.146 9   -332988.61648  21318514.195    21318515.0204   21318520.1444
       300.286         233.989
    537127.223 9    417176.75348  20525865.004    20525866.1144   20525870.5424
      -758.482        -591.025
  -1995081.835 9  -1542573.24847  23249370.904    23249372.8364   23249377.9254
      1582.292        1232.955
  -2757254.691 9  -2120777.96448  21458936.130    21458937.2044   21458942.9854
      2340.338        1823.640
  -1348359.580 9  -1042477.08746  23909617.416    23909617.8854   23909623.2354
      1011.062         787.841
 97  5 13 15 41 30.0000000  0  6 19  2 27 26  7 15                   0.000943738
   2901136.692 9   2236217.45447  23225390.258    23225391.3354   23225397.2874
     -2765.732       -2155.116
   -438257.387 9   -339925.42848  21316820.138    21316820.9874   21316826.1374
       293.574         228.759
    560115.198 9    435089.44748  20530239.601    20530240.6374   20530245.0164
      -773.893        -603.034
  -2042282.775 9  -1579353.19847  23240389.083    23240390.8184   23240395.9504
      1564.834        1219.351
  -2827254.938 9  -2175323.59548  21445615.618    21445616.6014   21445622.3354
      2326.574        1812.915
  -1378431.796 9  -1065909.91847  23903894.894    23903895.4634   23903900.7294
       993.963         774.517
 97  5 13 15 42  0.0000000  0  6 19  2 27 26  7 15                   0.000942075
   2984239.251 9   2300972.61247  23241203.522    23241205.3344   23241211.4344
     -2773.538       -2161.198
   -446967.413 9   -346712.46748  21315162.755    21315163.5544   21315168.6804
       288.014         224.426
    583574.720 9    453369.58348  20534703.706    20534704.8624   20534709.2054
      -789.110        -614.891
  -2088965.134 9  -1615729.06747  23231505.783    23231507.4484   23231512.5354
      1548.325        1206.487
  -2896838.579 9  -2229544.59648  21432374.291    21432375.2854   21432380.9884
      2313.259        1802.539
  -1407990.692 9  -1088942.80246  23898270.260    23898270.7744   23898275.8374
       977.516         761.701
 97  5 13 15 42 30.0000000  0  6 19  2 27 26  7 15                   0.000940405
   3067574.782 9   2365909.32747  23257061.991    23257063.4844   23257069.5694
     -2782.014       -2167.803
   -455510.408 9   -353369.34748  21313537.061    21313537.8834   21313543.0324
       281.763         219.556
    607491.582 9    472006.09048  20539254.814    20539256.1254   20539260.4534
      -805.136        -627.379
  -2135158.859 9  -1651724.18347  23222715.464    23222717.1264   23222722.2204
      1531.612        1193.464
  -2966026.549 9  -2283457.28248  21419208.272    21419209.2614   21419214.9264
      2299.469        1791.794
  -1437056.647 9  -1111591.61347  23892739.196    23892739.7594   23892744.5934
       960.475         748.422
 97  5 13 15 43  0.0000000  0  6 19  2 27 26  7 15                   0.000938725
   3151174.307 9   2431051.77947  23272970.178    23272972.1024   23272978.1304
     -2790.928       -2174.749
   -463868.007 9   -359881.76548  21311946.643    21311947.4334   21311952.6404
       275.823         214.927
    631892.881 9    491020.08448  20543898.208    20543899.5594   20543903.9014
      -821.304        -639.977
  -2180866.132 9  -1687340.24947  23214017.510    23214019.2454   23214024.2624
      1515.980        1181.283
  -3034808.135 9  -2337053.30548  21406119.485    21406120.5814   21406126.1904
      2286.371        1781.588
  -1465614.445 9  -1133844.38247  23887305.039    23887305.4894   23887310.5154
       943.645         735.308
 97  5 13 15 43 30.0000000  0  6 19  2 27 26  7 15                   0.000937023
   3235034.061 9   2496396.95147  23288927.781    23288930.1024   23288936.2314
     -2799.319       -2181.287
   -472060.449 9   -366265.49248  21310387.682    21310388.4754   21310393.7114
       270.798         211.011
    656777.209 9    510410.44748  20548633.670    20548634.9284   20548639.2644
      -837.294        -652.437
  -2226114.430 9  -1722598.67047  23205406.983    23205408.8354   23205413.8564
      1500.973        1169.589
  -3103196.840 9  -2390343.19548  21393105.674    21393106.6174   21393112.2304
      2273.199        1771.324
  -1493666.367 9  -1155703.07146  23881967.006    23881967.4984   23881972.1404
       926.833         722.207
 97  5 13 15 44  0.0000000  0  6 19  2 27 26  7 15                   0.000935307
   3319156.940 9   2561947.20847  23304936.154    23304938.3074   23304944.2244
     -2808.850       -2188.714
   -480088.825 9   -372521.37148  21308859.826    21308860.7474   21308865.9684
       264.388         206.017
    682154.125 9    530184.64748  20553462.841    20553464.0454   20553468.3714
      -854.437        -665.795
  -2270894.674 9  -1757492.37447  23196885.766    23196887.4284   23196892.4664
      1484.177        1156.502
  -3171178.255 9  -2443315.70948  21380169.124    21380170.1434   21380175.7354
      2258.909        1760.189
  -1521197.664 9  -1177155.99547  23876727.748    23876728.4184   23876733.3604
       908.441         707.876
 97  5 13 15 44 30.0000000  0  6 19  2 27 26  7 15                   0.000933590
   3403539.314 9   2627699.63247  23320993.690    23320995.8234   23321001.9104
     -2816.660       -2194.800
   -487950.741 9   -378647.54448  21307363.854    21307364.7304   21307369.9384
       259.882         202.505
    708010.890 9    550332.76248  20558383.279    20558384.4734   20558388.7874
      -869.297        -677.374
  -2315189.891 9  -1792008.13047  23188456.815    23188458.3604   23188463.2644
      1468.825        1144.539
  -3238762.730 9  -2495978.91948  21367308.119    21367309.2274   21367314.7974
      2246.619        1750.612
  -1548200.107 9  -1198196.79647  23871589.318    23871590.0004   23871595.2554
       891.682         694.817
 97  5 13 15 45  0.0000000  0  6 19  2 27 26  7 15                   0.000931861
   3488143.036 9   2693624.57047  23337093.802    23337095.4584   23337101.3884
     -2823.468       -2200.105
   -495694.524 9   -384681.66448  21305890.207    21305891.1494   21305896.3554
       256.304         199.717
    734299.968 9    570817.73848  20563385.904    20563387.1154   20563391.4664
      -883.322        -688.303
  -2359032.675 9  -1826171.33647  23180113.950    23180115.3454   23180120.3334
      1453.929        1132.932
  -3305980.831 9  -2548356.64348  21354516.736    21354518.0704   21354523.6414
      2234.547        1741.205
  -1574705.715 9  -1218850.57346  23866545.577    23866546.1434   23866551.1604
       875.301         682.053
 97  5 13 15 45 30.0000000  0  6 19  2 27 26  7 15                   0.000930131
   3572964.727 9   2759719.32547  23353235.281    23353236.5824   23353242.5954
     -2831.469       -2206.339
   -503310.099 9   -390615.88148  21304440.900    21304441.9694   21304447.1804
       250.918         195.520
    761030.269 9    591646.51748  20568472.485    20568473.7234   20568478.0954
      -898.996        -700.516
  -2402397.396 9  -1859962.02047  23171861.750    23171863.3004   23171868.3654
      1436.739        1119.537
  -3372811.364 9  -2600432.36548  21341799.312    21341800.6504   21341806.2534
      2220.435        1730.209
  -1600701.204 9  -1239106.74547  23861598.800    23861599.3034   23861604.7274
       857.476         668.163
 97  5 13 15 46  0.0000000  0  6 19  2 27 26  7 15                   0.000928413
   3658022.491 9   2825998.05347  23369421.365    23369422.5574   23369428.4814
     -2838.536       -2211.846
   -510756.606 9   -396418.36548  21303023.778    21303024.8994   21303030.1254
       246.058         191.734
    788224.353 9    612836.69048  20573647.426    20573648.5764   20573653.0044
      -913.388        -711.731
  -2445249.303 9  -1893353.12347  23163707.283    23163708.9274   23163713.8754
      1420.362        1106.775
  -3439224.257 9  -2652182.65848  21329161.376    21329162.6714   21329168.2984
      2207.559        1720.176
  -1626166.398 9  -1258949.70947  23856752.750    23856753.3154   23856759.1214
       840.710         655.099
 97  5 13 15 46 30.0000000  0  6 19  2 27 26  7 15                   0.000926698
   3743292.910 9   2892442.49347  23385648.460    23385649.1594   23385654.9854
     -2846.817       -2218.299
   -518052.251 9   -402103.28548  21301635.363    21301636.5704   21301641.8034
       239.652         186.742
    815855.502 9    634367.43648  20578905.550    20578906.6344   20578911.0964
      -929.536        -724.314
  -2487602.561 9  -1926355.66847  23155647.772    23155649.4534   23155654.3784
      1402.714        1093.024
  -3505241.302 9  -2703624.48848  21316598.675    21316600.0144   21316605.6974
      2192.703        1708.600
  -1651124.972 9  -1278397.90247  23852002.744    23852003.3644   23852009.6134
       822.501         640.910
 97  5 13 15 47  0.0000000  0  6 19  2 27 26  7 15                   0.000924979
   3828778.067 9   2959054.21747  23401916.048    23401916.4194   23401922.3774
     -2852.885       -2223.027
   -525185.375 9   -407661.56648  21300278.127    21300279.1894   21300284.4214
       234.985         183.105
    843951.725 9    656260.57648  20584252.148    20584253.1984   20584257.7214
      -944.307        -735.824
  -2529457.220 9  -1958969.69447  23147683.096    23147684.8334   23147689.6994
      1386.910        1080.709
  -3570828.083 9  -2754731.05648  21304118.002    21304119.2364   21304124.9624
      2179.118        1698.014
  -1675563.948 9  -1297441.25047  23847351.936    23847352.8914   23847359.2174
       805.996         628.049
 97  5 13 15 47 30.0000000  0  6 19  2 27 26  7 15                   0.000923254
   3914479.894 9   3025834.83947  23418224.196    23418224.9734   23418230.8424
     -2860.012       -2228.581
   -532136.071 9   -413077.69848  21298955.572    21298956.5094   21298961.7334
       228.883         178.350
    872519.695 9    678521.30648  20589688.373    20589689.5204   20589694.1124
      -959.617        -747.754
  -2570803.788 9  -1991187.81547  23139815.378    23139816.9544   23139821.6544
      1370.222        1067.705
  -3635979.280 9  -2805498.20448  21291720.245    21291721.3504   21291727.0744
      2164.772        1686.835
  -1699476.367 9  -1316074.24247  23842801.534    23842802.4094   23842808.8894
       788.671         614.549
 97  5 13 15 48  0.0000000  0  6 19  2 27 26  7 15                   0.000921524
   4000404.450 9   3092788.93047  23434574.468    23434575.9334   23434581.9614
     -2867.393       -2234.332
   -538898.204 9   -418346.89448  21297668.989    21297669.7174   21297674.9534
       222.869         173.664
    901549.868 9    701142.19148  20595212.781    20595213.8194   20595218.4284
      -974.976        -759.721
  -2611646.081 9  -2023012.98147  23132043.530    23132044.9274   23132049.6494
      1353.425        1054.617
  -3700694.467 9  -2855925.60948  21279405.226    21279406.4864   21279412.1954
      2150.436        1675.664
  -1722858.670 9  -1334294.25147  23838352.094    23838353.0434   23838359.2754
       770.965         600.752
 97  5 13 15 48 30.0000000  0  6 19  2 27 26  7 15                   0.000919794
   4086556.308 9   3159920.22047  23450968.676    23450970.1914   23450975.9574
     -2875.521       -2240.666
   -545478.522 9   -423474.41648  21296416.747    21296417.5004   21296422.7394
       216.270         168.522
    931053.840 9    724132.27048  20600827.147    20600828.2684   20600832.8414
      -991.441        -772.551
  -2651982.464 9  -2054443.93847  23124367.675    23124369.2064   23124373.8904
      1336.358        1041.318
  -3764969.081 9  -2906009.70148  21267174.304    21267175.4934   21267181.1964
      2135.034        1663.663
  -1745704.058 9  -1352095.78547  23834004.748    23834005.5404   23834012.1184
       752.599         586.441
 97  5 13 15 49  0.0000000  0  6 19  2 27 26  7 15                   0.000918054
   4172933.070 9   3227226.70247  23467405.427    23467407.1724   23467413.1094
     -2882.339       -2245.978
   -551878.652 9   -428461.53948  21295198.806    21295199.5994   21295204.8264
       210.849         164.298
    961028.582 9    747489.18948  20606531.127    20606532.2794   20606536.8024
     -1006.312        -784.139
  -2691826.371 9  -2085491.15347  23116785.795    23116787.2004   23116791.9214
      1320.357        1028.850
  -3828802.181 9  -2955749.76348  21255027.562    21255028.4994   21255034.1914
      2121.203        1652.885
  -1768018.495 9  -1369483.68447  23829758.483    23829759.3114   23829765.7794
       735.535         573.144
 97  5 13 15 49 30.0000000  0  6 19  2 27 26  7 15                   0.000916303
   4259535.677 9   3294709.19347  23483885.845    23483887.2324   23483893.0314
     -2890.610       -2252.423
   -558093.333 9   -433304.15748  21294016.303    21294017.0274   21294022.1894
       204.223         159.135
    991467.216 9    771207.57948  20612323.294    20612324.5934   20612329.0874
     -1022.491        -796.746
  -2731170.848 9  -2116149.18847  23109298.956    23109300.2544   23109304.9364
      1303.101        1015.403
  -3892212.564 9  -3005160.43348  21242960.823    21242961.8744   21242967.5844
      2106.615        1641.518
  -1789806.396 9  -1386461.26247  23825612.447    23825613.2754   23825619.5834
       717.474         559.071
 97  5 13 15 50  0.0000000  0  6 19  2 27 26  7 15                   0.000914549
   4346381.624 9   3362381.29147  23500412.109    23500413.4194   23500419.3404
     -2898.928       -2258.905
   -564128.123 9   -438006.59548  21292868.055    21292868.7074   21292873.8034
       198.274         154.499
   1022393.502 9    795305.95648  20618208.621    20618209.7024   20618214.1504
     -1039.053        -809.652
  -2770001.414 9  -2146406.79147  23101909.745    23101911.0164   23101915.6734
      1285.573        1001.745
  -3955190.325 9  -3054233.99348  21230976.637    21230977.5684   21230983.3294
      2092.061        1630.177
  -1811058.290 9  -1403021.17747  23821567.966    23821569.1244   23821575.4214
       699.329         544.932
 97  5 13 15 50 30.0000000  0  6 19  2 27 26  7 15                   0.000912816
   4433480.502 9   3430250.49547  23516986.802    23516987.8224   23516993.8174
     -2907.452       -2265.547
   -569976.740 9   -442563.96548  21291755.125    21291755.7704   21291760.8314
       191.977         149.592
   1053813.252 9    819788.85048  20624187.680    20624188.7554   20624193.1674
     -1055.176        -822.215
  -2808294.948 9  -2176245.92147  23094622.873    23094624.0164   23094628.6214
      1267.669         987.794
  -4017720.279 9  -3102958.61348  21219077.591    21219078.4494   21219084.2234
      2076.969        1618.417
  -1831756.766 9  -1419149.85447  23817629.650    23817630.4404   23817636.4124
       680.849         530.532
 97  5 13 15 51  0.0000000  0  6 19  2 27 26  7 15                   0.000911105
   4520828.663 9   3498313.92947  23533608.731    23533609.6884   23533615.6734
     -2915.070       -2271.483
   -575642.204 9   -446978.61848  21290677.064    21290677.7024   21290682.7234
       186.473         145.304
   1085703.895 9    844638.67248  20630256.319    20630257.3704   20630261.8054
     -1070.205        -833.926
  -2846051.414 9  -2205666.56047  23087437.886    23087439.1974   23087443.8664
      1250.148         974.141
  -4079804.078 9  -3151335.57848  21207263.549    21207264.3124   21207270.0404
      2062.623        1607.239
  -1851907.092 9  -1434851.40047  23813795.151    23813796.0234   23813801.8704
       663.185         516.768
 97  5 13 15 51 30.0000000  0  6 19  2 27 26  7 15                   0.000909420
   4608427.382 9   3566572.61747  23550278.324    23550279.2244   23550285.2744
     -2924.631       -2278.933
   -581130.607 9   -451255.30248  21289632.738    21289633.3274   21289638.3004
       179.692         140.020
   1118065.400 9    869855.39648  20636414.598    20636415.5864   20636420.0114
     -1087.020        -847.029
  -2883271.542 9  -2234669.27747  23080355.262    23080356.4744   23080361.0674
      1231.462         959.581
  -4141435.179 9  -3199359.79448  21195535.616    21195536.3624   21195542.0094
      2046.328        1594.541
  -1871509.798 9  -1450126.20046  23810065.245    23810065.7964   23810071.5764
       643.854         501.704
 97  5 13 15 52  0.0000000  0  6 19  2 27 26  7 15                   0.000907774
   4696299.224 9   3635044.11547  23567000.236    23567000.6824   23567006.8474
     -2932.524       -2285.084
   -586427.900 9   -455383.07048  21288624.832    21288625.3384   21288630.2644
       174.153         135.704
   1150914.127 9    895451.77548  20642665.621    20642666.5254   20642670.9584
     -1101.967        -858.676
  -2919943.065 9  -2263244.50747  23073376.865    23073378.1254   23073382.7454
      1214.355         946.251
  -4202586.400 9  -3247010.07548  21183898.961    21183899.7414   21183905.3104
      2031.374        1582.889
  -1890540.781 9  -1464955.55746  23806443.599    23806444.2604   23806449.8704
       625.741         487.590
 97  5 13 15 52 30.0000000  0  6 19  2 27 26  7 15                   0.000906129
   4784396.351 9   3703691.15047  23583764.181    23583765.0974   23583771.2964
     -2940.794       -2291.528
   -591550.172 9   -459374.45948  21287650.119    21287650.6154   21287655.5144
       167.218         130.300
   1184214.589 9    921400.15148  20649002.480    20649003.4094   20649007.8564
     -1118.454        -871.523
  -2956109.550 9  -2291426.19747  23066494.557    23066495.8284   23066500.4944
      1196.673         932.472
  -4263284.164 9  -3294307.01448  21172348.450    21172349.3644   21172354.8834
      2015.096        1570.205
  -1909028.157 9  -1479361.30446  23802925.694    23802926.2014   23802931.6324
       606.666         472.727
 97  5 13 15 53  0.0000000  0  6 19  2 27 26  7 15                   0.000904487
   4872740.665 9   3772530.81747  23600575.514    23600576.5584   23600582.7644
     -2948.928       -2297.866
   -596467.847 9   -463206.41648  21286714.151    21286714.7844   21286719.6834
       160.354         124.951
   1218014.948 9    947738.05648  20655434.583    20655435.4634   20655439.8954
     -1135.118        -884.508
  -2991752.988 9  -2319200.31547  23059712.002    23059713.1404   23059717.7924
      1179.349         918.973
  -4323506.866 9  -3341233.77848  21160888.485    21160889.3604   21160894.9134
      1999.578        1558.113
  -1926950.777 9  -1493327.00546  23799515.001    23799515.5794   23799520.7094
       587.903         458.106
 97  5 13 15 53 30.0000000  0  6 19  2 27 26  7 15                   0.000902836
   4961326.676 9   3841558.80847  23617432.663    23617434.1154   23617440.2504
     -2956.755       -2303.965
   -601178.301 9   -466876.90848  21285817.823    21285818.4344   21285823.3314
       153.628         119.710
   1252325.126 9    974473.22848  20661963.867    20661964.5064   20661968.9364
     -1152.256        -897.862
  -3026876.657 9  -2346569.41847  23053028.058    23053029.3504   23053034.0284
      1162.182         905.596
  -4383269.681 9  -3387802.18448  21149516.101    21149516.8584   21149522.4434
      1984.711        1546.528
  -1944304.528 9  -1506849.37146  23796212.643    23796213.1684   23796218.2164
       568.921         443.315
 97  5 13 15 54  0.0000000  0  6 19  2 27 26  7 15                   0.000901172
   5050135.968 9   3910760.76547  23634332.911    23634334.0354   23634340.2114
     -2964.716       -2310.168
   -605694.394 9   -470395.94848  21284958.443    21284959.0794   21284963.9694
       146.540         114.187
   1287141.883 9   1001603.13648  20668589.286    20668589.9474   20668594.3844
     -1169.696        -911.451
  -3061484.350 9  -2373536.46147  23046442.480    23046443.7644   23046448.4614
      1144.012         891.438
  -4442604.991 9  -3434037.47348  21138225.022    21138225.6804   21138231.3074
      1970.051        1535.105
  -1961091.458 9  -1519930.09346  23793018.487    23793018.6784   23793023.6854
       549.353         428.067
 97  5 13 15 54 30.0000000  0  6 19  2 27 26  7 15                   0.000899505
   5139176.099 9   3980142.65247  23651276.815    23651277.9094   23651284.0434
     -2971.344       -2315.333
   -610009.360 9   -473758.26948  21284137.402    21284137.9954   21284142.9124
       141.302         110.105
   1322477.894 9   1029137.66248  20675313.541    20675314.1824   20675318.6524
     -1185.925        -924.097
  -3095550.754 9  -2400081.72647  23039960.111    23039961.2114   23039965.8914
      1127.037         878.211
  -4501507.785 9  -3479935.73448  21127016.140    21127016.8344   21127022.4454
      1956.888        1524.848
  -1977301.860 9  -1532561.57346  23789933.541    23789933.9264   23789939.1194
       531.388         414.069
 97  5 13 15 55  0.0000000  0  6 19  2 27 26  7 15                   0.000897846
   5228451.147 9   4049707.56147  23668266.178    23668266.3984   23668272.6694
     -2980.307       -2322.317
   -614146.502 9   -476982.02548  21283350.242    21283350.7544   21283355.6624
       134.416         104.740
   1358317.113 9   1057064.30548  20682133.515    20682134.1834   20682138.6554
     -1203.349        -937.675
  -3129078.967 9  -2426207.61547  23033579.974    23033581.0644   23033585.8134
      1108.154         863.497
  -4560000.719 9  -3525514.62348  21115885.469    21115885.9934   21115891.5834
      1942.379        1513.542
  -1992947.228 9  -1544752.79546  23786956.303    23786956.8614   23786961.9284
       511.518         398.585
 97  5 13 15 55 30.0000000  0  6 19  2 27 26  7 15                   0.000896210
   5317985.737 9   4119474.71747  23685303.634    23685304.4024   23685310.5354
     -2988.292       -2328.539
   -618085.102 9   -480051.06448  21282600.846    21282601.2974   21282606.1904
       128.574         100.188
   1394677.715 9   1085397.21748  20689052.833    20689053.4324   20689057.9154
     -1220.065        -950.700
  -3162046.392 9  -2451896.52747  23027306.630    23027307.5474   23027312.3344
      1090.116         849.441
  -4618051.106 9  -3570748.67148  21104838.762    21104839.3384   21104844.8864
      1928.048        1502.375
  -2008000.891 9  -1556482.90846  23784091.664    23784092.3544   23784097.2464
       492.467         383.740
 97  5 13 15 56  0.0000000  0  6 19  2 27 26  7 15                   0.000894600
   5407763.355 9   4189431.23747  23702387.732    23702388.5324   23702394.7284
     -2996.700       -2335.091
   -621849.003 9   -482983.97648  21281884.668    21281885.0794   21281889.9454
       122.495          95.451
   1431524.006 9   1114108.59348  20696064.458    20696065.0884   20696069.5884
     -1236.059        -963.163
  -3194464.899 9  -2477157.70347  23021137.355    23021138.5404   23021143.4324
      1071.387         834.847
  -4675667.212 9  -3615644.31348  21093874.602    21093875.3824   21093880.8834
      1912.988        1490.640
  -2022486.495 9  -1567770.36046  23781335.035    23781335.8324   23781340.7994
       473.513         368.971
 97  5 13 15 56 30.0000000  0  6 19  2 27 26  7 15                   0.000893035
   5497816.775 9   4259602.67547  23719524.149    23719525.2574   23719531.4874
     -3006.435       -2342.677
   -625411.110 9   -485759.65048  21281206.764    21281207.2444   21281212.1074
       115.259          89.812
   1468860.841 9   1143202.21348  20703169.453    20703170.0914   20703174.6314
     -1252.874        -976.265
  -3226316.589 9  -2501977.20947  23015076.174    23015077.2914   23015082.2614
      1052.368         820.027
  -4732799.735 9  -3660163.14448  21083002.406    21083003.3984   21083008.9084
      1896.080        1477.465
  -2036387.900 9  -1578602.66547  23778689.790    23778690.5504   23778695.6924
       453.458         353.344
 97  5 13 15 57  0.0000000  0  6 19  2 27 26  7 15                   0.000891499
   5588133.041 9   4329978.95746  23736710.828    23736711.8474   23736717.9834
     -3014.819       -2349.210
   -628779.005 9   -488383.98748  21280565.732    21280566.3494   21280571.2514
       108.963          84.906
   1506673.342 9   1172666.47848  20710364.766    20710365.5874   20710370.1664
     -1268.274        -988.265
  -3257628.357 9  -2526375.99847  23009117.629    23009118.8714   23009123.9134
      1034.762         806.308
  -4789456.760 9  -3704311.45548  21072220.914    21072221.9064   21072227.3914
      1880.623        1465.421
  -2049713.678 9  -1588986.40747  23776154.277    23776154.7604   23776160.1864
       434.619         338.664
 97  5 13 15 57 30.0000000  0  6 19  2 27 26  7 15                   0.000889993
   5678714.303 9   4400561.66847  23753947.730    23753948.9304   23753955.1924
     -3023.630       -2356.075
   -631938.588 9   -490846.00448  21279964.340    21279965.0844   21279970.0104
       102.099          79.558
   1544968.846 9   1202507.11348  20717652.035    20717652.9794   20717657.6224
     -1284.319       -1000.768
  -3288390.180 9  -2550346.26347  23003263.851    23003265.0734   23003270.1124
      1016.334         791.949
  -4845622.825 9  -3748077.19748  21061532.803    21061533.8974   21061539.3404
      1864.284        1452.689
  -2062453.790 9  -1598913.75847  23773730.231    23773730.4554   23773736.0724
       415.062         323.425
 97  5 13 15 58  0.0000000  0  6 19  2 27 26  7 15                   0.000888520
   5769560.844 9   4471351.13346  23771235.766    23771236.5964   23771242.8174
     -3032.823       -2363.239
   -634899.512 9   -493153.21648  21279400.956    21279401.6504   21279406.6334
        95.129          74.126
   1583741.362 9   1232719.44848  20725030.173    20725031.1844   20725035.8384
     -1300.858       -1013.656
  -3318600.748 9  -2573886.97947  22997514.768    22997516.1924   22997521.1954
       997.532         777.298
  -4901309.204 9  -3791469.16248  21050935.988    21050937.1444   21050942.5494
      1847.830        1439.868
  -2074611.443 9  -1608387.24747  23771416.571    23771416.9144   23771422.6234
       395.191         307.941
 97  5 13 15 58 30.0000000  0  6 19  2 27 26  7 15                   0.000887069
   5860657.115 9   4542335.16247  23788570.833    23788571.5614   23788577.9134
     -3040.289       -2369.056
   -637663.121 9   -495306.68348  21278875.031    21278875.7434   21278880.7724
        88.973          69.330
   1623002.871 9   1263312.81348  20732501.628    20732502.4224   20732507.0954
     -1316.973       -1026.213
  -3348265.695 9  -2597002.53747  22991869.912    22991871.1304   22991876.0994
       979.852         763.521
  -4956510.667 9  -3834483.27148  21040431.384    21040432.6124   21040437.9964
      1832.250        1427.727
  -2086182.860 9  -1617403.94247  23769214.442    23769214.8684   23769220.6694
       376.018         293.001
 97  5 13 15 59  0.0000000  0  6 19  2 27 26  7 15                   0.000885635
   5951988.649 9   4613502.59546  23805950.388    23805951.2904   23805957.6024
     -3048.325       -2375.318
   -640226.685 9   -497304.26948  21278387.147    21278387.8954   21278392.9804
        81.966          63.870
   1662770.762 9   1294300.76248  20740069.071    20740070.0214   20740074.6874
     -1334.089       -1039.550
  -3377372.620 9  -2619683.27747  22986331.065    22986332.2614   22986337.2414
       960.615         748.531
  -5011239.088 9  -3877128.78048  21030016.859    21030018.1074   21030023.4724
      1816.154        1415.185
  -2097165.861 9  -1625962.16047  23767124.308    23767124.8474   23767130.7164
       356.246         277.594
 97  5 13 15 59 30.0000000  0  6 19  2 27 26  7 15                   0.000884230
   6043559.392 9   4684856.38046  23823375.774    23823376.6764   23823383.0794
     -3056.083       -2381.363
   -642574.835 9   -499133.99648  21277940.363    21277941.0654   21277946.1784
        74.885          58.352
   1703055.058 9   1325691.10948  20747735.059    20747735.9014   20747740.5574
     -1351.260       -1052.930
  -3405892.986 9  -2641906.95047  22980903.670    22980904.9564   22980909.9924
       941.092         733.318
  -5065463.763 9  -3919381.75448  21019698.239    21019699.4454   21019704.8684
      1799.239        1402.004
  -2107549.989 9  -1634053.68846  23765148.019    23765148.7654   23765154.7124
       336.347         262.089
 97  5 13 16  0  0.0000000  0  6 19  2 27 26  7 15                   0.000882842
   6135347.879 9   4756379.81746  23840842.374    23840843.3914   23840849.8484
     -3063.475       -2387.123
   -644720.148 9   -500805.67148  21277532.081    21277532.8544   21277537.9764
        67.821          52.848
   1743846.442 9   1357476.58448  20755497.388    20755498.2584   20755502.9044
     -1368.473       -1066.342
  -3433840.236 9  -2663684.04248  22975585.336    22975586.7294   22975591.9164
       921.853         718.327
  -5119195.668 9  -3961250.75748  21009473.339    21009474.6154   21009480.0674
      1782.523        1388.979
  -2117345.706 9  -1641686.74246  23763283.548    23763284.4404   23763290.5194
       316.440         246.577
 97  5 13 16  0 30.0000000  0  6 19  2 27 26  7 15                   0.000881470
   6227354.944 9   4828073.54946  23858350.972    23858351.7714   23858358.2634
     -3070.712       -2392.763
   -646644.334 9   -502305.03448  21277165.927    21277166.6774   21277171.8074
        60.243          46.943
   1785155.173 9   1389665.18548  20763358.128    20763359.0854   20763363.6924
     -1385.741       -1079.798
  -3461211.993 9  -2685012.70948  22970376.934    22970378.1324   22970383.3064
       902.717         703.416
  -5172425.173 9  -4002728.27148  20999344.051    20999345.3524   20999350.8654
      1766.042        1376.137
  -2126544.925 9  -1648855.00446  23761533.207    23761533.8984   23761539.6604
       296.626         231.137
 97  5 13 16  1  0.0000000  0  6 19  2 27 26  7 15                   0.000880112
   6319596.480 9   4899949.96846  23875903.904    23875904.7394   23875911.4414
     -3078.533       -2398.857
   -648329.800 9   -503618.38548  21276845.068    21276845.9324   21276851.0654
        52.367          40.805
   1826995.606 9   1422268.10048  20771320.177    20771321.0714   20771325.7164
     -1403.262       -1093.451
  -3487998.609 9  -2705885.42748  22965279.498    22965280.8514   22965286.0164
       883.438         688.393
  -5225156.690 9  -4043817.74948  20989309.586    20989310.8654   20989316.4314
      1749.485        1363.235
  -2135136.734 9  -1655549.94246  23759898.215    23759899.0494   23759904.3184
       276.350         215.338
 97  5 13 16  1 30.0000000  0  6 19  2 27 26  7 15                   0.000878748
   6412041.753 9   4971985.20446  23893496.189    23893496.8234   23893503.1234
     -3084.507       -2403.512
   -649812.968 9   -504774.10448  21276562.781    21276563.6704   21276568.8354
        46.642          36.344
   1869333.840 9   1455258.90848  20779376.859    20779377.7914   20779382.4974
     -1419.356       -1105.992
  -3514248.112 9  -2726339.59848  22960284.477    22960285.7324   22960290.9954
       866.711         675.359
  -5277418.348 9  -4084541.10348  20979364.596    20979365.8094   20979371.4394
      1734.885        1351.858
  -2143142.195 9  -1661787.92546  23758374.799    23758375.8094   23758380.4054
       257.442         200.604
 97  5 13 16  2  0.0000000  0  6 19  2 27 26  7 15                   0.000877370
   6504701.035 9   5044187.12046  23911127.902    23911129.0644   23911135.6004
     -3092.410       -2409.670
   -651101.132 9   -505777.87348  21276317.662    21276318.5614   21276323.7124
        39.528          30.801
   1912183.343 9   1488648.11048  20787530.687    20787531.7714   20787536.5544
     -1436.967       -1119.715
  -3539977.124 9  -2746388.20248  22955388.242    22955389.6424   22955394.8994
       848.683         661.311
  -5329230.618 9  -4124914.28248  20969505.072    20969506.2864   20969511.9554
      1719.318        1339.728
  -2150554.933 9  -1667564.08346  23756964.508    23756965.3044   23756969.6624
       236.968         184.650
 97  5 13 16  2 30.0000000  0  6 19  2 27 26  7 15                   0.000875995
   6597583.085 9   5116562.67146  23928802.436    23928804.1304   23928810.6554
     -3099.764       -2415.401
   -652186.516 9   -506623.62848  21276111.174    21276112.0464   21276117.1574
        32.858          25.604
   1955546.194 9   1522437.32348  20795782.441    20795783.4294   20795788.3044
     -1453.955       -1132.952
  -3565166.813 9  -2766016.56148  22950595.013    22950596.2524   22950601.4254
       830.452         647.105
  -5380580.401 9  -4164927.08348  20959733.569    20959734.7504   20959740.4644
      1703.817        1327.650
  -2157362.340 9  -1672868.57146  23755668.869    23755669.8014   23755674.2864
       216.649         168.817
 97  5 13 16  3  0.0000000  0  6 19  2 27 26  7 15                   0.000874632
   6690672.558 9   5189099.87446  23946516.941    23946518.4134   23946524.8994
     -3106.255       -2420.458
   -653093.056 9   -507330.02348  21275938.866    21275939.5544   21275944.6414
        27.644          21.541
   1999399.998 9   1556609.09748  20804127.495    20804128.5144   20804133.4774
     -1469.715       -1145.232
  -3589817.775 9  -2785225.12148  22945904.198    22945905.4084   22945910.5884
       812.978         633.489
  -5431470.559 9  -4204581.73648  20950049.385    20950050.6494   20950056.4094
      1688.667        1315.844
  -2163567.947 9  -1677704.09646  23754487.959    23754488.6584   23754493.6834
       196.982         153.492
 97  5 13 16  3 30.0000000  0  6 19  2 27 26  7 15                   0.000873287
   6783973.918 9   5261802.18546  23964271.413    23964273.2424   23964279.6874
     -3114.104       -2426.575
   -653837.217 9   -507909.88848  21275797.343    21275797.9504   21275803.0214
        21.744          16.943
   2043741.865 9   1591161.17848  20812565.558    20812566.4964   20812571.4774
     -1486.531       -1158.336
  -3613929.388 9  -2804013.41448  22941315.902    22941317.1564   22941322.3374
       794.181         618.842
  -5481887.555 9  -4243867.69348  20940455.301    20940456.5704   20940462.3504
      1672.417        1303.182
  -2169171.728 9  -1682070.66146  23753421.490    23753422.2084   23753427.5314
       176.505         137.536
 97  5 13 16  4  0.0000000  0  6 19  2 27 26  7 15                   0.000871982
   6877505.885 9   5334684.10046  23982070.044    23982071.6564   23982078.3944
     -3121.636       -2432.444
   -654410.940 9   -508356.94348  21275688.166    21275688.7624   21275693.8414
        16.057          12.512
   2088562.564 9   1626086.37748  20821094.689    20821095.6074   20821100.5734
     -1501.946       -1170.348
  -3637476.751 9  -2822362.02248  22936834.981    22936836.2594   22936841.4814
       775.145         604.009
  -5531828.139 9  -4282782.41748  20930951.777    20930953.1774   20930958.9284
      1656.449        1290.739
  -2174176.510 9  -1685970.52346  23752469.497    23752469.7854   23752475.0924
       156.790         122.174
 97  5 13 16  4 30.0000000  0  6 19  2 27 26  7 15                   0.000870724
   6971273.268 9   5407749.55846  23999913.199    23999915.1364   23999921.5454
     -3129.054       -2438.224
   -654803.337 9   -508662.70748  21275613.434    21275614.0854   21275619.1584
        10.480           8.166
   2133861.418 9   1661384.15348  20829714.782    20829715.7444   20829720.6864
     -1517.687       -1182.613
  -3660437.930 9  -2840253.86848  22932465.662    22932466.9444   22932472.2004
       756.246         589.283
  -5581267.033 9  -4321306.22148  20921544.043    20921545.3154   20921550.9874
      1640.071        1277.977
  -2178578.126 9  -1689400.42846  23751631.669    23751632.1854   23751637.2024
       137.076         106.812
 97  5 13 16  5  0.0000000  0  6 19  2 27 26  7 15                   0.000869508
   7065290.758 8   5481009.84646  24017805.299    24017806.1494   24017812.6424
     -3138.516       -2445.597
   -654999.059 9   -508815.22548  21275576.225    21275576.8494   21275581.9184
         2.734           2.130
   2179662.246 9   1697073.09048  20838430.483    20838431.3754   20838436.2914
     -1535.430       -1196.439
  -3682821.558 9  -2857695.67448  22928206.310    22928207.4634   22928212.7304
       736.312         573.750
  -5630197.796 9  -4359434.07148  20912233.052    20912234.1304   20912239.7494
      1622.328        1264.152
  -2182371.666 9  -1692356.45646  23750909.564    23750910.3364   23750915.3014
       116.093          90.462
 97  5 13 16  5 30.0000000  0  6 19  2 27 26  7 15                   0.000868324
   7159579.552 9   5554481.56546  24035747.354    24035748.7704   24035755.4024
     -3147.421       -2452.536
   -654964.369 9   -508788.19348  21275582.943    21275583.4574   21275588.5304
        -5.167          -4.026
   2225981.933 9   1733166.33348  20847244.954    20847245.7714   20847250.6524
     -1552.489       -1209.732
  -3704619.971 9  -2874681.47348  22924058.207    22924059.4774   22924064.7294
       716.843         558.579
  -5678612.613 9  -4397159.88448  20903019.888    20903021.1164   20903026.6684
      1605.383        1250.948
  -2185556.190 9  -1694837.86746  23750303.969    23750304.3914   23750309.4324
        96.114          74.894
 97  5 13 16  6  0.0000000  0  6 19  2 27 26  7 15                   0.000867168
   7254127.529 9   5628155.21446  24053739.149    24053740.6254   24053747.2244
     -3155.829       -2459.088
   -654684.402 9   -508570.04048  21275636.136    21275636.7434   21275641.7974
       -13.577         -10.579
   2272818.382 9   1769662.24648  20856157.735    20856158.4834   20856163.3484
     -1570.254       -1223.575
  -3725831.484 9  -2891209.94648  22920021.845    22920023.1094   22920028.3284
       697.139         543.225
  -5726515.916 9  -4434487.11548  20893904.301    20893905.4244   20893910.9804
      1587.892        1237.318
  -2188135.023 9  -1696847.32146  23749813.601    23749813.9724   23749818.6504
        75.556          58.875
 97  5 13 16  6 30.0000000  0  6 19  2 27 26  7 15                   0.000866020
   7348903.572 9   5702006.65046  24071774.795    24071776.1934   24071782.5784
     -3162.536       -2464.314
   -654167.343 9   -508167.13948  21275734.518    21275735.1234   21275740.1734
       -20.861         -16.255
   2320186.691 9   1806572.58948  20865171.559    20865172.4054   20865177.2374
     -1587.550       -1237.052
  -3746467.880 9  -2907290.27548  22916095.020    22916096.1834   22916101.4104
       678.616         528.792
  -5773906.582 9  -4471414.89048  20884886.336    20884887.3064   20884892.8524
      1571.580        1224.608
  -2190106.633 9  -1698383.62047  23749438.718    23749439.1524   23749443.3394
        55.783          43.467
 97  5 13 16  7  0.0000000  0  6 19  2 27 26  7 15                   0.000864877
   7443887.793 8   5776020.28146  24089850.026    24089851.0474   24089857.2004
     -3169.309       -2469.591
   -653418.531 9   -507583.65348  21275877.027    21275877.6344   21275882.6884
       -28.400         -22.130
   2368076.067 9   1843888.96348  20874284.515    20874285.4984   20874290.3394
     -1604.537       -1250.289
  -3766528.901 9  -2922922.25548  22912277.440    22912278.7004   22912283.9464
       659.187         513.652
  -5820804.185 9  -4507958.45748  20875961.958    20875962.9734   20875968.5644
      1555.315        1211.934
  -2191474.291 9  -1699449.32947  23749178.824    23749179.1544   23749183.2564
        35.749          27.856
 97  5 13 16  7 30.0000000  0  6 19  2 27 26  7 15                   0.000863752
   7539069.933 9   5850188.04446  24107963.040    24107963.7734   24107970.4454
     -3175.880       -2474.712
   -652462.083 9   -506838.37648  21276059.059    21276059.6594   21276064.6944
       -34.962         -27.243
   2416468.268 9   1881597.14448  20883493.231    20883494.2554   20883499.0804
     -1621.434       -1263.455
  -3786008.479 9  -2938101.17848  22908570.823    22908571.9244   22908577.1074
       639.792         498.539
  -5867216.347 9  -4544123.75948  20867130.015    20867131.0364   20867136.6484
      1539.079        1199.282
  -2192239.035 9  -1700045.24447  23749033.426    23749033.7404   23749038.1614
        15.348          11.959
 97  5 13 16  8  0.0000000  0  6 19  2 27 26  7 15                   0.000862646
   7634440.297 8   5924502.61046  24126111.338    24126111.8754   24126118.5544
     -3181.912       -2479.412
   -651321.529 9   -505949.64148  21276276.074    21276276.7224   21276281.7114
       -40.802         -31.794
   2465365.842 9   1919699.12548  20892798.268    20892799.1984   20892803.9934
     -1638.150       -1276.481
  -3804915.274 9  -2952833.77748  22904972.805    22904974.0914   22904979.1734
       620.926         483.838
  -5913147.959 9  -4579914.60948  20858389.510    20858390.5074   20858396.1394
      1523.162        1186.879
  -2192390.760 9  -1700163.51246  23749004.725    23749004.8184   23749009.6474
        -5.032          -3.921
 97  5 13 16  8 30.0000000  0  6 19  2 27 26  7 15                   0.000861564
   7729999.125 9   5998963.92946  24144295.923    24144296.4234   24144302.9674
     -3189.150       -2485.052
   -650009.345 9   -504927.16648  21276525.757    21276526.4294   21276531.4274
       -47.177         -36.761
   2514755.089 9   1958184.23348  20902196.504    20902197.6824   20902202.4704
     -1654.776       -1289.436
  -3823255.800 9  -2967125.12648  22901482.674    22901483.9634   22901489.0184
       601.457         468.668
  -5958606.803 9  -4615337.06548  20849739.219    20849739.9264   20849745.6084
      1507.046        1174.322
  -2191933.634 9  -1699807.34946  23749091.370    23749091.3184   23749096.9154
       -25.783         -20.091
 97  5 13 16  9  0.0000000  0  6 19  2 27 26  7 15                   0.000860519
   7825784.412 9   6073601.72346  24162523.190    24162523.7444   24162530.4244
     -3196.701       -2490.936
   -648503.716 9   -503753.95548  21276812.346    21276812.9554   21276817.9544
       -53.241         -41.486
   2564638.788 9   1997054.62648  20911688.979    20911690.2474   20911694.9984
     -1670.906       -1302.005
  -3841017.372 9  -2980965.33948  22898102.761    22898104.0364   22898109.0254
       582.852         454.170
  -6003586.952 9  -4650386.51448  20841179.605    20841180.4854   20841186.1654
      1491.531        1162.232
  -2190858.288 9  -1698969.46146  23749294.828    23749295.5424   23749301.4664
       -45.874         -35.746
 97  5 13 16  9 30.0000000  0  6 19  2 27 26  7 15                   0.000859504
   7921810.377 8   6148427.10446  24180796.049    24180796.9934   24180803.5184
     -3204.679       -2497.152
   -646807.328 9   -502432.10048  21277135.153    21277135.7994   21277140.7764
       -59.725         -46.539
   2615020.674 9   2036313.21448  20921276.495    20921277.6644   20921282.3724
     -1687.667       -1315.065
  -3858225.133 9  -2994374.01448  22894828.361    22894829.5974   22894834.5134
       564.537         439.899
  -6048091.373 9  -4685065.26148  20832710.668    20832711.6014   20832717.2554
      1475.668        1149.871
  -2189174.817 9  -1697657.64746  23749615.171    23749616.0294   23749621.7604
       -66.101         -51.507
 97  5 13 16 10  0.0000000  0  6 19  2 27 26  7 15                   0.000858516
   8018081.723 9   6223443.72146  24199115.913    24199117.1974   24199123.3334
     -3213.057       -2503.681
   -644894.811 9   -500941.83148  21277499.215    21277499.7684   21277504.7454
       -67.516         -52.610
   2665911.762 9   2075968.57948  20930960.905    20930961.9354   20930966.6484
     -1704.764       -1328.388
  -3874866.402 9  -3007341.25348  22891661.723    22891662.9144   22891667.7754
       545.062         424.724
  -6092108.296 9  -4719364.14048  20824334.519    20824335.4414   20824341.0844
      1458.939        1136.836
  -2186880.230 9  -1695869.61646  23750052.064    23750052.6694   23750058.3834
       -86.622         -67.498
 97  5 13 16 10 30.0000000  0  6 19  2 27 26  7 15                   0.000857573
   8114620.866 9   6298668.89046  24217486.442    24217488.0484   24217494.5494
     -3222.602       -2511.118
   -642737.860 9   -499261.10048  21277909.666    21277910.2514   21277915.2014
       -76.064         -59.271
   2717323.974 9   2116030.01748  20940744.432    20940745.4064   20940750.0674
     -1722.576       -1342.267
  -3890902.697 9  -3019837.09648  22888610.118    22888611.3794   22888616.2344
       524.284         408.533
  -6135608.540 9  -4753260.41548  20816056.671    20816057.6294   20816063.2854
      1441.294        1123.086
  -2183958.017 9  -1693592.54347  23750608.500    23750608.9624   23750614.4734
      -107.994         -84.151
 97  5 13 16 11  0.0000000  0  6 19  2 27 26  7 15                   0.000856667
   8211406.728 9   6374086.42246  24235904.637    24235905.7514   24235912.2884
     -3230.305       -2517.121
   -640361.208 9   -497409.16948  21278362.045    21278362.5084   21278367.4404
       -82.954         -64.639
   2769240.429 9   2156484.37048  20950623.774    20950624.8184   20950629.4574
     -1739.132       -1355.168
  -3906357.183 9  -3031879.58148  22885669.118    22885670.5194   22885675.3694
       505.454         393.860
  -6178614.622 9  -4786771.63048  20807872.999    20807873.8604   20807879.5174
      1424.928        1110.333
  -2180427.909 9  -1690841.76046  23751280.528    23751280.6984   23751286.2544
      -128.065         -99.791
 97  5 13 16 11 30.0000000  0  6 19  2 27 26  7 15                   0.000855787
   8308426.985 9   6449686.52146  24254366.686    24254368.1504   24254374.7464
     -3236.876       -2522.241
   -637766.463 9   -495387.30048  21278855.770    21278856.2944   21278861.1894
       -89.426         -69.683
   2821657.742 9   2197328.99548  20960598.413    20960599.5404   20960604.1854
     -1754.778       -1367.359
  -3921232.197 9  -3043470.52948  22882838.830    22882839.9604   22882844.7774
       486.640         379.200
  -6221103.957 9  -4819880.19148  20799787.542    20799788.3844   20799794.0344
      1408.268        1097.352
  -2176282.493 9  -1687611.58746  23752069.390    23752069.4864   23752075.0754
      -147.849        -115.207
 97  5 13 16 12  0.0000000  0  6 19  2 27 26  7 15                   0.000854919
   8405625.823 9   6525425.76546  24272863.018    24272864.4754   24272871.2084
     -3243.361       -2527.294
   -634988.049 9   -493222.30348  21279384.460    21279385.0664   21279389.9034
       -95.943         -74.761
   2874530.629 9   2238528.62748  20970659.872    20970660.9554   20970665.6054
     -1770.332       -1379.479
  -3935546.928 9  -3054624.89047  22880114.901    22880115.9764   22880120.7814
       467.393         364.202
  -6263098.363 9  -4852603.08548  20791796.332    20791797.0374   20791802.6774
      1391.195        1084.048
  -2171544.638 9  -1683919.77546  23752970.764    23752971.0774   23752976.8574
      -168.273        -131.122
 97  5 13 16 12 30.0000000  0  6 19  2 27 26  7 15                   0.000854073
   8503017.973 9   6601315.70146  24291396.314    24291397.6194   24291404.2394
     -3249.712       -2532.243
   -632026.949 9   -490914.96048  21279948.022    21279948.6004   21279953.3904
      -101.920         -79.418
   2927870.212 9   2280091.90248  20980810.304    20980811.1734   20980815.8284
     -1785.987       -1391.678
  -3949295.242 9  -3065337.88048  22877498.491    22877499.7044   22877504.6084
       449.049         349.908
  -6304590.701 9  -4884934.75548  20783900.313    20783901.2804   20783906.8964
      1374.693        1071.189
  -2166196.495 9  -1679752.38346  23753988.341    23753988.6274   23753994.7444
      -188.563        -146.932
 97  5 13 16 13  0.0000000  0  6 19  2 27 26  7 15                   0.000853229
   8600599.349 9   6677353.09446  24309965.423    24309966.8374   24309973.4454
     -3255.135       -2536.469
   -628877.326 9   -488460.71048  21280547.449    21280547.9914   21280552.7304
      -107.540         -83.797
   2981683.311 9   2322024.15148  20991050.538    20991051.4694   20991056.1684
     -1801.020       -1403.392
  -3962506.737 9  -3075632.58148  22874984.565    22874985.6634   22874990.6114
       432.119         336.716
  -6345580.502 9  -4916874.84348  20776100.207    20776101.2004   20776106.7834
      1358.349        1058.454
  -2160237.973 9  -1675109.38846  23755122.087    23755122.4254   23755128.6234
      -208.176        -162.215
 97  5 13 16 13 30.0000000  0  6 19  2 27 26  7 15                   0.000852380
   8698363.481 9   6753532.77546  24328568.926    24328570.5594   24328577.5824
     -3262.089       -2541.888
   -625540.529 9   -485860.61548  21281182.507    21281182.9784   21281187.6794
      -114.553         -89.262
   3035966.168 9   2364322.44548  21001379.976    21001381.1564   21001385.9014
     -1817.596       -1416.309
  -3975183.087 9  -3085510.27648  22872572.161    22872573.3854   22872578.3214
       413.039         321.849
  -6386057.265 9  -4948415.15748  20768397.728    20768398.7074   20768404.2974
      1340.568        1044.598
  -2153671.859 9  -1669992.96046  23756371.633    23756371.9414   23756377.7494
      -229.260        -178.644
 97  5 13 16 14  0.0000000  0  6 19  2 27 26  7 15                   0.000851558
   8796336.973 9   6829875.73546  24347213.077    24347214.4474   24347221.3504
     -3269.649       -2547.778
   -621995.566 9   -483098.30848  21281857.082    21281857.5644   21281862.2594
      -121.751         -94.871
   3090752.638 9   2407013.16448  21011805.639    21011806.6934   21011811.4724
     -1834.753       -1429.678
  -3987282.993 9  -3094938.79748  22870269.857    22870270.9324   22870275.7904
       393.760         306.826
  -6426012.467 9  -4979549.06148  20760794.585    20760795.5114   20760801.0794
      1323.174        1031.045
  -2146478.971 9  -1664388.08346  23757740.514    23757740.8824   23757746.0124
      -250.193        -194.956
 97  5 13 16 14 30.0000000  0  6 19  2 27 26  7 15                   0.000850747
   8894529.222 9   6906388.97846  24365898.394    24365899.8924   24365907.0614
     -3276.510       -2553.125
   -618246.054 9   -480176.61448  21282570.574    21282571.0794   21282575.7654
      -128.360        -100.021
   3146038.083 9   2450092.69148  21022326.352    21022327.1854   21022331.9994
     -1851.023       -1442.356
  -3998829.666 9  -3103936.23448  22868072.863    22868073.7314   22868078.5304
       376.026         293.007
  -6465463.006 9  -5010289.72948  20753287.511    20753288.3594   20753293.9054
      1306.706        1018.212
  -2138676.308 9  -1658308.05146  23759225.386    23759225.7094   23759230.7634
      -270.108        -210.474
 97  5 13 16 15  0.0000000  0  6 19  2 27 26  7 15                   0.000849945
   8992940.249 8   6983072.88946  24384625.777    24384626.9394   24384634.0354
     -3283.781       -2558.790
   -614280.887 9   -477086.88248  21283325.052    21283325.6394   21283330.3644
      -135.447        -105.543
   3201819.677 9   2493558.82648  21032941.343    21032942.1084   21032946.9654
     -1867.317       -1455.052
  -4009821.206 9  -3112501.09048  22865981.100    22865982.1804   22865986.9594
       356.935         278.131
  -6504402.161 9  -5040631.90948  20745877.870    20745878.5084   20745884.0494
      1289.699        1004.960
  -2130263.175 9  -1651752.39747  23760826.071    23760826.6564   23760832.0584
      -290.428        -226.308
 97  5 13 16 15 30.0000000  0  6 19  2 27 26  7 15                   0.000849156
   9091537.236 9   7059901.60346  24403387.912    24403389.5994   24403396.6334
     -3290.397       -2563.946
   -610136.059 9   -473857.15648  21284113.866    21284114.3924   21284119.1464
      -141.981        -110.635
   3258062.297 9   2537384.20848  21043643.971    21043644.7524   21043649.5954
     -1883.284       -1467.494
  -4020257.511 9  -3120633.29948  22863995.190    22863996.2034   22864001.0074
       337.817         263.234
  -6542870.275 9  -5070607.04248  20738557.612    20738558.2784   20738563.7764
      1273.869         992.625
  -2121266.124 9  -1644741.76947  23762538.459    23762538.9364   23762544.4844
      -310.497        -241.946
 97  5 13 16 16  0.0000000  0  6 19  2 27 26  7 15                   0.000848403
   9190358.763 9   7136905.30446  24422193.362    24422194.7324   24422201.5904
     -3297.488       -2569.471
   -605772.822 9   -470457.23848  21284944.315    21284944.7314   21284949.4624
      -148.745        -115.905
   3314805.723 9   2581599.82648  21054441.943    21054442.7384   21054447.5704
     -1899.451       -1480.092
  -4030109.490 9  -3128310.19648  22862120.199    22862121.4564   22862126.2994
       319.282         248.791
  -6580850.503 9  -5100202.00748  20731330.316    20731330.8944   20731336.3614
      1258.074         980.317
  -2111644.078 9  -1637244.10447  23764370.106    23764370.1454   23764375.8004
      -331.004        -257.925
 97  5 13 16 16 30.0000000  0  6 19  2 27 26  7 15                   0.000847656
   9289364.846 9   7214052.77446  24441033.747    24441034.9674   24441042.0264
     -3303.089       -2573.836
   -601228.041 9   -466915.85748  21285809.265    21285809.6294   21285814.3694
      -154.617        -120.481
   3372012.987 9   2626176.88548  21065328.295    21065328.9654   21065333.7714
     -1914.841       -1492.084
  -4039426.428 9  -3135570.17447  22860347.338    22860348.4574   22860353.3084
       301.206         234.706
  -6618371.412 9  -5129439.06348  20724190.286    20724190.8744   20724196.3454
      1242.721         968.354
  -2101423.132 9  -1629279.76146  23766315.189    23766315.1304   23766320.9984
      -350.894        -273.424
 97  5 13 16 17  0.0000000  0  6 19  2 27 26  7 15                   0.000846931
   9388539.118 9   7291331.36046  24459905.898    24459907.1384   24459914.2934
     -3308.494       -2578.047
   -596500.101 9   -463231.76048  21286708.944    21286709.3554   21286714.0954
      -160.668        -125.196
   3429695.005 9   2671123.88748  21076304.889    21076305.5434   21076310.3314
     -1930.791       -1504.512
  -4048174.366 9  -3142386.77448  22858682.815    22858683.8394   22858688.6464
       282.015         219.752
  -6655417.258 9  -5158305.93948  20717140.752    20717141.2554   20717146.7274
      1226.942         956.059
  -2090592.009 9  -1620839.90545  23768375.828    23768375.9374   23768381.6994
      -371.278        -289.308
 97  5 13 16 17 30.0000000  0  6 19  2 27 26  7 15                   0.000846222
   9487870.783 8   7368732.55045  24478808.705    24478809.3914   24478816.5224
     -3314.031       -2582.362
   -591590.600 9   -459406.18048  21287643.198    21287643.6294   21287648.3664
      -166.944        -130.086
   3487863.430 9   2716449.90448  21087374.294    21087374.6214   21087379.4704
     -1947.498       -1517.531
  -4056357.975 9  -3148763.65048  22857125.814    22857126.6254   22857131.4424
       263.239         205.121
  -6691992.701 9  -5186806.27148  20710180.825    20710181.1894   20710186.6404
      1210.979         943.620
  -2079154.021 9  -1611927.11346  23770551.788    23770552.2614   23770557.1474
      -391.651        -305.183
 97  5 13 16 18  0.0000000  0  6 19  2 27 26  7 15                   0.000845523
   9587361.312 8   7446257.57246  24497740.620    24497741.9674   24497749.0804
     -3318.927       -2586.177
   -586495.233 9   -455435.77248  21288612.925    21288613.2784   21288617.9874
      -173.082        -134.869
   3546531.096 9   2762164.94448  21098538.322    21098538.7174   21098543.6234
     -1964.108       -1530.474
  -4063979.208 9  -3154702.29948  22855675.606    22855676.3504   22855681.1474
       244.417         190.455
  -6728082.746 9  -5214928.37348  20703312.976    20703313.4484   20703318.9094
      1194.515         930.791
  -2067110.368 9  -1602542.45447  23772843.803    23772844.3155   23772849.1174
      -411.610        -320.735
 97  5 13 16 18 30.0000000  0  6 19  2 27 26  7 15                   0.000844839
   9686993.304 9   7523892.73246  24516700.103    24516701.3144   24516708.5094
     -3323.975       -2590.110
   -581217.030 9   -451322.89448  21289617.401    21289617.6974   21289622.4344
      -179.589        -139.939
   3605694.829 9   2808266.53348  21109796.718    21109797.1524   21109802.1624
     -1980.969       -1543.612
  -4071021.780 9  -3160190.04148  22854335.496    22854336.2274   22854341.0894
       224.379         174.841
  -6763675.469 9  -5242662.94548  20696539.973    20696540.3964   20696545.8494
      1177.590         917.603
  -2054470.073 9  -1592692.90647  23775249.595    23775249.9714   23775254.9774
      -431.819        -336.482
 97  5 13 16 19  0.0000000  0  6 19  2 27 26  7 15                   0.000844192
   9786805.128 9   7601668.13946  24535693.771    24535694.9894   24535701.9184
     -3330.308       -2595.045
   -575731.912 9   -447048.78348  21290661.224    21290661.5074   21290666.2264
      -186.108        -145.019
   3665383.878 9   2854777.45048  21121155.343    21121155.5684   21121160.6524
     -1998.353       -1557.158
  -4077452.435 9  -3165200.96448  22853111.750    22853112.5134   22853117.4404
       204.516         159.363
  -6798751.084 9  -5269994.58248  20689865.280    20689865.7644   20689871.1894
      1160.776         904.501
  -2041211.489 9  -1582361.57947  23777772.520    23777772.9804   23777778.2154
      -452.153        -352.327
 97  5 13 16 19 30.0000000  0  6 19  2 27 26  7 15                   0.000843580
   9886812.526 8   7679595.95046  24554724.775    24554725.8214   24554732.9144
     -3336.733       -2600.052
   -570053.194 9   -442623.81948  21291741.977    21291742.1644   21291746.8554
      -192.173        -149.745
   3725588.064 9   2901689.77248  21132611.827    21132612.0354   21132617.1924
     -2014.880       -1570.036
  -4083295.595 9  -3169754.09948  22851999.964    22852000.6194   22852005.5764
       185.228         144.334
  -6833320.991 9  -5296932.15248  20683286.941    20683287.3454   20683292.7404
      1144.158         891.552
  -2027341.849 9  -1571554.13446  23780411.501    23780411.8814   23780417.7474
      -472.253        -367.989
 97  5 13 16 20  0.0000000  0  6 19  2 27 26  7 15                   0.000843006
   9987017.983 8   7757677.98446  24573794.085    24573794.3944   24573801.5794
     -3343.140       -2605.044
   -564187.640 9   -438053.27048  21292858.067    21292858.3264   21292863.0054
      -198.391        -154.590
   3786278.473 9   2948980.98248  21144160.797    21144161.0574   21144166.2604
     -2030.665       -1582.336
  -4088555.896 9  -3173853.06448  22850999.175    22850999.7264   22851004.6624
       166.063         129.400
  -6867390.162 9  -5323479.54448  20676803.674    20676804.2114   20676809.5594
      1127.614         878.660
  -2012868.847 9  -1560276.51546  23783165.407    23783165.8214   23783171.7104
      -492.214        -383.543
 97  5 13 16 20 30.0000000  0  6 19  2 27 26  7 15                   0.000842447
  10087407.814 8   7835903.81645  24592897.452    24592898.0684   24592904.7914
     -3349.942       -2610.344
   -558149.571 9   -433348.28948  21294007.077    21294007.3294   21294012.0084
      -204.559        -159.397
   3847421.452 9   2996624.83448  21155795.788    21155796.1664   21155801.4384
     -2045.993       -1594.280
  -4093266.507 9  -3177523.69448  22850102.504    22850103.3574   22850108.3234
       147.721         115.107
  -6900977.257 9  -5349651.28848  20670412.456    20670412.7924   20670418.1254
      1111.105         865.796
  -1997806.376 9  -1548539.47646  23786032.397    23786032.3974   23786037.7994
      -512.404        -399.276
 97  5 13 16 21  0.0000000  0  6 19  2 27 26  7 15                   0.000841905
  10188005.160 8   7914291.17746  24612040.467    24612040.9074   24612048.2354
     -3356.786       -2615.677
   -551922.078 9   -428495.70448  21295192.184    21295192.3744   21295197.0554
      -211.156        -164.537
   3909028.512 9   3044630.30948  21167519.338    21167519.5844   21167524.9364
     -2061.505       -1606.368
  -4097434.592 9  -3180771.57948  22849309.630    22849310.2714   22849315.2394
       129.746         101.101
  -6934065.150 9  -5375434.04348  20664116.131    20664116.3824   20664121.6934
      1094.337         852.730
  -1982133.856 9  -1536327.13346  23789014.764    23789014.9404   23789020.1764
      -532.863        -415.218
 97  5 13 16 21 30.0000000  0  6 19  2 27 26  7 15                   0.000841363
  10288792.123 8   7992826.41845  24631219.955    24631220.2684   24631227.1944
     -3362.128       -2619.840
   -545488.836 9   -423482.80148  21296416.458    21296416.6074   21296421.2764
      -217.661        -169.606
   3971085.167 9   3092986.11248  21179328.366    21179328.5924   21179334.0594
     -2075.551       -1617.312
  -4101066.789 9  -3183601.88148  22848618.128    22848619.1044   22848624.0624
       112.477          87.644
  -6966650.202 9  -5400824.98148  20657915.568    20657915.6514   20657920.9604
      1078.185         840.144
  -1965850.227 9  -1523638.62346  23792113.276    23792113.7334   23792118.9264
      -552.577        -430.579
 97  5 13 16 22  0.0000000  0  6 19  2 27 26  7 15                   0.000840811
  10389740.306 8   8071487.23446  24650429.409    24650430.0924   24650437.3104
     -3367.055       -2623.679
   -538853.106 9   -418312.11148  21297679.177    21297679.3234   21297684.0354
      -224.097        -174.621
   4033579.614 9   3141683.05548  21191220.706    21191220.9014   21191226.4034
     -2090.228       -1628.749
  -4104174.289 9  -3186023.33748  22848026.898    22848027.7484   22848032.8114
        95.183          74.169
  -6998743.964 9  -5425833.09048  20651808.032    20651808.3854   20651813.7014
      1061.854         827.419
  -1948965.920 9  -1510482.07546  23795326.379    23795326.7094   23795331.9804
      -572.504        -446.107
 97  5 13 16 22 30.0000000  0  6 19  2 27 26  7 15                   0.000840243
  10490834.174 8   8150261.68546  24669667.390    24669667.5644   24669674.5184
     -3371.930       -2627.478
   -532036.296 9   -413000.32348  21298976.409    21298976.4974   21298981.2094
      -229.897        -179.141
   4096512.253 9   3190721.43948  21203196.327    21203196.6354   21203202.1174
     -2104.906       -1640.186
  -4106763.721 9  -3188041.10348  22847533.890    22847534.9124   22847540.0554
        77.735          60.573
  -7030350.448 9  -5450461.50648  20645793.507    20645793.8104   20645799.1394
      1045.762         814.879
  -1931489.231 9  -1496863.92546  23798652.364    23798652.3444   23798657.8594
      -592.215        -461.466
 97  5 13 16 23  0.0000000  0  6 19  2 27 26  7 15                   0.000839688
  10592090.942 8   8229162.93246  24688935.638    24688936.1204   24688943.3214
     -3377.599       -2631.895
   -525020.792 9   -407533.70848  21300311.306    21300311.4784   21300316.2034
      -236.893        -184.592
   4159915.556 9   3240126.57248  21215261.578    21215261.9524   21215267.3974
     -2121.066       -1652.779
  -4108794.996 9  -3189623.93948  22847147.820    22847148.3974   22847153.5654
        58.409          45.514
  -7061457.267 9  -5474700.57148  20639874.056    20639874.3594   20639879.6374
      1028.933         801.766
  -1913400.161 9  -1482768.53246  23802094.556    23802094.5604   23802099.9004
      -612.845        -477.542
 97  5 13 16 23 30.0000000  0  6 19  2 27 26  7 15                   0.000839145
  10693498.784 9   8308181.90946  24708232.657    24708233.6134   24708240.7454
     -3383.154       -2636.224
   -517820.805 9   -401923.33848  21301681.503    21301681.5364   21301686.2854
      -243.263        -189.555
   4223779.405 9   3289890.57748  21227414.485    21227414.8944   21227420.2534
     -2136.800       -1665.039
  -4110264.328 9  -3190768.89948  22846868.035    22846868.8274   22846874.0634
        39.373          30.680
  -7092083.402 9  -5498565.07448  20634046.264    20634046.4544   20634051.6104
      1012.578         789.022
  -1894717.448 9  -1468210.58246  23805649.814    23805649.9294   23805655.0124
      -632.885        -493.157
 97  5 13 16 24  0.0000000  0  6 19  2 27 26  7 15                   0.000838639
  10795086.831 9   8387341.33646  24727563.977    24727565.3694   24727572.5504
     -3389.157       -2640.901
   -510418.645 9   -396155.43148  21303090.094    21303090.1394   21303094.8694
      -250.102        -194.885
   4288142.164 9   3340043.33748  21239662.432    21239662.7264   21239668.0704
     -2153.800       -1678.286
  -4111143.122 9  -3191453.70448  22846700.893    22846701.6564   22846706.8454
        19.413          15.127
  -7122199.931 9  -5522032.48148  20628315.413    20628315.4914   20628320.5674
       995.362         775.607
  -1875418.656 9  -1453172.59746  23809322.646    23809322.3564   23809327.6004
      -653.574        -509.278
 97  5 13 16 24 30.0000000  0  6 19  2 27 26  7 15                   0.000838158
  10896832.555 9   8466623.63046  24746925.649    24746927.0964   24746934.1754
     -3393.962       -2644.646
   -502824.262 9   -390237.73848  21304535.320    21304535.3214   21304540.0404
      -256.343        -199.748
   4352991.599 9   3390575.32848  21252002.916    21252003.1524   21252008.5554
     -2169.672       -1690.654
  -4111445.547 9  -3191689.38448  22846643.460    22846644.1774   22846649.3554
         0.668           0.521
  -7151826.072 9  -5545117.77048  20622677.770    20622677.8724   20622682.8784
       979.714         763.413
  -1855520.945 9  -1437667.94446  23813108.898    23813108.6744   23813114.0424
      -673.136        -524.522
 97  5 13 16 25  0.0000000  0  6 19  2 27 26  7 15                   0.000837702
  10998732.672 9   8546026.16045  24766317.594    24766318.2594   24766325.3224
     -3399.421       -2648.899
   -495027.240 9   -384162.14648  21306019.039    21306019.0664   21306023.7934
      -263.493        -205.319
   4418329.099 9   3441487.63448  21264436.312    21264436.4814   21264441.8674
     -2186.123       -1703.472
  -4111173.657 9  -3191477.55048  22846695.127    22846695.9214   22846701.2244
       -18.810         -14.657
  -7180976.410 9  -5567832.29848  20617130.749    20617130.7314   20617135.7514
       963.449         750.739
  -1835023.289 9  -1421695.79246  23817009.455    23817009.3264   23817014.7734
      -693.465        -540.362
 97  5 13 16 25 30.0000000  0  6 19  2 27 26  7 15                   0.000837257
  11100772.859 8   8625538.04545  24785734.815    24785735.9184   24785742.7614
     -3403.703       -2652.236
   -487038.318 9   -377937.01748  21307539.206    21307539.3024   21307544.0494
      -269.798        -210.232
   4484125.522 9   3492757.53648  21276956.729    21276957.1744   21276962.5724
     -2200.996       -1715.062
  -4110347.977 9  -3190834.19748  22846852.264    22846853.0474   22846858.3224
       -36.775         -28.656
  -7209660.186 9  -5590183.27748  20611672.090    20611672.3834   20611677.4004
       948.115         738.791
  -1813937.745 9  -1405265.49346  23821022.009    23821021.7854   23821027.0624
      -712.904        -555.510
 97  5 13 16 26  0.0000000  0  6 19  2 27 26  7 15                   0.000836814
  11202937.058 8   8705146.30446  24805176.263    24805177.0814   24805184.3294
     -3406.776       -2654.631
   -478856.992 9   -371561.96848  21309096.139    21309096.1794   21309100.9374
      -275.016        -214.298
   4550372.842 9   3544378.79048  21289563.081    21289563.7094   21289569.0784
     -2214.988       -1725.965
  -4108978.881 9  -3189767.39148  22847112.605    22847113.5954   22847118.8534
       -54.034         -42.104
  -7237879.549 9  -5612172.37448  20606302.156    20606302.4114   20606307.4364
       933.615         727.492
  -1792260.752 9  -1388374.32946  23825147.026    23825146.9064   23825151.9074
      -731.711        -570.164
 97  5 13 16 26 30.0000000  0  6 19  2 27 26  7 15                   0.000836308
  11305231.324 8   8784856.03545  24824642.505    24824643.3234   24824650.1624
     -3412.770       -2659.301
   -470498.383 9   -365048.77348  21310686.729    21310686.7964   21310691.5564
      -281.941        -219.694
   4617057.353 9   3596340.70248  21302252.940    21302253.4444   21302258.7364
     -2230.519       -1738.067
  -4107066.314 9  -3188277.11848  22847476.764    22847477.6164   22847482.7574
       -73.351         -57.157
  -7265645.096 9  -5633807.85548  20601018.609    20601018.8144   20601023.8514
       917.485         714.923
  -1769993.981 9  -1371023.60446  23829384.208    23829384.0264   23829388.8934
      -752.611        -586.450
 97  5 13 16 27  0.0000000  0  6 19  2 27 26  7 15                   0.000835924
  11407692.720 8   8864696.03546  24844140.369    24844141.2534   24844147.9274
     -3417.738       -2663.172
   -461953.844 9   -358390.69548  21312312.608    21312312.7614   21312317.5434
      -287.533        -224.052
   4684188.828 9   3648650.89948  21315027.789    21315028.2254   21315033.5064
     -2244.739       -1749.147
  -4104589.345 9  -3186347.04348  22847948.098    22847949.0434   22847954.0674
       -91.434         -71.247
  -7292931.415 9  -5655069.90248  20595826.095    20595826.3924   20595831.4174
       901.613         702.556
  -1747116.179 9  -1353196.79346  23833737.618    23833737.4384   23833742.4734
      -772.356        -601.836
 97  5 13 16 27 30.0000000  0  6 19  2 27 26  7 15                   0.000835544
  11510308.353 9   8944656.07645  24863667.053    24863668.0634   24863675.0974
     -3422.864       -2667.167
   -453232.483 9   -351594.83848  21313972.244    21313972.3724   21313977.1724
      -293.655        -228.822
   4751756.644 9   3701301.10448  21327885.603    21327885.9754   21327891.2464
     -2259.627       -1760.748
  -4101571.404 9  -3183995.43048  22848522.349    22848523.3174   22848528.3134
      -109.281         -85.154
  -7319730.414 9  -5675952.22748  20590726.296    20590726.6644   20590731.7194
       885.280         689.829
  -1723642.280 9  -1334905.46846  23838204.175    23838204.4574   23838209.5844
      -792.238        -617.328
 97  5 13 16 28  0.0000000  0  6 19  2 27 26  7 15                   0.000835172
  11613083.191 8   9024740.26446  24883225.192    24883225.9194   24883232.7954
     -3428.530       -2671.582
   -444323.190 9   -344652.53648  21315667.606    21315667.7754   21315672.5504
      -299.936        -233.716
   4819785.992 9   3754310.95048  21340831.190    21340831.5724   21340836.7924
     -2275.311       -1772.970
  -4098012.464 9  -3181222.25748  22849199.676    22849200.5534   22849205.6674
      -127.663         -99.478
  -7346028.514 9  -5696444.23748  20585721.864    20585722.2844   20585727.3864
       868.295         676.594
  -1699569.265 9  -1316147.28646  23842785.227    23842785.4884   23842790.6054
      -812.294        -632.956
 97  5 13 16 28 30.0000000  0  7 19  2 27 26  9  7 15                0.000834806
  11716022.985 8   9104952.99145  24902813.813    24902814.4674   24902820.7804
     -3433.710       -2675.618
   -435230.465 9   -337567.30448  21317397.799    21317398.0734   21317402.8444
      -306.214        -238.608
   4888273.520 9   3807677.80648  21353863.958    21353864.3404   21353869.5834
     -2290.381       -1784.712
  -4093914.683 9  -3178029.20648  22849979.423    22849980.3004   22849985.5704
      -145.258        -113.188
   -308027.85718   -227769.17755  25387618.510           0.0005   25387625.7015
      3387.061        2639.268
  -7371831.939 9  -5716550.78948  20580811.407    20580812.0274   20580817.1654
       851.901         663.819
  -1674906.729 9  -1296929.72246  23847478.537    23847478.7284   23847483.7574
      -831.772        -648.134
 97  5 13 16 29  0.0000000  0  7 19  2 27 26  9  7 15                0.000834430
  11819107.606 8   9185278.55045  24922430.229    24922430.9824   24922437.5494
     -3438.274       -2679.175
   -425929.226 9   -330319.59148  21319167.774    21319168.0564   21319172.8464
      -313.587        -244.354
   4957236.793 9   3861415.38148  21366986.777    21366987.6084   21366992.8714
     -2306.852       -1797.547
  -4089281.169 9  -3174418.69748  22850861.118    22850862.0174   22850867.3594
      -163.257        -127.213
   -409620.273 8   -306931.96555  25368281.045    25368288.0195   25368294.0295
      3386.043        2638.475
  -7397117.855 9  -5736254.08848  20575999.627    20576000.3024   20576005.4504
       834.296         650.101
  -1649647.329 9  -1277247.06046  23852285.215    23852285.2824   23852290.3964
      -851.904        -663.821
 97  5 13 16 29 30.0000000  0  7 19  2 27 26  9  7 15                0.000834058
  11922336.030 8   9265716.08345  24942073.973    24942074.6344   24942081.6904
     -3443.190       -2683.005
   -416402.131 9   -322895.88948  21320980.774    21320981.0164   21320985.8264
      -321.155        -250.251
   5026698.785 9   3915541.55548  21380205.044    21380205.8124   21380211.0764
     -2323.439       -1810.472
  -4084105.802 9  -3170385.98248  22851845.847    22851846.8994   22851852.1794
      -181.418        -141.365
   -511186.221 9   -386074.20645  25348957.876    25348959.3725   25348967.2564
      3385.577        2638.112
  -7421885.874 9  -5755553.82948  20571286.234    20571287.0764   20571292.2774
       817.437         636.964
  -1623782.954 9  -1257093.01946  23857206.322    23857207.0674   23857212.3614
      -872.024        -679.499
 97  5 13 16 30  0.0000000  0  7 19  2 27 26  9  7 15                0.000833693
  12025683.927 8   9346246.82745  24961740.884    24961741.1404   24961747.9474
     -3446.819       -2685.833
   -406680.822 9   -315320.85148  21322830.390    21322830.8764   21322835.7504
      -326.941        -254.759
   5096625.332 9   3970029.73248  21393511.986    21393512.4484   21393517.7354
     -2338.351       -1822.092
  -4078400.655 9  -3165940.43948  22852931.295    22852932.5794   22852937.8914
      -199.081        -155.128
   -612763.310 8   -465225.21045  25329629.271    25329630.5894   25329637.4964
      3386.097        2638.517
  -7446179.736 9  -5774484.09648  20566663.189    20566664.1054   20566669.3564
       801.978         624.918
  -1597339.246 9  -1236487.56346  23862238.028    23862238.9874   23862244.4544
      -891.034        -694.312
 97  5 13 16 30 30.0000000  0  8 19  2 27 26  4  9  7 15             0.000833343
  12129155.779 8   9426874.18145  24981430.736    24981431.2974   24981438.0084
     -3451.222       -2689.264
   -396779.405 9   -307605.47648  21324714.620    21324715.0484   21324719.9334
      -333.162        -259.607
   5167005.114 9   4024871.07548  21406904.809    21406905.3184   21406910.5784
     -2353.640       -1834.005
  -4072158.896 9  -3161076.77248  22854119.277    22854120.3844   22854125.6414
      -217.047        -169.127
   -314802.36118   -232313.37755  25229658.587           0.0005   25229670.8885
      3459.781        2695.933
   -714336.473 8   -544373.07845  25310300.644    25310302.0914   25310308.5374
      3385.571        2638.107
  -7469998.598 9  -5793044.24148  20562130.563    20562131.5174   20562136.8024
       785.772         612.290
  -1570310.710 9  -1215426.38046  23867381.443    23867382.4084   23867387.8774
      -910.946        -709.828
 97  5 13 16 31  0.0000000  0  8 19  2 27 26  4  9  7 15             0.000833017
  12232767.059 8   9507610.12445  25001147.677    25001148.0704   25001154.8594
     -3455.967       -2692.961
   -386690.358 9   -299743.88848  21326634.387    21326634.9094   21326639.8404
      -339.015        -264.168
   5237850.626 9   4080075.32648  21420386.410    21420386.7774   21420392.0804
     -2368.878       -1845.879
  -4065369.454 9  -3155786.32648  22855411.146    22855412.4174   22855417.6914
      -235.246        -183.309
   -418644.524 8   -313229.23645  25209899.226    25209903.2945   25209912.2734
      3463.462        2698.802
   -815893.257 8   -623508.07845  25290975.468    25290976.3564   25290982.6354
      3385.130        2637.764
  -7493319.474 9  -5811216.33848  20557692.719    20557693.6734   20557698.9904
       769.569         599.664
  -1542678.768 9  -1193895.01546  23872639.771    23872640.6864   23872646.2044
      -930.789        -725.290
 97  5 13 16 31 30.0000000  0  8 19  2 27 26  4  9  7 15             0.000832701
  12336516.491 8   9588453.64945  25020890.418    25020891.0214   25020897.9634
     -3460.978       -2696.866
   -376445.275 9   -291760.71348  21328583.992    21328584.5384   21328589.4414
      -344.435        -268.391
   5309115.990 9   4135606.74048  21433947.655    21433948.1334   21433953.4624
     -2382.645       -1856.606
  -4058050.689 9  -3150083.42848  22856803.704    22856805.1654   22856810.4454
      -253.202        -197.300
   -522614.721 8   -394244.91455  25190116.548    25190117.3365   25190126.7085
      3467.306        2701.797
   -917452.934 9   -702645.44245  25271649.263    25271650.2104   25271656.5364
      3384.830        2637.530
  -7516182.666 9  -5829031.80148  20553342.037    20553342.9074   20553348.2414
       753.988         587.523
  -1514471.529 9  -1171915.37346  23878007.498    23878008.4374   23878013.8214
      -950.164        -740.388
 97  5 13 16 32  0.0000000  0  8 19  2 27 26  4  9  7 15             0.000832399
  12440420.154 8   9669417.40445  25040662.338    25040663.2824   25040670.3284
     -3465.015       -2700.012
   -366027.986 9   -283643.35648  21330566.391    21330566.8964   21330571.7324
      -349.178        -272.087
   5380805.641 9   4191468.76648  21447589.610    21447590.2324   21447595.5784
     -2395.835       -1866.884
  -4050177.171 9  -3143948.25348  22858301.730    22858303.4214   22858308.7254
      -270.770        -210.990
   -626689.793 8   -475342.30945  25170312.147    25170313.6804   25170321.9324
      3471.931        2705.401
  -1018974.406 8   -781753.24845  25252330.703    25252331.6024   25252336.8924
      3384.192        2637.033
  -7538554.032 9  -5846464.02048  20549084.752    20549085.7234   20549091.0644
       738.158         575.188
  -1485670.441 9  -1149472.97246  23883488.242    23883489.2864   23883494.5024
      -969.053        -755.106
 97  5 13 16 32 30.0000000  0  8 19  2 27 26  4  9  7 15             0.000832106
  12544470.702 8   9750495.62845  25060462.928    25060463.5924   25060470.6804
     -3470.730       -2704.465
   -355431.706 9   -275386.52348  21332582.824    21332583.3474   21332588.1194
      -356.438        -277.744
   5452923.850 9   4247664.73848  21461313.277    21461313.8914   21461319.2464
     -2411.204       -1878.860
  -4041751.678 9  -3137382.97548  22859905.562    22859906.8454   22859912.0194
      -289.960        -225.943
   -730871.408 8   -556522.66745  25150487.264    25150488.1714   25150496.7024
      3474.344        2707.281
  -1120449.169 9   -860824.30946  25233020.841    25233021.2584   25233026.9034
      3381.853        2635.210
  -7560413.968 9  -5863497.72448  20544924.982    20544925.8694   20544931.2094
       720.170         561.171
  -1456271.486 9  -1126564.67946  23889082.668    23889083.7274   23889088.8884
      -989.903        -771.353
 97  5 13 16 33  0.0000000  0  8 19  2 27 26  4  9  7 15             0.000831811
  12648660.729 7   9831682.57545  25080289.570    25080290.2964   25080297.3124
     -3475.182       -2707.934
   -344639.604 9   -266977.10148  21334636.588    21334637.0824   21334641.7804
      -362.945        -282.814
   5525473.394 9   4304196.80448  21475118.897    21475119.6394   21475125.0594
     -2425.260       -1889.813
  -4032777.834 9  -3130390.41348  22861613.561    22861614.6164   22861619.7814
      -308.200        -240.156
   -835145.368 7   -637775.13545  25130643.955    25130645.8944   25130654.0464
      3477.284        2709.572
  -1221876.365 9   -939858.39746  25213719.757    25213720.3324   25213726.3244
      3379.966        2633.740
  -7581769.206 9  -5880138.15748  20540861.312    20540862.1304   20540867.4404
       703.826         548.436
  -1426279.048 9  -1103193.95046  23894790.285    23894791.0954   23894796.3484
     -1009.468        -786.598
 97  5 13 16 33 30.0000000  0  8 19  2 27 26  4  9  7 15             0.000831500
  12752961.374 7   9912955.67045  25100135.992    25100138.0514   25100145.3274
     -3478.279       -2710.347
   -333664.500 9   -258425.08548  21336725.171    21336725.6254   21336730.2804
      -368.785        -287.365
   5598426.234 9   4361043.13648  21489001.698    21489002.1524   21489007.5694
     -2438.526       -1900.150
  -4023279.633 9  -3122989.24548  22863421.281    22863422.0874   22863427.2764
      -325.155        -253.368
   -939518.429 9   -719104.59145  25110780.878    25110783.8394   25110792.5654
      3480.629        2712.178
  -1323261.663 9  -1018859.93945  25194426.470    25194427.3244   25194433.0744
      3379.009        2632.994
  -7602654.236 9  -5896412.19848  20536887.002    20536887.8584   20536893.1474
       688.395         536.412
  -1395717.417 9  -1079379.71346  23900606.037    23900606.8314   23900612.2294
     -1028.136        -801.145
 97  5 13 16 34  0.0000000  0  7  2 27 26  4  9  7 15                0.000831187
   -322481.013 9   -249710.68348  21338853.395    21338853.8114   21338858.4594
      -375.794        -292.826
   5671818.812 9   4418232.12448  21502967.541    21502968.3264   21502973.7614
     -2453.273       -1911.641
  -4013242.013 9  -3115167.76848  22865331.886    22865332.2574   22865337.4074
      -342.920        -267.210
  -1043957.329 8   -800485.55245  25090908.337    25090910.1374   25090918.5704
      3482.991        2714.019
  -1424588.177 9  -1097815.69445  25175144.686    25175145.6064   25175151.0004
      3377.256        2631.628
  -7623043.896 9  -5912300.23448  20533006.995    20533007.8064   20533013.0924
       671.960         523.605
  -1364562.765 9  -1055103.39746  23906534.564    23906535.2634   23906540.6664
     -1047.857        -816.512
 97  5 13 16 34 30.0000000  0  7  2 27 26  4  9  7 15                0.000830862
   -311099.039 9   -240841.61948  21341019.321    21341019.7504   21341024.3794
      -382.303        -297.898
   5745641.988 9   4475756.63748  21517015.592    21517016.5054   21517021.9574
     -2467.456       -1922.693
  -4002690.321 9  -3106945.69748  22867339.576    22867340.2134   22867345.3184
      -359.800        -280.364
  -1148472.417 8   -881925.94146  25071019.356    25071021.9884   25071029.3364
      3485.612        2716.061
  -1525881.495 9  -1176745.51846  25155869.149    25155870.1744   25155875.7444
      3376.364        2630.933
  -7642959.933 9  -5927819.21248  20529216.975    20529217.9014   20529223.1914
       656.713         511.724
  -1332828.417 9  -1030375.37746  23912573.050    23912573.8004   23912579.2724
     -1066.968        -831.404
 97  5 13 16 35  0.0000000  0  7  2 27 26  4  9  7 15                0.000830535
   -299518.088 9   -231817.50848  21343223.236    21343223.5814   21343228.1824
      -388.903        -303.041
   5819892.008 9   4533613.75948  21531145.195    21531145.8884   21531151.2664
     -2481.654       -1933.756
  -3991629.143 9  -3098326.63348  22869444.769    22869445.1144   22869450.2004
      -376.831        -293.635
  -1253069.046 8   -963429.63345  25051116.339    25051117.9264   25051125.4384
      3488.455        2718.277
  -1627135.226 9  -1255644.43346  25136601.043    25136602.0714   25136607.9114
      3374.729        2629.659
  -7662423.316 9  -5942985.47548  20525513.307    20525514.1344   20525519.4254
       641.727         500.047
  -1300518.816 9  -1005199.05946  23918721.372    23918722.0904   23918727.5404
     -1086.190        -846.382
 97  5 13 16 35 30.0000000  0  7  2 27 26  4  9  7 15                0.000830207
   -287740.169 9   -222639.91548  21345464.628    21345464.8924   21345469.4404
      -395.707        -308.343
   5894571.036 9   4591805.17448  21545356.233    21545356.9034   21545362.3254
     -2496.589       -1945.394
  -3980056.982 9  -3089309.39348  22871646.828    22871647.2474   22871652.3664
      -394.118        -307.105
  -1357753.724 8  -1045002.19645  25031195.874    25031197.2374   25031204.5674
      3491.038        2720.289
  -1728350.969 8  -1334513.78946  25117340.690    25117341.2144   25117347.2264
      3373.583        2628.766
  -7681431.834 9  -5957797.29448  20521896.169    20521896.8854   20521902.1754
       625.904         487.717
  -1267632.500 9   -979573.34146  23924979.666    23924980.2624   23924985.7574
     -1105.749        -861.623
 97  5 13 16 36  0.0000000  0  7  2 27 26  4  9  7 15                0.000829878
   -275783.019 9   -213322.66048  21347740.068    21347740.2914   21347744.8064
      -401.725        -313.032
   5969680.234 9   4650331.78848  21559648.876    21559649.7444   21559655.1224
     -2510.924       -1956.564
  -3967979.128 9  -3079898.10648  22873944.886    22873945.5874   22873950.8154
      -411.416        -320.584
  -1462530.724 8  -1126646.51645  25011257.653    25011258.3994   25011266.1614
      3493.789        2722.433
  -1829549.255 9  -1413369.62945  25098083.277    25098083.9014   25098089.6184
      3372.704        2628.081
  -7699978.226 9  -5972249.02248  20518366.884    20518367.6484   20518372.8894
       610.252         475.521
  -1234176.100 9   -953503.44846  23931346.305    23931346.8814   23931352.4584
     -1124.982        -876.609
 97  5 13 16 36 30.0000000  0  7  2 27 26  4  9  7 15                0.000829571
   -263638.447 9   -203859.36748  21350051.211    21350051.3544   21350055.8334
      -407.934        -317.871
   6045224.357 9   4709197.30548  21574024.711    21574025.3734   21574030.6994
     -2525.265       -1967.739
  -3955367.916 9  -3070071.22648  22876345.026    22876345.5154   22876350.6544
      -429.338        -334.549
  -1567385.719 8  -1208351.74645  24991304.294    24991305.2444   24991313.1114
      3496.579        2724.607
  -1930712.759 8  -1492198.34946  25078832.626    25078833.1504   25078838.7504
      3371.403        2627.067
  -7718052.611 9  -5986332.95048  20514927.440    20514928.2504   20514933.4724
       594.851         463.520
  -1200134.704 9   -926977.70947  23937824.576    23937824.9074   23937830.5374
     -1144.405        -891.744
 97  5 13 16 37  0.0000000  0  7  2 27 26  4  9  7 15                0.000829287
   -251307.489 9   -194250.84048  21352397.785    21352397.8684   21352402.3024
      -413.794        -322.437
   6121196.651 9   4768396.46548  21588481.921    21588482.4464   21588487.8034
     -2539.388       -1978.744
  -3942218.580 9  -3059825.02248  22878846.962    22878847.7954   22878852.9434
      -447.040        -348.343
  -1672319.559 9  -1290118.32545  24971336.543    24971337.0064   24971344.8134
      3499.025        2726.513
  -2031829.481 9  -1570990.42546  25059591.030    25059591.0924   25059596.9834
      3369.858        2625.863
  -7735666.361 9  -6000057.94048  20511575.704    20511576.4704   20511581.6884
       579.552         451.599
  -1165512.617 9   -899999.49347  23944413.061    23944413.4464   23944419.0664
     -1163.553        -906.665
 97  5 13 16 37 30.0000000  0  7  2 27 26  4  9  7 15                0.000829024
   -238797.204 9   -184502.57348  21354778.449    21354778.4794   21354782.9114
      -420.592        -327.734
   6197601.173 9   4827932.42948  21603021.118    21603021.7914   21603027.0774
     -2554.720       -1990.691
  -3928531.862 9  -3049160.07248  22881450.682    22881452.2554   22881457.4954
      -465.788        -362.952
  -1777313.119 8  -1371931.42345  24951357.128    24951357.4294   24951365.1774
      3499.927        2727.216
  -2132898.422 9  -1649745.45546  25040358.397    25040358.4984   25040364.3414
      3367.538        2624.055
  -7752808.392 9  -6013415.36148  20508313.832    20508314.4194   20508319.6524
       562.850         438.584
  -1130310.509 9   -872569.31447  23951112.121    23951112.2204   23951117.9334
     -1183.684        -922.351
 97  5 13 16 38  0.0000000  0  7  2 27 26  4  9  7 15                0.000828806
   -226095.489 9   -174605.14448  21357195.529    21357195.5514   21357199.9994
      -426.900        -332.649
   6274454.779 9   4887818.31748  21617646.198    21617646.5694   21617651.8994
     -2569.398       -2002.128
  -3914283.969 9  -3038057.86148  22884161.879    22884163.5344   22884168.8104
      -484.547        -377.569
  -1882333.203 8  -1453765.22545  24931372.238    24931373.1354   24931380.6004
      3500.860        2727.943
  -2233897.605 8  -1728446.15745  25021138.626    25021138.9094   25021144.5584
      3365.149        2622.194
  -7769463.182 9  -6026393.11348  20505144.630    20505145.1384   20505150.3804
       546.909         426.163
  -1094513.653 9   -844675.64746  23957924.212    23957924.1424   23957929.8264
     -1203.347        -937.673
 97  5 13 16 38 30.0000000  0  7  2 27 26  4  9  7 15                0.000828619
   -213205.384 9   -164560.91548  21359648.401    21359648.4194   21359652.8874
      -432.746        -337.205
   6351739.418 9   4948040.08248  21632353.113    21632353.3404   21632358.7274
     -2583.243       -2012.917
  -3899488.892 9  -3026529.26948  22886977.810    22886978.9674   22886984.3074
      -502.021        -391.185
  -1987394.203 9  -1535630.94745  24911380.430    24911380.6564   24911387.4944
      3502.937        2729.561
  -2334830.554 9  -1807095.09946  25001931.908    25001932.0234   25001937.7124
      3363.335        2620.781
  -7785651.808 9  -6039007.61948  20502064.196    20502064.6034   20502069.8074
       531.867         414.442
  -1058139.231 9   -816331.95246  23964845.631    23964845.6754   23964851.4214
     -1221.873        -952.109
 97  5 13 16 39  0.0000000  0  7  2 27 26  4  9  7 15                0.000828455
   -200117.446 9   -154362.53648  21362138.975    21362138.9614   21362143.4764
      -439.661        -342.593
   6429469.312 9   5008608.79848  21647144.388    21647144.8604   21647150.2444
     -2598.683       -2024.948
  -3884148.345 9  -3014575.63348  22889897.208    22889898.2204   22889903.6264
      -520.551        -405.624
  -2092484.196 9  -1617519.16245  24891382.796    24891382.7784   24891389.5784
      3503.113        2729.698
  -2435684.738 9  -1885682.74546  24982740.110    24982740.1854   24982745.8954
      3360.501        2618.572
  -7801352.945 9  -6051242.26548  20499076.397    20499076.8004   20499081.9484
       514.910         401.228
  -1021180.792 9   -787533.20746  23971878.378    23971878.4554   23971884.3404
     -1241.876        -967.696
 97  5 13 16 39 30.0000000  0  7  2 27 26  4  9  7 15                0.000828301
   -186850.983 9   -144025.04748  21364663.341    21364663.4734   21364668.0384
      -444.955        -346.718
   6507625.183 9   5069509.44048  21662017.017    21662017.4934   21662022.8724
     -2611.812       -2035.178
  -3868280.820 9  -3002211.35348  22892916.446    22892917.6944   22892923.1824
      -537.389        -418.745
  -2197615.365 8  -1699439.50545  24871377.328    24871376.9244   24871383.6264
      3505.522        2731.575
  -2536494.156 9  -1964235.49645  24963556.418    24963556.7594   24963562.2884
      3359.968        2618.157
  -7816574.241 9  -6063103.01048  20496179.925    20496180.2844   20496185.3934
       499.694         389.372
   -983657.603 9   -758294.34546  23979018.439    23979018.9094   23979024.6874
     -1259.859        -981.708
 97  5 13 16 40  0.0000000  0  7  2 27 26  4  9  7 15                0.000828159
   -173388.964 9   -133535.17648  21367224.967    21367225.2064   21367229.8224
      -451.519        -351.833
   6586201.945 9   5130738.04948  21676969.783    21676970.2074   21676975.6064
     -2625.562       -2045.892
  -3851875.572 9  -2989428.07648  22896038.262    22896039.5324   22896045.0334
      -555.222        -432.641
  -2302792.855 9  -1781395.93345  24851361.794    24851362.3904   24851369.0604
      3507.397        2733.037
  -2637256.979 9  -2042751.98146  24944381.514    24944382.1584   24944387.6094
      3358.431        2616.959
  -7831308.835 9  -6074584.50148  20493375.754    20493376.3314   20493381.4374
       483.688         376.900
   -945559.622 9   -728607.58347  23986268.420    23986268.8184   23986274.5274
     -1279.026        -996.644
 97  5 13 16 40 30.0000000  0  7  2 27 26  4  9  7 15                0.000828019
   -159725.052 9   -122887.98648  21369824.977    21369825.3324   21369830.0044
      -458.911        -357.593
   6665186.728 9   5192284.59248  21691999.816    21692000.5434   21692005.9764
     -2639.716       -2056.921
  -3834937.499 9  -2976229.60548  22899261.152    22899262.7624   22899268.2894
      -573.635        -446.988
  -2408032.138 8  -1863400.55645  24831335.319    24831335.8974   24831342.6514
      3508.852        2734.170
  -2737961.478 9  -2121222.95046  24925218.160    24925218.7024   24925224.1724
      3355.535        2614.703
  -7845561.489 9  -6085690.45448  20490663.321    20490664.0834   20490669.1974
       466.951         363.858
   -906883.917 9   -698470.67747  23993628.154    23993628.7514   23993634.3624
     -1298.908       -1012.136
 97  5 13 16 41  0.0000000  0  7  2 27 26  4  9  7 15                0.000827996
   -145860.511 9   -112084.45848  21372463.224    21372463.6464   21372468.3534
      -465.764        -362.933
   6744582.490 9   5254151.37648  21707108.408    21707109.0574   21707114.5844
     -2653.738       -2067.848
  -3817459.180 9  -2962610.17148  22902587.457    22902588.8034   22902594.3174
      -591.875        -461.201
  -2513326.658 9  -1945448.15345  24811297.791    24811298.6764   24811305.7654
      3510.404        2735.380
  -2838600.822 9  -2199643.18445  24906067.198    24906067.5714   24906072.9164
      3353.148        2612.843
  -7859332.491 9  -6096421.09548  20488042.712    20488043.4784   20488048.6154
       450.909         351.358
   -867626.841 9   -667880.75246  24001098.705    24001099.2324   24001104.7584
     -1318.555       -1027.445
 97  5 13 16 41 30.0000000  0  7  2 27 26  4  9  7 15                0.000827889
   -131824.104 9   -101147.01148  21375134.249    21375134.6964   21375139.4064
      -470.556        -366.667
   6824360.520 9   5316316.03248  21722289.566    21722290.3794   21722295.8654
     -2665.501       -2077.014
  -3799465.850 9  -2948589.42348  22906011.668    22906012.9024   22906018.3364
      -608.187        -473.912
  -2618708.308 9  -2027563.70445  24791244.021    24791244.9514   24791252.1674
      3514.467        2738.546
  -2939188.254 9  -2278022.95746  24886925.564    24886926.2464   24886931.6614
      3351.994        2611.943
  -7872661.503 9  -6106807.33148  20485506.360    20485507.0364   20485512.2384
       437.139         340.628
   -827817.066 9   -636860.16346  24008674.194    24008674.7314   24008680.1634
     -1336.046       -1041.075
 97  5 13 16 42  0.0000000  0  7  2 27 26  4  9  7 15                0.000827774
   -117606.111 9    -90068.06448  21377839.784    21377840.2874   21377845.0174
      -476.908        -371.617
   6904535.594 9   5378790.06948  21737546.336    21737547.2184   21737552.7544
     -2679.156       -2087.654
  -3780949.379 9  -2934161.03848  22909534.970    22909536.4834   22909542.0054
      -625.890        -487.706
  -2724175.246 8  -2109745.69545  24771174.055    24771175.2874   24771182.4794
      3516.891        2740.435
  -3039694.827 9  -2356339.72946  24867799.965    24867800.5944   24867805.9454
      3348.679        2609.360
  -7885543.576 9  -6116845.30048  20483054.878    20483055.6794   20483060.9154
       421.947         328.790
   -787443.921 9   -605400.57846  24016356.823    24016357.4154   24016362.9824
     -1355.057       -1055.889
 97  5 13 16 42 30.0000000  0  7  2 27 26  4  9  7 15                0.000827673
   -103199.775 9    -78842.35748  21380581.235    21380581.7724   21380586.4704
      -483.087        -376.431
   6985124.901 9   5441586.88648  21752881.973    21752882.8704   21752888.4074
     -2693.046       -2098.477
  -3761909.446 9  -2919324.75748  22913158.281    22913159.6434   22913165.1824
      -642.951        -501.001
  -2829715.655 8  -2191984.90745  24751089.970    24751091.6704   24751098.6654
      3519.370        2742.366
  -3140101.198 9  -2434578.45546  24848693.506    24848693.8294   24848699.1854
      3345.741        2607.071
  -7897965.718 9  -6126524.88448  20480690.961    20480691.7834   20480697.0794
       406.501         316.754
   -746507.113 9   -573501.74546  24024146.824    24024147.4644   24024152.8904
     -1373.597       -1070.335
 97  5 13 16 43  0.0000000  0  7  2 27 26  4  9  7 15                0.000827572
    -88606.880 9    -67471.28048  21383358.210    21383358.7174   21383363.3884
      -489.892        -381.734
   7066139.264 9   5504714.91248  21768298.619    21768299.4234   21768304.9444
     -2707.922       -2110.069
  -3742364.653 9  -2904095.08348  22916877.443    22916878.9294   22916884.4384
      -660.014        -514.297
  -2935329.471 9  -2274281.32045  24730992.006    24730993.7794   24731001.0254
      3521.347        2743.907
  -3240436.397 9  -2512761.64046  24829600.193    24829600.6634   24829606.1994
      3343.202        2605.092
  -7909920.443 9  -6135840.24148  20478416.089    20478416.8794   20478422.1654
       390.373         304.187
   -705015.619 9   -541170.73347  24032042.368    24032043.0704   24032048.6564
     -1392.572       -1085.121
 97  5 13 16 43 30.0000000  0  7  2 27 26  4  9  7 15                0.000827470
    -73814.305 9    -55944.60548  21386173.254    21386173.7024   21386178.3394
      -496.447        -386.842
   7147589.363 9   5568182.48048  21783798.431    21783798.9154   21783804.4584
     -2722.137       -2121.146
  -3722329.437 9  -2888483.24848  22920690.089    22920691.5264   22920696.9764
      -675.797        -526.595
  -3041006.805 8  -2356627.29345  24710882.333    24710884.1814   24710891.2704
      3523.581        2745.648
  -3340707.984 9  -2590895.32446  24810519.102    24810519.5624   24810525.1234
      3341.688        2603.913
  -7921396.753 9  -6144782.80648  20476232.293    20476233.0064   20476238.3334
       374.473         291.797
   -662967.867 9   -508406.26946  24040043.729    24040044.5894   24040050.1914
     -1410.734       -1099.273
 97  5 13 16 44  0.0000000  0  7  2 27 26  4  9  7 15                0.000827353
    -58812.257 9    -44254.70448  21389028.022    21389028.5294   21389033.1264
      -503.142        -392.059
   7229468.978 9   5631984.72748  21799379.730    21799380.1724   21799385.5924
     -2736.080       -2132.010
  -3701814.769 9  -2872497.82648  22924594.010    22924595.3464   22924600.8224
      -691.469        -538.807
  -3146729.343 8  -2439008.43145  24690764.295    24690765.6634   24690772.9504
      3524.914        2746.686
  -3440939.115 8  -2668997.45846  24791445.334    24791446.1604   24791451.7464
      3340.771        2603.198
  -7932380.108 9  -6153341.26048  20474142.179    20474142.9064   20474148.3044
       358.102         279.041
   -620364.042 9   -475208.52646  24048151.106    24048151.8304   24048157.5044
     -1429.071       -1113.562
 97  5 13 16 44 30.0000000  0  7  2 27 26  4  9  7 15                0.000827222
    -43613.277 9    -32411.34348  21391920.312    21391920.8404   21391925.4194
      -510.253        -397.600
   7311774.149 9   5696118.57448  21815041.619    21815042.3464   21815047.8264
     -2750.913       -2143.569
  -3680826.877 9  -2856143.65448  22928587.870    22928589.2604   22928594.7474
      -707.848        -551.570
  -3252479.487 8  -2521411.17745  24670641.908    24670642.4264   24670649.3344
      3524.965        2746.726
  -3541136.839 9  -2747073.54446  24772378.400    24772378.9524   24772384.8274
      3339.029        2601.841
  -7942862.395 9  -6161509.26248  20472147.006    20472148.1544   20472153.6334
       340.853         265.600
   -577203.458 9   -441576.92746  24056364.577    24056365.0154   24056370.5544
     -1448.368       -1128.598
 97  5 13 16 45  0.0000000  0  7  2 27 26  4  9  7 15                0.000827078
    -28227.816 9    -20422.68248  21394848.147    21394848.6194   21394853.1974
      -516.210        -402.242
   7394490.424 9   5760572.76848  21830782.087    21830782.7314   21830788.1784
     -2764.272       -2153.978
  -3659364.362 9  -2839419.64348  22932671.789    22932673.4324   22932679.0394
      -723.844        -564.034
  -3358247.416 8  -2603827.68145  24650514.633    24650515.1194   24650522.4524
      3525.282        2746.973
  -3641305.822 9  -2825127.29146  24753316.446    24753317.4394   24753323.2104
      3337.901        2600.962
  -7952865.142 9  -6169303.60548  20470243.468    20470244.6744   20470250.1934
       325.237         253.431
   -533488.473 9   -407513.31146  24064683.347    24064683.6814   24064689.1014
     -1466.824       -1142.980
 97  5 13 16 45 30.0000000  0  7  2 27 26  4  9  7 15                0.000826943
    -12653.128 9     -8286.57048  21397811.883    21397812.4154   21397816.9774
      -522.513        -407.153
   7477611.650 9   5825342.50948  21846599.426    21846600.1754   21846605.6274
     -2777.381       -2164.193
  -3637398.272 9  -2822303.24048  22936851.854    22936853.4424   22936859.1344
      -741.039        -577.433
  -3464003.296 9  -2686234.81945  24630389.470    24630390.3654   24630397.6734
      3524.892        2746.669
  -3741410.017 9  -2903130.47046  24734266.969    24734268.0864   24734274.0844
      3335.252        2598.898
  -7962386.427 9  -6176722.77448  20468431.871    20468432.8764   20468438.3904
       309.153         240.898
   -489205.812 9   -373007.25646  24073110.081    24073110.3844   24073115.7344
     -1485.809       -1157.773
 97  5 13 16 46  0.0000000  0  7  2 27 26  4  9  7 15                0.000826811
      3089.251 9      3980.20948  21400807.587    21400808.0774   21400812.6544
      -528.001        -411.429
   7561097.060 9   5890396.03248  21862485.990    21862486.9594   21862492.3714
     -2789.479       -2173.620
  -3614929.462 9  -2804795.11048  22941127.605    22941129.1654   22941134.8814
      -757.957        -590.616
  -3569776.087 9  -2768655.14345  24610261.155    24610262.5574   24610269.8284
      3525.583        2747.207
  -3841443.212 9  -2981078.38146  24715231.655    24715232.4044   24715238.2874
      3332.412        2596.685
  -7971450.224 9  -6183785.46148  20466707.181    20466708.0824   20466713.5644
       294.268         229.300
   -444371.307 9   -338071.33546  24081641.482    24081642.0304   24081647.5894
     -1504.195       -1172.100
 97  5 13 16 46 30.0000000  0  7  2 27 26  4  9  7 15                0.000826696
     19001.670 9     16379.49148  21403835.598    21403836.0854   21403840.7004
      -534.123        -416.200
   7644949.615 9   5955735.64148  21878442.638    21878443.5744   21878448.9474
     -2801.792       -2183.215
  -3591951.780 9  -2786890.45048  22945500.150    22945501.7304   22945507.3444
      -774.915        -603.830
  -3675575.843 8  -2851096.49645  24590128.161    24590129.7684   24590136.7914
      3526.643        2748.034
  -3941382.880 9  -3058953.42746  24696214.113    24696214.6174   24696220.4524
      3329.249        2594.220
  -7980082.438 9  -6190511.84848  20465064.374    20465065.4464   20465070.9054
       280.109         218.267
   -398988.889 9   -302708.45346  24090277.474    24090277.9634   24090283.6954
     -1522.419       -1186.301
 97  5 13 16 47  0.0000000  0  7  2 27 26  4  9  7 15                0.000826597
     35114.084 9     28934.60948  21406901.641    21406902.1774   21406906.8394
      -540.177        -420.917
   7729174.228 9   6021365.16048  21894470.260    21894470.9924   21894476.4204
     -2813.528       -2192.359
  -3568460.094 9  -2768585.27748  22949970.274    22949972.0564   22949977.5994
      -791.303        -616.600
  -3781396.893 8  -2933554.33445  24569990.584    24569992.6144   24569999.7074
      3527.848        2748.972
  -4041230.727 9  -3136756.87846  24677213.529    24677213.9794   24677220.0434
      3326.967        2592.442
  -7988284.985 9  -6196903.43448  20463503.471    20463504.5284   20463510.0164
       266.245         207.464
   -353056.607 9   -266917.11146  24099018.274    24099018.6524   24099024.4804
     -1540.039       -1200.030
 97  5 13 16 47 30.0000000  0  7  2 27 26  4  9  7 15                0.000826511
     51430.874 9     41648.98248  21410006.624    21410007.1804   21410011.8644
      -547.302        -426.469
   7813779.082 9   6087290.98248  21910569.863    21910570.7704   21910576.2024
     -2826.563       -2202.517
  -3544461.041 9  -2749884.74248  22954537.605    22954538.9614   22954544.4394
      -808.262        -629.815
  -3887240.592 8  -3016029.92846  24549849.506    24549851.4234   24549858.1294
      3528.656        2749.602
  -4140983.164 9  -3214485.99346  24658231.360    24658231.8824   24658237.8154
      3323.508        2589.746
  -7996037.583 9  -6202944.41248  20462028.205    20462029.2404   20462034.7664
       250.837         195.457
   -306569.285 9   -230693.25046  24107864.567    24107864.9654   24107870.8424
     -1558.795       -1214.645
 97  5 13 16 48  0.0000000  0  7  2 27 26  4  9  7 15                0.000826441
     67959.454 9     54528.38448  21413151.912    21413152.4924   21413157.2044
      -554.230        -431.868
   7898784.134 9   6153528.64048  21926746.052    21926746.7284   21926752.1894
     -2840.202       -2213.144
  -3519959.025 9  -2730792.29348  22959200.530    22959201.5794   22959207.0664
      -824.845        -642.736
  -3993099.399 8  -3098517.15845  24529705.569    24529707.1514   24529713.7834
      3528.764        2749.686
  -4240642.907 9  -3292143.01846  24639267.337    24639267.2984   24639272.7014
      3320.797        2587.634
  -8003334.229 9  -6208630.10248  20460639.819    20460640.7624   20460646.2864
       235.934         183.845
   -259523.177 9   -194033.94846  24116817.276    24116817.6454   24116823.4234
     -1577.295       -1229.061
 97  5 13 16 48 30.0000000  0  7  2 27 26  4  9  7 15                0.000826379
     84685.053 9     67561.31048  21416334.670    21416335.2774   21416340.0164
      -560.228        -436.541
   7984201.508 9   6220087.58948  21943000.144    21943001.1144   21943006.6354
     -2853.520       -2223.522
  -3494962.469 9  -2711314.48348  22963957.110    22963958.2714   22963963.7284
      -841.013        -655.335
  -4098958.561 9  -3181004.79246  24509561.893    24509563.0014   24509569.2914
      3529.092        2749.942
  -4340243.251 9  -3369753.54546  24620313.654    24620313.8564   24620319.6524
      3319.677        2586.761
  -8010179.614 9  -6213964.15848  20459337.214    20459338.1214   20459343.6234
       220.849         172.090
   -211927.418 9   -156946.33446  24125874.356    24125874.7874   24125880.4834
     -1595.236       -1243.041
 97  5 13 16 49  0.0000000  0  7  2 27 26  4  9  7 15                0.000826316
    101593.261 9     80736.52648  21419552.319    21419552.8204   21419557.5594
      -565.555        -440.692
   8070018.184 9   6286957.68148  21959330.760    21959331.4944   21959337.0494
     -2866.341       -2233.512
  -3469471.933 9  -2691451.76048  22968807.652    22968808.9754   22968814.4834
      -857.226        -667.968
  -4204818.232 9  -3263492.73946  24489417.493    24489418.4074   24489424.7094
      3529.497        2750.257
  -4439795.440 9  -3447326.62146  24601369.514    24601369.9114   24601375.6274
      3318.110        2585.540
  -8016555.834 9  -6218932.63148  20458124.063    20458124.7844   20458130.2734
       205.410         160.060
   -163784.472 9   -119432.35646  24135035.623    24135035.9044   24135041.5164
     -1613.193       -1257.034
 97  5 13 16 49 30.0000000  0  7  2 27 26  4  9  7 15                0.000826252
    118659.399 9     94034.80948  21422799.893    21422800.4084   21422805.1374
      -572.113        -445.802
   8156226.542 9   6354132.97548  21975735.798    21975736.4734   21975742.0814
     -2880.568       -2244.598
  -3443485.058 9  -2671202.27148  22973752.608    22973754.1234   22973759.6894
      -875.089        -681.888
  -4310690.859 9  -3345990.81446  24469270.326    24469271.5594   24469277.8574
      3528.840        2749.745
  -4539280.860 8  -3524847.85256  24582438.253    24582438.4595   24582443.5565
      3314.483        2582.714
  -8022465.104 9  -6223537.25048  20456999.484    20457000.3284   20457005.7884
       188.914         147.206
   -115097.648 9    -81494.61846  24144300.328    24144300.6364   24144306.4214
     -1632.335       -1271.949
 97  5 13 16 50  0.0000000  0  7  2 27 26  4  9  7 15                0.000826197
    135897.887 9    107467.38848  21426080.451    21426080.8104   21426085.5484
      -576.891        -449.525
   8242831.650 9   6421617.43448  21992216.117    21992216.9964   21992222.5104
     -2892.725       -2254.071
  -3416988.882 9  -2650555.93148  22978795.173    22978796.2414   22978801.7924
      -890.949        -694.246
  -4416565.266 8  -3428490.27946  24449122.903    24449124.0834   24449130.7014
      3529.840        2750.525
  -4638685.175 9  -3602305.63046  24563521.983    24563522.3004   24563527.9684
      3312.704        2581.328
  -8027912.289 9  -6227781.80048  20455963.005    20455963.7834   20455969.2244
       174.421         135.912
    -65864.001 9    -43130.75746  24153669.440    24153669.7084   24153675.3554
     -1649.556       -1285.368
 97  5 13 16 50 30.0000000  0  7  2 27 26  4  9  7 15                0.000826133
    153291.345 9    121020.72248  21429390.335    21429390.6774   21429395.4674
      -582.405        -453.822
   8329801.251 9   6489385.90848  22008765.898    22008766.8504   22008772.4264
     -2904.697       -2263.400
  -3390006.671 9  -2629530.85648  22983929.479    22983930.7844   22983936.4124
      -907.460        -707.112
  -4522461.715 9  -3511006.91646  24428971.368    24428972.6104   24428979.3714
      3530.432        2750.986
  -4738012.055 9  -3679703.15246  24544621.124    24544621.0944   24544626.6814
      3309.248        2578.635
  -8032905.374 9  -6231672.51048  20455013.030    20455013.6764   20455019.0944
       158.867         123.792
    -16105.752 9     -4358.14746  24163138.582    24163138.5114   24163144.2334
     -1667.285       -1299.183
 97  5 13 16 51  0.0000000  0  7  2 27 26  4  9  7 15                0.000826076
    170866.114 9    134715.33848  21432734.852    21432735.0434   21432739.8614
      -589.357        -459.239
   8417140.495 9   6557442.42548  22025386.387    22025387.0254   22025392.5254
     -2918.022       -2273.783
  -3362526.129 9  -2608117.47948  22989159.381    22989160.1944   22989165.8884
      -924.598        -720.466
  -4628367.105 9  -3593530.55246  24408818.573    24408819.1914   24408825.9944
      3529.771        2750.471
  -4837203.758 9  -3756995.41446  24525745.628    24525745.6404   24525750.9314
      3303.593        2574.228
  -8037429.503 9  -6235197.79748  20454152.280    20454152.7794   20454158.1744
       142.680         111.179
     34194.258 9     34836.63946  24172710.344    24172710.3584   24172716.0634
     -1686.079       -1313.828
 97  5 13 16 51 30.0000000  0  7  2 27 26  4  9  7 15                0.000826031
    188632.894 9    148559.57348  21436115.808    21436115.9504   21436120.7914
      -595.875        -464.318
   8504861.167 9   6625796.16348  22042079.246    22042079.7894   22042085.2474
     -2930.606       -2283.589
  -3334556.627 9  -2586323.10348  22994481.626    22994482.6324   22994488.3144
      -940.574        -732.915
  -4734265.912 9  -3676048.99046  24388667.066    24388667.3364   24388674.2244
      3529.474        2750.239
  -4936253.821 9  -3834177.24146  24506896.295    24506896.9685   24506902.3104
      3299.293        2570.878
  -8041494.012 9  -6238364.93648  20453379.065    20453379.3754   20453384.7194
       127.710          99.514
     85036.076 9     74453.59446  24182385.224    24182385.1814   24182391.0924
     -1703.997       -1327.790
 97  5 13 16 52  0.0000000  0  7  2 27 26  4  9  7 15                0.000825993
    206595.728 9    162556.57848  21439534.218    21439534.2264   21439539.0284
      -601.832        -468.960
   8592948.971 9   6694435.97048  22058841.537    22058842.3804   22058847.8044
     -2942.134       -2292.572
  -3306119.427 9  -2564164.28848  22999893.595    22999894.1644   22999899.6944
      -955.418        -744.481
  -4840153.560 9  -3758558.79546  24368517.273    24368517.5404   24368524.4894
      3529.556        2750.303
  -5035183.423 9  -3911265.11546  24488071.621    24488071.3684   24488077.0744
      3295.837        2568.185
  -8045108.930 9  -6241181.74748  20452691.292    20452691.5424   20452696.8154
       113.038          88.082
    136405.964 9    114482.04345  24192160.547    24192160.4884   24192166.2734
     -1720.942       -1340.994
 97  5 13 16 52 30.0000000  0  7  2 27 26  4  9  7 15                0.000825957
    224766.372 9    176715.51648  21442992.196    21442992.0084   21442996.7754
      -609.359        -474.825
   8681404.918 9   6763362.63948  22075674.357    22075675.0104   22075680.4234
     -2954.779       -2302.425
  -3277207.093 9  -2541635.23448  23005395.873    23005396.0954   23005401.5404
      -971.801        -757.248
  -4946023.509 9  -3841054.79446  24348370.194    24348371.0494   24348378.0884
      3528.708        2749.642
  -5133987.887 9  -3988255.75056  24469269.336    24469269.5295   24469274.5415
      3291.480        2564.790
  -8048261.170 9  -6243638.03048  20452091.768    20452091.7264   20452096.9114
        97.475          75.955
    188312.067 9    154928.35346  24202038.011    24202038.0104   24202043.6634
     -1739.244       -1355.255
 97  5 13 16 53  0.0000000  0  7  2 27 26  4  9  7 15                0.000825938
    243163.985 9    191051.30948  21446493.205    21446492.9844   21446497.7424
      -616.725        -480.565
   8770245.625 9   6832589.14648  22092580.665    22092580.8414   22092586.2754
     -2967.676       -2312.475
  -3247811.331 9  -2518729.48247  23010989.682    23010989.9554   23010995.3964
      -987.598        -769.557
  -5051874.940 9  -3923536.38046  24328227.767    24328228.1024   24328235.2504
      3528.201        2749.247
  -5232670.029 9  -4065150.75146  24450491.203    24450490.9065   24450496.5154
      3287.828        2561.944
  -8050955.584 9  -6245737.56448  20451579.224    20451579.0644   20451584.2174
        82.416          64.220
    240763.660 9    195799.70046  24212019.445    24212019.3454   24212025.0014
     -1757.226       -1369.267
 97  5 13 16 53 30.0000000  0  7  2 27 26  4  9  7 15                0.000825920
    261769.428 9    205549.04948  21450033.773    21450033.4924   21450038.2544
      -623.233        -485.636
   8859460.453 9   6902107.15647  22109557.957    22109557.8914   22109563.3014
     -2979.580       -2321.751
  -3217943.377 9  -2495455.79747  23016673.361    23016673.6974   23016679.1064
     -1003.256        -781.758
  -5157718.412 9  -4006011.76346  24308086.035    24308086.8134   24308093.9744
      3528.467        2749.455
  -5331260.997 9  -4141974.88046  24431730.191    24431729.8774   24431735.3114
      3285.060        2559.787
  -8053207.454 9  -6247492.26648  20451150.804    20451150.5964   20451155.7004
        68.053          53.028
    293745.127 9    237083.95446  24222101.825    24222101.5404   24222107.1614
     -1774.565       -1382.778
 97  5 13 16 54  0.0000000  0  7  2 27 26  4  9  7 15                0.000825907
    280579.985 9    220206.61648  21453613.302    21453613.0174   21453617.7984
      -630.314        -491.154
   8949039.734 9   6971909.15748  22126604.423    22126604.3274   22126609.7644
     -2991.967       -2331.403
  -3187585.132 9  -2471800.06147  23022450.563    23022450.7414   23022456.0584
     -1020.026        -794.825
  -5263558.088 9  -4088484.16546  24287944.829    24287946.1744   24287953.3494
      3528.025        2749.110
  -5429750.844 9  -4218720.18546  24412988.279    24412987.7384   24412992.9114
      3281.314        2556.868
  -8055014.031 9  -6248899.98048  20450807.005    20450806.8314   20450811.8954
        52.862          41.191
    347256.791 9    278781.27946  24232284.723    24232284.4154   24232290.3074
     -1792.452       -1396.716
 97  5 13 16 54 30.0000000  0  7  2 27 26  4  9  7 15                0.000825890
    299577.318 9    235009.72648  21457228.390    21457228.0824   21457232.9084
      -636.388        -495.887
   9038970.435 9   7041985.01147  22143717.713    22143717.5894   22143722.9614
     -3003.863       -2340.672
  -3156753.691 9  -2447775.59247  23028317.604    23028317.7504   23028322.9964
     -1035.647        -806.998
  -5369416.633 9  -4170971.27946  24267800.441    24267801.9314   24267809.2034
      3528.654        2749.601
  -5528148.501 9  -4295393.65646  24394263.735    24394263.3604   24394268.4164
      3278.191        2554.435
  -8056399.464 9  -6249979.53648  20450543.381    20450543.2074   20450548.2364
        39.127          30.489
    401278.001 8    320875.68246  24242564.668    24242564.2514   24242570.2374
     -1809.319       -1409.859
 97  5 13 16 55  0.0000000  0  7  2 27 26  4  9  7 15                0.000825888
    318770.275 9    249965.26748  21460880.628    21460880.3724   21460885.2434
      -642.987        -501.029
   9129284.731 9   7112359.73747  22160903.931    22160903.8744   22160909.3364
     -3016.854       -2350.795
  -3125434.918 9  -2423371.39247  23034277.135    23034277.5274   23034282.7194
     -1052.157        -819.863
  -5475259.859 9  -4253446.48146  24247659.007    24247660.5834   24247667.6834
      3527.485        2748.690
  -5626424.884 9  -4371972.58846  24375562.552    24375561.9114   24375567.3524
      3273.704        2550.938
  -8057347.960 9  -6250718.61748  20450362.936    20450362.7114   20450367.7324
        24.159          18.825
    455825.963 9    363380.52146  24252944.234    24252944.2504   24252950.4794
     -1827.106       -1423.719
 97  5 13 16 55 30.0000000  0  7  2 27 26  4  9  7 15                0.000825895
    338146.874 9    265063.91148  21464567.822    21464567.6224   21464572.5254
      -648.640        -505.434
   9219964.947 9   7183019.61447  22178159.735    22178159.7934   22178165.1514
     -3028.347       -2359.751
  -3093639.243 9  -2398595.57947  23040327.079    23040328.0984   23040333.2434
     -1067.268        -831.637
  -5581082.627 9  -4335905.75246  24227522.027    24227523.2104   24227530.0564
      3527.475        2748.682
  -5724584.855 9  -4448460.88946  24356882.851    24356882.3144   24356887.5814
      3270.361        2548.333
  -8057863.336 9  -6251120.20248  20450264.773    20450264.6044   20450269.6484
        10.280           8.010
    510889.948 9    406287.51346  24263422.842    24263422.6694   24263428.6914
     -1843.644       -1436.606
 97  5 13 16 56  0.0000000  0  7  2 27 26  4  9  7 15                0.000825910
    357720.526 9    280316.09748  21468292.622    21468292.3764   21468297.2974
      -656.448        -511.518
   9311013.906 9   7253966.82047  22195485.869    22195485.8044   22195491.2474
     -3041.934       -2370.338
  -3061374.623 9  -2373454.34347  23046467.362    23046467.8684   23046473.0504
     -1083.729        -844.464
  -5686876.222 9  -4418342.23446  24207390.784    24207391.3374   24207398.1534
      3525.189        2746.901
  -5822629.166 9  -4524859.00446  24338225.244    24338225.2215   24338230.4954
      3265.676        2544.683
  -8057933.155 9  -6251174.59748  20450251.318    20450251.2384   20450256.3424
        -5.784          -4.507
    566473.101 9    449599.06846  24273999.852    24273999.7934   24274005.8294
     -1862.015       -1450.921
 97  5 13 16 56 30.0000000  0  7  2 27 26  4  9  7 15                0.000825939
    377517.684 9    295742.44748  21472059.797    21472059.6294   21472064.6154
      -663.202        -516.781
   9402465.704 9   7325227.93447  22212888.289    22212888.5124   22212893.9064
     -3054.767       -2380.338
  -3028635.184 9  -2347943.13547  23052696.718    23052698.0184   23052703.2054
     -1099.005        -856.368
  -5792613.630 9  -4500734.94846  24187269.765    24187270.2084   24187276.8484
      3523.839        2745.849
  -5920545.514 9  -4601157.42146  24319592.071    24319592.3094   24319597.6704
      3262.268        2542.027
  -8057536.853 9  -6250865.79048  20450326.622    20450326.5714   20450331.7804
       -20.711         -16.138
    622593.435 9    493329.17246  24284679.331    24284679.2214   24284685.3054
     -1879.340       -1464.421
 97  5 13 16 57  0.0000000  0  7  2 27 26  4  9  7 15                0.000825968
    397509.548 9    311320.51748  21475864.005    21475863.9514   21475868.9894
      -669.394        -521.606
   9494293.665 9   7396782.13447  22230362.430    22230362.7674   22230368.2344
     -3066.729       -2389.659
  -2995438.640 9  -2322075.72548  23059014.168    23059015.0664   23059020.3284
     -1113.850        -867.935
  -5898305.441 9  -4583092.16546  24167157.106    24167157.9194   24167164.3434
      3522.550        2744.844
  -6018375.009 9  -4677388.14346  24300975.784    24300975.7734   24300981.0394
      3259.943        2540.215
  -8056692.340 9  -6250207.72148  20450487.148    20450487.2224   20450492.4904
       -35.385         -27.573
    679229.282 9    537460.95646  24295456.521    24295456.5984   24295462.7034
     -1896.198       -1477.557
 97  5 13 16 57 30.0000000  0  7  2 27 26  4  9  7 15                0.000825986
    417693.322 9    327048.12248  21479704.789    21479704.8094   21479709.8674
      -675.904        -526.678
   9586485.584 9   7468619.95047  22247906.102    22247906.2444   22247911.7844
     -3079.142       -2399.331
  -2961795.919 9  -2295860.66348  23065416.200    23065417.0464   23065422.3994
     -1128.897        -879.660
  -6003962.583 9  -4665422.34646  24147050.284    24147052.0344   24147058.4414
      3521.269        2743.846
  -6116129.529 9  -4753560.53446  24282373.578    24282373.8174   24282378.7984
      3257.107        2538.005
  -8055404.366 9  -6249204.09948  20450731.901    20450732.3134   20450737.6054
       -50.335         -39.222
    736375.890 9    581990.73046  24306331.024    24306331.3344   24306337.3974
     -1913.481       -1491.024
 97  5 13 16 58  0.0000000  0  7  2 27 26  4  9  7 15                0.000825992
    438052.323 9    342912.27248  21483578.861    21483578.9894   21483584.0654
      -681.172        -530.783
   9679029.104 9   7540731.74447  22265516.197    22265516.7324   22265522.2614
     -3090.145       -2407.905
  -2927707.688 9  -2269298.44247  23071903.678    23071903.8224   23071909.2594
     -1143.404        -890.964
  -6109585.115 9  -4747725.58546  24126951.027    24126952.7014   24126959.0094
      3520.442        2743.202
  -6213814.718 9  -4829678.78146  24263784.582    24263784.8864   24263790.2094
      3255.243        2536.553
  -8053684.846 9  -6247864.21048  20451059.067    20451059.5184   20451064.8114
       -64.036         -49.898
    794023.829 9    626911.10546  24317300.841    24317301.2834   24317307.5334
     -1929.546       -1503.542
 97  5 13 16 58 30.0000000  0  7  2 27 26  4  9  7 15                0.000825995
    458587.730 9    358913.87548  21487486.452    21487486.7444   21487491.8174
      -687.345        -535.594
   9771922.202 9   7613115.94247  22283193.005    22283193.7504   22283199.2974
     -3102.174       -2417.278
  -2893164.029 9  -2242381.34948  23078476.863    23078477.3074   23078482.7994
     -1159.110        -903.203
  -6215159.479 9  -4829991.23846  24106861.374    24106862.4104   24106868.8924
      3518.216        2741.467
  -6311405.988 9  -4905723.90946  24245213.069    24245213.5844   24245218.9584
      3251.226        2533.423
  -8051534.024 9  -6246188.23848  20451468.160    20451468.8084   20451474.1234
       -79.013         -61.569
    852176.383 9    672224.75746  24328367.026    24328367.3804   24328373.6094
     -1946.904       -1517.068
 97  5 13 16 59  0.0000000  0  7  2 27 26  4  9  7 15                0.000825998
    479288.059 9    375043.99048  21491425.640    21491425.9314   21491430.9644
      -692.969        -539.976
   9865150.364 9   7685761.21747  22300933.805    22300934.4624   22300940.0634
     -3113.082       -2425.778
  -2858164.971 9  -2215109.38548  23085136.955    23085137.4924   23085142.9934
     -1174.210        -914.969
  -6320676.139 9  -4912211.96846  24086781.919    24086783.2534   24086789.7014
      3516.158        2739.863
  -6408881.017 9  -4981678.46046  24226664.581    24226664.9314   24226670.2764
      3246.754        2529.938
  -8048946.532 9  -6244172.00748  20451960.657    20451961.2154   20451966.5284
       -93.555         -72.900
    910837.703 9    717934.80146  24339529.747    24339530.4124   24339536.6204
     -1963.948       -1530.349
 97  5 13 16 59 30.0000000  0  7  2 27 26  4  9  7 15                0.000826007
    500161.062 9    391308.65548  21495397.823    21495397.9914   21495402.9864
      -699.485        -545.053
   9958698.709 9   7758655.99147  22318735.775    22318736.2134   22318741.7334
     -3124.177       -2434.424
  -2822709.719 9  -2187481.94848  23091883.870    23091884.4524   23091890.0024
     -1190.254        -927.471
  -6426133.004 9  -4994386.12346  24066714.088    24066715.4434   24066721.8684
      3513.390        2737.706
  -6506209.280 9  -5057518.61946  24208143.426    24208143.8444   24208149.3624
      3241.031        2525.479
  -8045929.518 9  -6241821.08248  20452534.896    20452535.3424   20452540.6544
      -108.395         -84.464
    970004.891 9    764039.09446  24350789.007    24350789.5574   24350795.7544
     -1981.317       -1543.883
 97  5 13 17  0  0.0000000  0  7  2 27 26  4  9  7 15                0.000826060
    521269.325 9    407756.64648  21499414.640    21499414.7954   21499419.7464
      -709.733        -553.039
  10052610.941 9   7831834.31047  22336606.886    22336607.2604   22336612.6504
     -3138.759       -2445.786
  -2786741.648 9  -2159454.91748  23098727.831    23098729.0194   23098734.6144
     -1209.455        -942.432
  -6531464.652 9  -5076462.66146  24046670.448    24046671.4074   24046677.9164
      3506.900        2732.649
  -6603330.432 9  -5133197.41246  24189661.864    24189662.4184   24189667.8934
      3231.686        2518.197
  -8042435.988 9  -6239098.84448  20453199.665    20453200.1574   20453205.4284
      -126.492         -98.565
   1029723.464 9    810573.01046  24362153.465    24362153.7654   24362159.9054
     -2001.944       -1559.956
 97  5 13 17  0 30.0000000  0  7  2 27 26  4  9  7 15                0.000826164
    542624.742 9    424397.22248  21503478.509    21503478.6404   21503483.5404
      -714.589        -556.822
  10146910.761 9   7905314.63747  22354551.716    22354552.0054   22354557.4554
     -3148.518       -2453.391
  -2750261.588 9  -2131028.92848  23105670.097    23105670.9634   23105676.6404
     -1223.123        -953.083
  -6636669.543 9  -5158440.43646  24026650.398    24026651.4234   24026658.0424
      3506.254        2732.146
  -6700232.366 9  -5208705.38446  24171222.137    24171222.4804   24171227.9804
      3227.989        2515.316
  -8038458.949 9  -6235999.84848  20453956.632    20453956.9854   20453962.2094
      -139.265        -108.518
   1090003.247 9    857544.25146  24373624.408    24373624.6594   24373630.7014
     -2017.331       -1571.946
 97  5 13 17  1  0.0000000  0  7  2 27 26  4  9  7 15                0.000826268
    564160.277 9    441178.15348  21507576.640    21507576.7524   21507581.6214
      -722.255        -562.796
  10241525.796 9   7979040.61547  22372556.525    22372556.6774   22372561.9984
     -3160.274       -2462.551
  -2713341.661 9  -2102260.18748  23112695.425    23112696.6004   23112702.3404
     -1239.127        -965.554
  -6741833.660 9  -5240386.41646  24006638.471    24006639.2574   24006646.0914
      3503.712        2730.165
  -6797006.344 9  -5284113.63346  24152806.999    24152807.1704   24152812.6634
      3222.701        2511.196
  -8034079.936 9  -6232587.62048  20454790.116    20454790.2984   20454795.4624
      -153.694        -119.762
   1150768.856 9    904894.00046  24385187.806    24385187.9764   24385194.0744
     -2034.712       -1585.490
 97  5 13 17  1 30.0000000  0  7  2 27 26  4  9  7 15                0.000826381
    585915.704 9    458130.42448  21511716.739    21511716.7144   21511721.5464
      -728.435        -567.612
  10336486.870 9   8053036.20247  22390627.094    22390627.1834   22390632.5774
     -3170.912       -2470.841
  -2675966.464 9  -2073136.69648  23119807.530    23119808.9204   23119814.6294
     -1252.753        -976.171
  -6846950.879 9  -5322295.92346  23986635.741    23986636.1324   23986642.8274
      3503.762        2730.204
  -6893650.473 9  -5359420.73046  24134415.717    24134416.3144   24134421.6484
      3219.958        2509.058
  -8029286.785 9  -6228852.69248  20455702.375    20455702.4044   20455707.5354
      -166.284        -129.572
   1212035.538 9    952634.21646  24396846.706    24396846.6654   24396852.7924
     -2050.108       -1597.487
 97  5 13 17  2  0.0000000  0  7  2 27 26  4  9  7 15                0.000826483
    607875.218 9    475241.72948  21515895.640    21515895.5184   21515900.3214
      -736.185        -573.651
  10431794.941 9   8127302.18247  22408763.264    22408763.6544   22408768.9924
     -3183.666       -2480.779
  -2638170.813 9  -2043685.56748  23127000.399    23127001.2584   23127006.9874
     -1267.796        -987.893
  -6952058.190 9  -5404197.64146  23966634.001    23966634.8014   23966641.6714
      3502.706        2729.381
  -6990199.670 9  -5434653.85146  24116043.298    24116043.8434   24116049.0714
      3215.729        2505.763
  -8024087.522 9  -6224801.31548  20456691.784    20456691.8044   20456696.8804
      -181.183        -141.181
   1273785.595 9   1000751.11946  24408597.594    24408597.3744   24408603.5074
     -2067.337       -1610.912
 97  5 13 17  2 30.0000000  0  7  2 27 26  4  9  7 15                0.000826576
    630053.923 9    492523.83048  21520116.156    21520116.0204   21520120.8154
      -743.199        -579.116
  10527465.615 9   8201850.68147  22426968.623    22426969.1754   22426974.6784
     -3195.000       -2489.610
  -2599933.395 9  -2013890.21548  23134277.113    23134277.6434   23134283.4004
     -1282.127        -999.060
  -7057154.256 9  -5486090.59346  23946635.082    23946635.6984   23946642.4664
      3502.838        2729.484
  -7086632.927 9  -5509796.56246  24097692.388    24097692.9874   24097698.5344
      3212.231        2503.037
  -8018451.806 9  -6220409.84448  20457764.497    20457764.2514   20457769.2754
      -195.359        -152.228
   1336039.512 9   1049260.59046  24420444.313    24420443.9694   24420450.1394
     -2083.634       -1623.611
 97  5 13 17  3  0.0000000  0  7  2 27 26  4  9  7 15                0.000826654
    652455.363 9    509979.49048  21524379.127    21524378.8854   21524383.6874
      -750.463        -584.776
  10623471.121 9   8276660.13347  22445237.690    22445238.4184   22445243.8354
     -3205.793       -2498.021
  -2561262.839 9  -1983757.35248  23141635.994    23141636.4424   23141642.2334
     -1296.271       -1010.081
  -7162242.814 9  -5567977.72446  23926637.790    23926638.0364   23926644.6914
      3502.504        2729.224
  -7182947.469 9  -5584846.90846  24079364.880    24079365.0764   24079370.0524
      3208.234        2499.923
  -8012385.468 9  -6215682.81748  20458919.085    20458918.6774   20458923.6674
      -209.526        -163.267
   1398784.332 9   1098152.60946  24432384.372    24432383.9694   24432390.0604
     -2099.706       -1636.135
 97  5 13 17  3 30.0000000  0  7  2 27 26  4  9  7 15                0.000826716
    675073.759 9    527604.20448  21528683.344    21528683.0374   21528687.8374
      -757.395        -590.178
  10719806.963 9   8351726.95347  22463569.942    22463570.4984   22463576.0854
     -3216.484       -2506.351
  -2522164.305 9  -1953291.00448  23149076.299    23149076.7014   23149082.4674
     -1310.463       -1021.140
  -7267307.854 9  -5649846.52146  23906644.039    23906644.7284   23906651.3374
      3501.500        2728.441
  -7279121.938 9  -5659787.93946  24061063.172    24061063.5134   24061068.9664
      3203.313        2496.088
  -8005878.573 9  -6210612.50648  20460157.286    20460156.9214   20460161.8244
      -224.256        -174.745
   1462016.796 9   1147424.60646  24444417.174    24444416.7564   24444422.8704
     -2115.790       -1648.668
 97  5 13 17  4  0.0000000  0  7  2 27 26  4  9  7 15                0.000826770
    697892.025 9    545384.66348  21533025.670    21533025.2454   21533030.0024
      -764.306        -595.563
  10816451.932 9   8427034.67847  22481961.164    22481961.5694   22481967.0374
     -3226.992       -2514.539
  -2482627.375 9  -1922483.04148  23156599.878    23156600.3414   23156606.0754
     -1325.915       -1033.180
  -7372317.754 9  -5731672.31546  23886661.175    23886661.9594   23886668.5454
      3498.451        2726.066
  -7375141.105 9  -5734608.09446  24042791.536    24042791.8184   24042796.7494
      3197.342        2491.435
  -7998931.696 9  -6205199.34948  20461479.077    20461478.8824   20461483.7474
      -239.330        -186.491
   1525730.950 9   1197071.98046  24456541.498    24456541.2734   24456547.3574
     -2132.375       -1661.591
 97  5 13 17  4 30.0000000  0  7  2 27 26  4  9  7 15                0.000826831
    720906.336 9    563317.88448  21537405.073    21537404.7584   21537409.5204
      -770.411        -600.320
  10913400.783 9   8502579.17447  22500410.476    22500410.5204   22500416.0194
     -3236.725       -2522.123
  -2442635.036 9  -1891320.21848  23164210.205    23164210.6954   23164216.3494
     -1340.538       -1044.575
  -7477226.254 9  -5813419.10046  23866697.836    23866698.5074   23866705.0404
      3494.885        2723.287
  -7470980.902 9  -5809288.39347  24024554.004    24024553.9974   24024559.1944
      3191.687        2487.029
  -7991541.360 9  -6199440.63948  20462885.444    20462885.1954   20462890.0654
      -253.649        -197.649
   1589934.433 9   1247100.60646  24468759.182    24468758.7384   24468764.9454
     -2148.293       -1673.995
 97  5 13 17  5  0.0000000  0  7  2 27 26  4  9  7 15                0.000826898
    744102.990 9    581393.19748  21541819.310    21541818.9304   21541823.7144
      -776.895        -605.373
  11010647.332 9   8578355.64847  22518916.075    22518915.9184   22518921.3834
     -3247.274       -2530.343
  -2402207.154 9  -1859818.01148  23171903.724    23171903.8824   23171909.4994
     -1355.661       -1056.359
  -7582015.132 9  -5895072.68546  23846757.258    23846757.8374   23846764.3044
      3490.097        2719.556
  -7566655.929 9  -5883840.34046  24006347.742    24006347.7744   24006352.8854
      3185.840        2482.473
  -7983727.260 9  -6193351.73048  20464372.255    20464372.1144   20464377.0674
      -268.164        -208.959
   1654614.627 9   1297500.73146  24481067.267    24481067.0054   24481073.1784
     -2164.693       -1686.774
 97  5 13 17  5 30.0000000  0  7  2 27 26  4  9  7 15                0.000826987
    767492.390 9    599618.69648  21546270.134    21546269.7934   21546274.5684
      -782.448        -609.700
  11108212.808 9   8654380.64847  22537482.244    22537482.1304   22537487.7004
     -3256.968       -2537.897
  -2361317.902 9  -1827956.28947  23179684.746    23179684.9114   23179690.4734
     -1370.197       -1067.686
  -7686649.204 9  -5976605.65946  23826845.697    23826846.6634   23826852.8474
      3485.602        2716.053
  -7662152.274 9  -5958253.06046  23988175.151    23988175.3694   23988180.3734
      3180.669        2478.443
  -7975479.251 9  -6186924.70748  20465941.824    20465941.6614   20465946.6164
      -281.690        -219.499
   1719790.971 9   1348287.41546  24493469.963    24493469.5914   24493475.8654
     -2180.327       -1698.956
 97  5 13 17  6  0.0000000  0  7  2 27 26  4  9  7 15                0.000827087
    791055.912 9    617979.87248  21550754.251    21550753.8264   21550758.5734
      -788.104        -614.107
  11206074.518 9   8730636.47347  22556104.537    22556104.6354   22556110.1444
     -3266.766       -2545.532
  -2319994.606 9  -1795756.35347  23187548.733    23187548.4734   23187554.0884
     -1384.131       -1078.544
  -7791153.846 9  -6058037.71346  23806958.921    23806959.9504   23806966.2984
      3481.901        2713.170
  -7757497.984 9  -6032548.33746  23970031.499    23970031.5874   23970036.8364
      3176.016        2474.818
  -7966827.200 9  -6180182.84848  20467588.551    20467588.1334   20467593.0474
      -294.740        -229.668
   1785440.154 9   1399442.58346  24505962.909    24505962.2734   24505968.5014
     -2195.930       -1711.114
 97  5 13 17  6 30.0000000  0  7  2 27 26  4  9  7 15                0.000827187
    814790.453 9    636474.30048  21555270.819    21555270.3754   21555275.0994
      -793.884        -618.611
  11304230.382 9   8807121.49647  22574783.112    22574783.0284   22574788.6974
     -3276.543       -2553.150
  -2278265.820 9  -1763240.46247  23195488.846    23195489.2604   23195494.8554
     -1397.276       -1088.786
  -7895561.866 9  -6139394.54246  23787091.156    23787091.6124   23787097.8704
      3479.138        2711.017
  -7852703.819 9  -6106734.71746  23951914.910    23951914.5044   23951919.3884
      3171.540        2471.330
  -7957788.213 9  -6173139.48248  20469308.786    20469308.2114   20469313.1324
      -307.359        -239.501
   1851552.843 9   1450958.91546  24518543.805    24518543.1774   24518549.3174
     -2211.149       -1722.973
 97  5 13 17  7  0.0000000  0  7  2 27 26  4  9  7 15                0.000827288
    838716.551 9    655117.99448  21559823.903    21559823.4034   21559828.0854
      -800.691        -623.915
  11402687.992 9   8883841.64947  22593518.834    22593518.9424   22593524.3844
     -3286.864       -2561.193
  -2236130.558 9  -1730407.83247  23203507.562    23203507.3374   23203513.0134
     -1411.234       -1099.663
  -7999884.077 9  -6220684.48846  23767238.925    23767239.6954   23767246.0094
      3476.256        2708.771
  -7947770.427 9  -6180812.53846  23933823.925    23933823.9414   23933829.0954
      3166.398        2467.323
  -7948366.038 9  -6165797.52848  20471102.058    20471101.1994   20471106.1324
      -320.336        -249.612
   1918131.207 9   1502838.09946  24531213.481    24531212.6124   24531218.7684
     -2226.926       -1735.267
 97  5 13 17  7 30.0000000  0  7  2 27 26  4  9  7 15                0.000827401
    862851.255 9    673924.24048  21564416.604    21564416.1004   21564420.7954
      -808.245        -629.801
  11501460.526 9   8960807.14447  22612314.344    22612314.6834   22612320.3824
     -3297.933       -2569.818
  -2193574.533 9  -1697247.33047  23211605.737    23211605.5324   23211611.1664
     -1425.496       -1110.776
  -8104120.873 9  -6301907.89546  23747403.422    23747404.1094   23747410.2254
      3473.066        2706.285
  -8042665.786 9  -6254756.96846  23915766.043    23915766.0034   23915770.9804
      3160.114        2462.426
  -7938542.069 9  -6158142.48948  20472971.511    20472970.6204   20472975.6034
      -334.551        -260.689
   1985188.130 9   1555090.22846  24543973.835    24543973.1944   24543979.2964
     -2243.345       -1748.061
 97  5 13 17  8  0.0000000  0  7  2 27 26  4  9  7 15                0.000827516
    887202.661 9    692899.34548  21569050.665    21569050.0414   21569054.7374
      -815.799        -635.688
  11600559.180 9   9038026.80247  22631172.027    22631172.4944   22631178.0954
     -3309.356       -2578.719
  -2150617.203 9  -1663774.12947  23219780.330    23219780.0434   23219785.7194
     -1439.143       -1121.410
  -8208283.383 9  -6383073.39646  23727582.348    23727582.4944   23727588.7854
      3470.311        2704.138
  -8137393.663 9  -6328570.87347  23897740.042    23897739.8144   23897744.7194
      3154.316        2457.909
  -7928304.803 9  -6150165.40548  20474919.616    20474918.6784   20474923.6374
      -348.680        -271.699
   2052719.728 9   1607712.17346  24556824.538    24556824.0744   24556830.1094
     -2259.478       -1760.632
 97  5 13 17  8 30.0000000  0  7  2 27 26  4  9  7 15                0.000827628
    911768.034 9    712041.17648  21573725.252    21573724.6784   21573729.4134
      -822.140        -640.629
  11699985.853 9   9115502.07247  22650092.798    22650092.9014   22650098.5524
     -3319.336       -2586.495
  -2107257.112 9  -1629987.07547  23228031.747    23228031.1574   23228036.8494
     -1451.771       -1131.250
  -8312367.980 9  -6464178.17846  23707774.866    23707775.6994   23707782.0494
      3468.449        2702.688
  -8231962.811 9  -6402261.08146  23879743.975    23879743.8264   23879748.8674
      3150.127        2454.644
  -7917652.417 9  -6141864.84448  20476946.577    20476945.7204   20476950.6884
      -361.702        -281.846
   2120720.930 9   1660700.10646  24569764.700    24569764.3514   24569770.2694
     -2274.150       -1772.065
 97  5 13 17  9  0.0000000  0  7  2 27 26  4  9  7 15                0.000827726
    936538.154 9    731342.55448  21578438.812    21578438.3104   21578443.0594
      -829.546        -646.399
  11799721.257 9   9193217.92147  22669071.994    22669071.9514   22669077.4394
     -3330.139       -2594.914
  -2063505.096 9  -1595894.63347  23236357.224    23236356.9544   23236362.6504
     -1465.391       -1141.863
  -8416387.347 9  -6545232.14946  23687981.217    23687981.3244   23687987.8394
      3465.588        2700.458
  -8326389.339 9  -6475840.21146  23861775.572    23861775.2024   23861779.9014
      3144.486        2450.249
  -7906593.491 9  -6133247.49448  20479050.969    20479050.1984   20479055.1274
      -376.070        -293.042
   2189171.008 9   1714037.75946  24582790.407    24582790.0514   24582795.9074
     -2289.672       -1784.160
 97  5 13 17  9 30.0000000  0  7  2 27 26  4  9  7 15                0.000827808
    961519.459 9    750808.49048  21583192.711    21583192.1654   21583196.8934
      -835.803        -651.275
  11899773.365 9   9271180.52947  22688111.338    22688111.3154   22688116.9844
     -3339.889       -2602.511
  -2019361.353 9  -1561496.95447  23244757.198    23244757.2064   23244762.9444
     -1477.485       -1151.287
  -8520321.995 9  -6626220.12446  23668202.774    23668203.1704   23668209.7124
      3463.439        2698.784
  -8420660.876 9  -6549298.49046  23843836.504    23843835.7524   23843840.6184
      3140.521        2447.159
  -7895106.844 9  -6124296.86048  20481236.818    20481236.0584   20481240.9314
      -389.510        -303.514
   2258075.930 9   1767729.87546  24595902.769    24595902.2734   24595908.1044
     -2303.881       -1795.232
 97  5 13 17 10  0.0000000  0  7  2 27 26  4  9  7 15                0.000827869
    986705.846 9    770434.21848  21587985.679    21587985.0184   21587989.7284
      -843.228        -657.061
  12000129.410 9   9349380.03847  22707208.832    22707208.5774   22707214.0364
     -3350.421       -2610.718
  -1974836.414 9  -1526802.23947  23253230.360    23253230.1224   23253235.8064
     -1491.151       -1161.936
  -8624173.786 9  -6707143.53646  23648440.370    23648440.9064   23648447.3114
      3459.940        2696.057
  -8514804.559 9  -6622657.20046  23825921.463    23825920.9494   23825925.7224
      3135.359        2443.137
  -7883215.543 9  -6115030.90948  20483499.559    20483498.8794   20483503.7534
      -403.305        -314.264
   2327419.800 9   1821764.00646  24609098.455    24609097.9574   24609103.9134
     -2319.104       -1807.094
 97  5 13 17 10 30.0000000  0  7  2 27 26  4  9  7 15                0.000827925
   1012099.348 9    790221.33848  21592817.952    21592817.2624   21592821.9954
      -850.248        -662.531
  12100781.224 9   9427809.95447  22726362.582    22726361.9224   22726367.6264
     -3360.245       -2618.373
  -1929900.891 9  -1491787.58147  23261781.396    23261781.0854   23261786.7284
     -1505.039       -1172.758
  -8727926.434 9  -6787989.70846  23628697.429    23628697.5004   23628703.6484
      3456.347        2693.257
  -8608786.530 9  -6695889.89447  23808037.029    23808036.6204   23808041.3314
      3129.431        2438.518
  -7870920.031 9  -6105449.99148  20485839.246    20485838.6144   20485843.5384
      -416.958        -324.902
   2397211.606 9   1876147.18246  24622379.426    24622378.9364   24622384.9184
     -2334.254       -1818.899
 97  5 13 17 11  0.0000000  0  7  2 27 26  4  9  7 15                0.000828024
   1037690.752 9    810162.66448  21597687.862    21597687.1784   21597691.9094
      -855.702        -666.781
  12201725.833 9   9506468.05647  22745571.577    22745571.1264   22745576.7414
     -3369.406       -2625.511
  -1884556.251 9  -1456454.13347  23270410.163    23270409.8854   23270415.5624
     -1517.816       -1182.714
  -8831573.551 9  -6868753.65346  23608974.174    23608974.0944   23608980.0754
      3453.352        2690.924
  -8702591.844 9  -6768984.87846  23790186.730    23790186.0934   23790191.0124
      3124.287        2434.509
  -7858217.883 9  -6095552.21748  20488256.275    20488255.7324   20488260.7054
      -429.769        -334.885
   2467454.604 9   1930881.93346  24635746.255    24635745.6754   24635751.7514
     -2348.521       -1830.016
 97  5 13 17 11 30.0000000  0  7  2 27 26  4  9  7 15                0.000828090
   1063466.636 9    830247.74348  21602592.815    21602592.1894   21602596.9214
      -862.018        -671.702
  12302968.140 9   9585358.10047  22764837.794    22764836.8414   22764842.7274
     -3379.438       -2633.328
  -1838803.107 9  -1420802.37247  23279116.658    23279116.5034   23279122.1464
     -1531.825       -1193.630
  -8935101.024 9  -6949424.34846  23589272.898    23589273.3994   23589279.4084
      3449.260        2687.735
  -8796221.209 9  -6841942.83847  23772369.597    23772369.0304   23772373.7064
      3118.392        2429.916
  -7845110.023 9  -6085338.30248  20490750.604    20490750.0294   20490755.0364
      -443.286        -345.418
   2538147.234 9   1985967.04646  24649198.516    24649198.1464   24649204.0774
     -2363.617       -1841.779
 97  5 13 17 12  0.0000000  0  7  2 27 26  4  9  7 15                0.000828150
   1089417.999 9    850469.56648  21607531.180    21607530.5934   21607535.3324
      -867.929        -676.308
  12404502.732 9   9664475.91047  22784159.061    22784158.1314   22784164.1194
     -3389.486       -2641.158
  -1792626.509 9  -1384820.64247  23287904.113    23287903.6304   23287909.2814
     -1546.434       -1205.014
  -9038510.610 9  -7030003.19846  23569595.166    23569595.1904   23569601.2304
      3444.850        2684.299
  -8889672.645 9  -6914762.05547  23754586.027    23754585.6754   23754590.7704
      3111.659        2424.669
  -7831606.274 9  -6074815.90148  20493320.123    20493319.6624   20493324.7004
      -456.998        -356.102
   2609287.159 9   2041400.69446  24662736.209    24662735.6304   24662741.5774
     -2378.917       -1853.702
 97  5 13 17 12 30.0000000  0  7  2 27 26  4  9  7 15                0.000828199
   1115535.129 9    870820.55448  21612501.131    21612500.5194   21612505.2854
      -873.107        -680.343
  12506337.560 9   9743827.64847  22803537.183    22803536.7274   22803542.8994
     -3399.282       -2648.791
  -1746024.153 9  -1348507.16047  23296772.057    23296771.7734   23296777.4474
     -1559.731       -1215.375
  -9141792.925 9  -7110482.87246  23549940.940    23549941.1684   23549947.2164
      3440.873        2681.200
  -8982924.852 9  -6987426.13347  23736841.088    23736840.4604   23736845.3284
      3105.711        2420.035
  -7817687.544 9  -6063970.13848  20495968.913    20495968.3264   20495973.3454
      -470.576        -366.683
   2680879.441 9   2097186.82946  24676359.788    24676359.1824   24676365.2274
     -2393.511       -1865.074
 97  5 13 17 13  0.0000000  0  7  2 27 26  4  9  7 15                0.000828223
   1141824.688 9    891305.90048  21617503.990    21617503.2814   21617508.0424
      -878.984        -684.923
  12608477.482 9   9823417.12547  22822973.376    22822973.2324   22822979.4464
     -3409.340       -2656.629
  -1699028.333 9  -1311887.08347  23305714.828    23305714.8114   23305720.4114
     -1572.526       -1225.345
  -9244947.989 9  -7190863.39546  23530311.120    23530311.4324   23530317.3924
      3436.683        2677.935
  -9076006.626 9  -7059957.32547  23719128.159    23719127.4614   23719132.5554
      3100.268        2415.793
  -7803357.873 9  -6052804.16548  20498695.999    20498695.1934   20498700.1884
      -484.024        -377.162
   2752912.177 9   2153316.18946  24690067.305    24690066.5654   24690072.6644
     -2407.868       -1876.261
 97  5 13 17 13 30.0000000  0  7  2 27 26  4  9  7 15                0.000828249
   1168318.239 9    911950.20648  21622545.567    21622544.8494   21622549.6104
      -887.160        -691.293
  12710923.528 9   9903245.21647  22842469.098    22842468.2954   22842474.3024
     -3420.027       -2664.956
  -1651638.235 9  -1274959.78147  23314733.214    23314732.8614   23314738.5254
     -1586.617       -1236.325
  -9347964.208 9  -7271135.72646  23510707.754    23510708.0294   23510713.8854
      3431.413        2673.828
  -9168908.764 9  -7132348.59247  23701449.426    23701448.8464   23701453.9374
      3093.347        2410.400
  -7788624.465 9  -6041323.59248  20501499.834    20501498.8514   20501503.8284
      -497.875        -387.954
   2825384.728 9   2209788.24846  24703858.309    24703857.7734   24703863.7644
     -2423.472       -1888.420
 97  5 13 17 14  0.0000000  0  7  2 27 26  4  9  7 15                0.000828303
   1195047.559 9    932778.22348  21627632.044    21627631.2864   21627636.0414
      -894.174        -696.759
  12813676.562 9   9983312.43947  22862021.899    22862021.7044   22862027.6744
     -3429.351       -2672.222
  -1603841.569 9  -1237715.67547  23323828.785    23323828.3154   23323833.9074
     -1599.049       -1246.012
  -9450834.577 9  -7351294.39746  23491132.159    23491132.3824   23491138.2104
      3427.200        2670.545
  -9261607.992 9  -7204581.71747  23683808.967    23683808.6444   23683813.8284
      3087.173        2405.589
  -7773494.231 9  -6029533.80248  20504378.872    20504378.0324   20504383.0284
      -510.258        -397.604
   2898309.857 9   2266612.96445  24717735.674    24717735.0534   24717741.0104
     -2437.639       -1899.459
 97  5 13 17 14 30.0000000  0  7  2 27 26  4  9  7 15                0.000828375
   1221998.356 9    953778.82348  21632760.579    21632759.8514   21632764.6294
      -902.332        -703.116
  12916702.503 9  10063592.35447  22881627.091    22881626.9404   22881632.9214
     -3438.734       -2679.533
  -1555682.695 9  -1200189.32347  23332992.910    23332992.6634   23332998.2154
     -1611.364       -1255.608
  -9553579.707 9  -7431355.48146  23471580.228    23471580.5644   23471586.4314
      3422.580        2666.945
  -9354119.856 9  -7276668.86747  23666204.407    23666204.3384   23666209.4584
      3080.529        2400.412
  -7757992.341 9  -6017454.41148  20507328.949    20507327.9854   20507332.9534
      -522.877        -407.437
   2971662.804 9   2323771.05545  24731694.177    24731693.6674   24731699.5934
     -2452.389       -1910.952
 97  5 13 17 15  0.0000000  0  7  2 27 26  4  9  7 15                0.000828483
   1249186.577 9    974964.42648  21637934.410    21637933.5814   21637938.4174
      -909.864        -708.985
  13019993.063 9  10144078.48447  22901282.835    22901282.7554   22901288.4134
     -3447.109       -2686.059
  -1507156.546 9  -1162376.77147  23342227.334    23342226.8964   23342232.4254
     -1623.805       -1265.303
  -9656190.199 9  -7511311.64546  23452053.995    23452054.3464   23452060.2424
      3418.221        2663.549
  -9446435.543 9  -7348603.13547  23648637.171    23648637.1714   23648642.3104
      3073.787        2395.159
  -7742128.106 9  -6005092.67148  20510347.706    20510346.8974   20510351.8254
      -534.708        -416.656
   3045453.766 9   2381270.48645  24745736.425    24745735.5264   24745741.5044
     -2466.887       -1922.250
 97  5 13 17 15 30.0000000  0  7  2 27 26  4  9  7 15                0.000828604
   1276573.735 9    996305.04748  21643145.920    21643145.1524   21643150.0404
      -916.044        -713.801
  13123504.449 9  10224736.62947  22920980.275    22920980.3264   22920985.9444
     -3454.018       -2691.443
  -1458262.471 9  -1124277.53247  23351531.406    23351531.1484   23351536.6944
     -1636.123       -1274.901
  -9758686.859 9  -7591179.13546  23432549.937    23432549.9224   23432555.8244
      3414.667        2660.779
  -9538560.326 9  -7420388.63447  23631106.387    23631106.4044   23631111.6384
      3067.693        2390.410
  -7725921.020 9  -5992463.76448  20513431.856    20513431.0284   20513435.9424
      -546.106        -425.537
   3119665.595 8   2439097.85345  24759858.450    24759857.6204   24759863.6464
     -2480.817       -1933.104
 97  5 13 17 16  0.0000000  0  7  2 27 26  4  9  7 15                0.000828704
   1304135.447 9   1017781.67448  21648390.807    21648389.9854   21648394.8544
      -921.734        -718.234
  13227230.130 9  10305561.75547  22940718.755    22940718.7904   22940724.3744
     -3461.638       -2697.380
  -1408992.810 9  -1085885.64047  23360907.384    23360906.9434   23360912.3784
     -1648.923       -1284.875
  -9861068.407 9  -7670956.90646  23413067.535    23413067.4594   23413073.2044
      3410.103        2657.223
  -9630506.294 9  -7492034.83847  23613609.464    23613609.5744   23613614.7794
      3061.424        2385.525
  -7709352.010 9  -5979552.85548  20516585.127    20516584.0474   20516588.8954
      -559.203        -435.743
   3194299.669 8   2497254.20645  24774060.765    24774060.2044   24774066.1404
     -2495.287       -1944.379
 97  5 13 17 16 30.0000000  0  7  2 27 26  4  9  7 15                0.000828764
   1331852.481 9   1039379.33948  21653665.191    21653664.3654   21653669.2564
      -926.538        -721.978
  13331178.259 9  10386560.26247  22960500.078    22960499.6614   22960504.9814
     -3468.861       -2703.008
  -1359354.315 9  -1047206.33647  23370353.530    23370352.9404   23370358.3084
     -1660.764       -1294.102
  -9963317.731 9  -7750631.65546  23393609.644    23393610.0904   23393615.7144
      3405.997        2654.024
  -9722272.017 9  -7563540.56547  23596147.782    23596147.1274   23596152.4184
      3055.985        2381.287
  -7692396.713 9  -5966340.94048  20519811.635    20519810.5314   20519815.3424
      -571.495        -445.321
   3269357.789 8   2555740.99945  24788343.867    24788343.4954   24788349.1684
     -2508.970       -1955.042
 97  5 13 17 17  0.0000000  0  7  2 27 26  4  9  7 15                0.000828783
   1359735.851 9   1061106.61648  21658971.233    21658970.4054   21658975.3404
      -933.238        -727.198
  13435374.472 9  10467752.01547  22980327.468    22980327.4664   22980333.1144
     -3478.328       -2710.385
  -1309336.665 9  -1008231.58347  23379871.515    23379871.0454   23379876.3524
     -1674.537       -1304.834
 -10065414.670 9  -7830187.66947  23374181.498    23374181.6594   23374187.2784
      3399.718        2649.131
  -9813860.114 9  -7634907.89747  23578719.275    23578718.4234   23578723.7504
      3049.067        2375.896
  -7675048.352 9  -5952822.74148  20523112.829    20523111.8004   20523116.5694
      -585.932        -456.570
   3344844.123 8   2614561.48145  24802708.511    24802708.0914   24802713.7184
     -2524.171       -1966.886
 97  5 13 17 17 30.0000000  0  7  2 27 26  4  9  7 15                0.000828775
   1387825.995 9   1082995.01048  21664316.721    21664315.8104   21664320.7804
      -939.583        -732.143
  13539856.108 9  10549166.27747  23000210.105    23000209.7354   23000215.2754
     -3487.344       -2717.411
  -1258909.927 9   -968938.06447  23389467.176    23389466.8674   23389472.3124
     -1687.170       -1314.678
 -10167327.558 9  -7909600.23147  23354788.227    23354788.2054   23354793.8414
      3394.289        2644.901
  -9905245.493 9  -7706117.24947  23561328.919    23561328.3894   23561333.7044
      3043.120        2371.262
  -7657267.626 9  -5938967.63548  20526496.266    20526495.3374   20526500.1334
      -599.428        -467.087
   3420777.674 8   2673730.44245  24817158.145    24817157.6764   24817163.5914
     -2538.083       -1977.727
 97  5 13 17 18  0.0000000  0  7  2 27 26  4  9  7 15                0.000828751
   1416118.555 9   1105041.13348  21669700.642    21669699.7334   21669704.7014
      -946.789        -737.758
  13644624.557 9  10630803.96247  23020146.826    23020146.5454   23020152.0964
     -3497.441       -2725.279
  -1208113.851 9   -929356.75047  23399133.390    23399133.0004   23399138.4804
     -1699.287       -1324.120
 -10269064.600 9  -7988875.81047  23335428.722    23335428.2894   23335433.8524
      3388.001        2640.001
  -9996437.258 9  -7777175.75147  23543975.458    23543975.0234   23543980.4034
      3035.982        2365.700
  -7639083.140 9  -5924797.91148  20529956.702    20529955.7184   20529960.5424
      -612.891        -477.577
   3497134.802 8   2733229.42845  24831688.290    24831687.6784   24831694.1204
     -2552.511       -1988.970
 97  5 13 17 18 30.0000000  0  7  2 27 26  4  9  7 15                0.000828746
   1444624.254 9   1127253.33948  21675125.170    21675124.2074   21675129.2064
      -953.455        -742.952
  13749687.546 9  10712671.16547  23040139.583    23040139.3194   23040144.9974
     -3506.491       -2732.331
  -1156967.816 9   -889502.72747  23408865.939    23408865.7864   23408871.3114
     -1710.256       -1332.667
 -10370635.606 9  -8068021.98047  23316100.318    23316099.9114   23316105.5674
      3383.601        2636.572
 -10087421.492 9  -7848072.55447  23526662.040    23526661.3814   23526666.6864
      3029.989        2361.030
  -7620526.560 9  -5910338.24348  20533487.992    20533486.9424   20533491.7724
      -624.005        -486.238
   3573901.297 8   2793047.41845  24846296.745    24846296.0934   24846302.3604
     -2565.106       -1998.784
 97  5 13 17 19  0.0000000  0  7  2 27 26  4  9  7 15                0.000828774
   1473364.454 9   1149648.27848  21680594.160    21680593.2744   21680598.2764
      -962.138        -749.718
  13855042.077 9  10794765.56647  23060187.300    23060187.7014   23060193.4814
     -3516.579       -2740.191
  -1105454.970 9   -849362.89247  23418668.581    23418668.3384   23418673.9704
     -1723.488       -1342.978
 -10472041.196 9  -8147039.26847  23296803.292    23296803.0744   23296808.6754
      3377.261        2631.632
 -10178188.621 9  -7918800.14947  23509389.462    23509388.8634   23509394.2754
      3021.457        2354.382
  -7601602.805 9  -5895592.46448  20537088.924    20537087.9954   20537092.8584
      -637.261        -496.567
   3651075.421 8   2853183.06045  24860982.657    24860981.8304   24860988.1494
     -2579.531       -2010.024
 97  5 13 17 19 30.0000000  0  7  2 27 26  4  9  7 15                0.000828840
   1502336.113 9   1172223.57548  21686107.240    21686106.3894   21686111.4344
      -969.444        -755.411
  13960668.955 9  10877072.17947  23080287.726    23080287.7714   23080293.6434
     -3525.396       -2747.062
  -1053570.614 9   -808933.56447  23428541.934    23428541.6334   23428547.3344
     -1735.574       -1352.395
 -10573285.384 9  -8225930.77947  23277537.249    23277536.9404   23277542.4764
      3372.084        2627.598
 -10268716.646 9  -7989341.44947  23492162.509    23492161.9854   23492167.3624
      3013.531        2348.206
  -7582311.553 9  -5880560.32848  20540759.727    20540759.0214   20540763.8984
      -649.027        -505.735
   3728658.751 8   2913637.53845  24875746.342    24875745.6134   24875751.7364
     -2592.933       -2020.467
 97  5 13 17 20  0.0000000  0  7  2 27 26  4  9  7 15                0.000828946
   1531527.298 9   1194969.93748  21691662.083    21691661.3144   21691666.3654
      -976.611        -760.995
  14066563.377 9  10959587.25147  23100439.032    23100438.8714   23100444.8964
     -3534.066       -2753.818
  -1001324.574 9   -768222.39947  23438484.124    23438483.8164   23438489.5354
     -1747.556       -1361.732
 -10674365.970 9  -8304694.81047  23258302.565    23258301.8774   23258307.4624
      3366.755        2623.445
 -10358998.938 9  -8059691.26447  23474982.683    23474981.7774   23474987.1154
      3005.393        2341.865
  -7562660.505 9  -5865247.83548  20544499.267    20544498.4754   20544503.3754
      -661.108        -515.149
   3806652.004 8   2974411.48845  24890587.827    24890587.2304   24890593.5124
     -2606.648       -2031.154
 97  5 13 17 20 30.0000000  0  7  2 27 26  4  9  7 15                0.000829057
   1560924.265 9   1217876.64748  21697256.216    21697255.3894   21697260.4444
      -982.806        -765.823
  14172694.710 9  11042286.96947  23120635.207    23120635.0794   23120640.9844
     -3540.950       -2759.182
   -948724.053 9   -727235.01947  23448493.552    23448493.3934   23448499.1584
     -1758.750       -1370.455
 -10775301.695 9  -8383345.94747  23239094.478    23239094.3094   23239099.9934
      3362.471        2620.107
 -10449057.043 9  -8129866.39147  23457845.344    23457844.2064   23457849.5964
      2998.887        2336.795
  -7542650.503 9  -5849655.63448  20548307.363    20548306.2454   20548311.1614
      -672.663        -524.153
   3885041.714 8   3035494.35345  24905504.948    24905504.3434   24905510.6874
     -2619.110       -2040.865
 97  5 13 17 21  0.0000000  0  7  2 27 26  4  9  7 15                0.000829145
   1590511.525 9   1240931.64148  21702886.567    21702885.6744   21702890.7354
      -989.590        -771.109
  14279037.171 9  11125151.16847  23140871.471    23140871.4174   23140877.3304
     -3548.564       -2765.115
   -895786.157 9   -685984.74347  23458567.305    23458567.2164   23458572.9444
     -1770.203       -1379.379
 -10876088.306 9  -8461880.89647  23219915.528    23219915.2024   23219920.8974
      3356.820        2615.704
 -10538911.382 9  -8199882.74347  23440746.865    23440745.4564   23440750.8374
      2991.411        2330.970
  -7522271.043 9  -5833775.54648  20552185.195    20552184.2524   20552189.1694
      -685.961        -534.515
   3963820.524 8   3096880.40145  24920496.160    24920495.3504   24920501.9484
     -2632.704       -2051.458
 97  5 13 17 21 30.0000000  0  7  2 27 26  4  9  7 15                0.000829196
   1620298.882 9   1264142.54648  21708554.990    21708554.0464   21708559.1174
      -996.378        -776.398
  14385609.562 9  11208194.57047  23161151.651    23161151.5304   23161157.4544
     -3556.570       -2771.353
   -842515.888 9   -644475.48547  23468704.287    23468704.2384   23468710.0564
     -1781.334       -1388.052
 -10976715.680 9  -8540291.78047  23200766.871    23200766.4724   23200772.1444
      3351.321        2611.419
 -10628555.851 9  -8269735.55247  23423687.453    23423686.6594   23423692.0214
      2984.773        2325.797
  -7501498.979 9  -5817589.53148  20556138.112    20556137.0314   20556141.9544
      -699.135        -544.781
   4043000.816 8   3158579.29445  24935563.843    24935562.5914   24935569.3684
     -2646.221       -2061.990
 97  5 13 17 22  0.0000000  0  7  2 27 26  4  9  7 15                0.000829209
   1650307.643 9   1287525.98148  21714265.419    21714264.5314   21714269.5924
     -1004.355        -782.614
  14492437.326 9  11291436.93147  23181480.675    23181480.2314   23181486.0574
     -3565.428       -2778.256
   -788898.059 9   -602695.39547  23478907.413    23478907.3614   23478913.2434
     -1793.285       -1397.365
 -11077161.219 9  -8618560.94447  23181652.087    23181652.2664   23181658.0404
      3345.011        2606.502
 -10717990.610 9  -8339424.94347  23406668.225    23406667.7754   23406673.1754
      2977.495        2320.126
  -7480307.041 9  -5801076.33948  20560170.637    20560169.7234   20560174.6354
      -713.569        -556.028
   4122597.391 8   3220602.55445  24950710.487    24950709.2034   24950716.3194
     -2660.379       -2073.023
 97  5 13 17 22 30.0000000  0  7  2 27 26  4  9  7 15                0.000829183
   1680542.413 9   1311085.52148  21720018.820    21720018.0164   21720023.0934
     -1011.436        -788.132
  14599512.764 9  11374872.28647  23201856.188    23201855.9714   23201861.9914
     -3573.374       -2784.447
   -734939.125 9   -560649.51047  23489175.458    23489175.3694   23489181.2734
     -1804.133       -1405.818
 -11177432.818 9  -8696694.57847  23162570.308    23162571.0394   23162576.9724
      3339.472        2602.186
 -10807227.501 9  -8408960.15547  23389687.232    23389686.5054   23389691.8924
      2971.293        2315.293
  -7458708.622 9  -5784246.40648  20564280.878    20564279.8104   20564284.6934
      -726.414        -566.037
   4202597.893 8   3282940.57645  24965934.094    24965931.8344   24965940.2354
     -2673.362       -2083.139
 97  5 13 17 23  0.0000000  0  7  2 27 26  4  9  7 15                0.000829119
   1710978.130 9   1334801.64448  21725810.382    21725809.7444   21725814.8084
     -1018.072        -793.303
  14706824.248 9  11458491.59247  23222276.713    23222276.7384   23222282.7844
     -3581.130       -2790.491
   -680661.742 9   -518355.48647  23499504.338    23499504.0164   23499509.8884
     -1814.797       -1414.128
 -11277542.306 9  -8774701.91447  23143520.296    23143520.7854   23143526.7514
      3334.139        2598.030
 -10896280.525 9  -8478352.09547  23372740.925    23372740.3184   23372745.7484
      2965.067        2310.442
  -7436739.773 9  -5767127.83648  20568461.523    20568460.3804   20568465.2354
      -738.499        -575.454
   4282979.504 8   3345575.54445  24981230.321    24981228.5014   24981236.5094
     -2685.785       -2092.819
 97  5 13 17 23 30.0000000  0  7  2 27 26  4  9  7 15                0.000829046
   1741635.136 9   1358690.19848  21731644.291    21731643.5854   21731648.6394
     -1025.558        -799.136
  14814381.440 9  11542302.33447  23242744.246    23242744.2394   23242750.2404
     -3589.139       -2796.732
   -626038.041 9   -475791.60747  23509898.779    23509898.6004   23509904.5274
     -1826.752       -1423.443
 -11377472.038 9  -8852569.19347  23124504.298    23124504.7684   23124510.6974
      3327.925        2593.188
 -10985128.786 9  -8547584.47547  23355833.595    23355832.9864   23355838.3604
      2958.109        2305.020
  -7414404.946 9  -5749724.07648  20572711.687    20572710.5704   20572715.4224
      -750.264        -584.621
   4363753.336 8   3408516.13545  24996601.141    24996599.1954   24996607.1224
     -2698.960       -2103.086
 97  5 13 17 24  0.0000000  0  7  2 27 26  4  9  7 15                0.000828983
   1772501.852 9   1382742.16148  21737518.034    21737517.3464   21737522.3874
     -1032.500        -804.545
  14922161.668 9  11626286.84847  23263254.459    23263254.1854   23263260.3104
     -3596.497       -2802.465
   -571069.073 9   -432958.67747  23520359.449    23520358.9654   23520364.7424
     -1838.036       -1432.236
 -11477224.432 9  -8930298.25147  23105522.184    23105522.3704   23105528.3944
      3321.940        2588.525
 -11073763.980 9  -8616650.82947  23338966.700    23338966.2854   23338971.7634
      2950.553        2299.132
  -7391739.358 9  -5732062.58848  20577024.575    20577023.6914   20577028.5654
      -761.026        -593.007
   4444904.880 8   3471751.02945  25012043.938    25012042.0824   25012049.5384
     -2711.480       -2112.841
 97  5 13 17 24 30.0000000  0  7  2 27 26  4  9  7 15                0.000828941
   1803571.390 9   1406952.16648  21743430.378    21743429.7004   21743434.7334
     -1038.536        -809.249
  15030159.318 9  11710440.82247  23283805.385    23283805.4564   23283811.5314
     -3603.238       -2807.718
   -515765.441 9   -389864.99047  23530883.277    23530882.9164   23530888.7144
     -1848.629       -1440.490
 -11576790.849 9  -9007882.40947  23086575.084    23086575.3234   23086581.4324
      3315.826        2583.761
 -11162168.618 9  -8685537.52347  23322143.857    23322143.3514   23322148.8784
      2943.163        2293.374
  -7368753.651 9  -5714151.65348  20581398.477    20581397.7074   20581402.5764
      -771.345        -601.048
   4526431.08118   3535277.84055  25027557.731    25027555.6315   25027563.1415
     -2723.559       -2122.254
 97  5 13 17 25  0.0000000  0  8 24  2 27 26  4  9  7 15             0.000828911
   -243625.35318   -174695.20955  25243810.719           0.0005          0.0005
      3602.649        2807.259
   1834832.039 9   1431311.09348  21749379.221    21749378.4494   21749383.4674
     -1045.543        -814.709
  15138370.633 9  11794761.24547  23304397.465    23304397.3124   23304403.5764
     -3610.771       -2813.588
   -460130.069 9   -346512.78747  23541470.036    23541470.0404   23541475.9014
     -1860.407       -1449.668
 -11676157.645 9  -9085311.02147  23067666.288    23067666.3354   23067672.5014
      3308.600        2578.130
 -11250334.844 9  -8754238.45747  23305366.608    23305365.8744   23305371.3574
      2934.618        2286.715
  -7345440.572 9  -5695985.62748  20585834.912    20585834.0474   20585838.8844
      -782.897        -610.050
   4608333.259 8   3599097.66645  25043142.933    25043141.3824   25043148.7694
     -2736.622       -2132.433
 97  5 13 17 25 30.0000000  0  8 24  2 27 26  4  9  7 15             0.000828892
   -351754.830 8   -258952.56254  25223236.781           0.0005          0.0005
      3605.950        2809.831
   1866294.475 9   1455827.25248  21755366.273    21755365.6204   21755370.6054
     -1051.696        -819.503
  15246795.168 9  11879247.82747  23325029.459    23325029.8334   23325036.2454
     -3617.533       -2818.857
   -404156.416 9   -302896.99647  23552121.837    23552121.5304   23552127.3434
     -1870.905       -1457.848
 -11775321.643 9  -9162581.59047  23048795.653    23048795.9604   23048802.1824
      3302.496        2573.374
 -11338250.366 9  -8822744.03047  23288636.468    23288636.0914   23288641.5904
      2926.692        2280.539
  -7321789.918 9  -5677556.55248  20590335.500    20590334.6484   20590339.4674
      -793.711        -618.476
   4690615.444 8   3663213.61345  25058800.743    25058799.2734   25058806.7524
     -2748.654       -2141.808
 97  5 13 17 26  0.0000000  0  8 24  2 27 26  4  9  7 15             0.000828844
   -460021.275 8   -343316.46155  25202632.338           0.0005   25202632.9945
      3610.772        2813.589
   1897895.326 9   1480451.26548  21761379.873    21761379.1114   21761384.0494
     -1056.190        -823.005
  15355384.661 9  11963862.98747  23345693.343    23345693.8124   23345700.2234
     -3622.907       -2823.044
   -347919.947 9   -259076.40247  23562823.145    23562822.9534   23562828.8054
     -1879.134       -1464.260
 -11874344.637 9  -9239742.29247  23029951.986    23029952.4714   23029958.5954
      3297.871        2569.770
 -11425972.113 9  -8891098.59547  23271943.608    23271943.1464   23271948.6254
      2920.476        2275.696
  -7297850.825 9  -5658902.71648  20594890.887    20594890.1634   20594894.9384
      -803.480        -626.088
   4773218.802 8   3727579.81745  25074519.722    25074518.1884   25074525.4984
     -2759.130       -2149.971
 97  5 13 17 26 30.0000000  0  8 24  2 27 26  4  9  7 15             0.000828773
   -568386.074 8   -427756.47545  25182010.958    25182008.9095   25182016.7174
      3613.485        2815.703
   1929679.357 9   1505218.01848  21767428.314    21767427.4534   21767432.3614
     -1062.809        -828.163
  15464181.558 9  12048639.72747  23366396.955    23366397.2024   23366403.6714
     -3630.203       -2828.730
   -291399.319 9   -215034.39447  23573578.689    23573578.5174   23573584.3774
     -1888.962       -1471.918
 -11973182.373 9  -9316758.65047  23011143.887    23011144.2344   23011150.2624
      3291.343        2564.683
 -11513475.057 9  -8959282.69547  23255292.504    23255291.9524   23255297.3654
      2913.000        2269.870
  -7273571.076 9  -5639983.44048  20599511.131    20599510.4744   20599515.1924
      -815.189        -635.212
   4856176.735 8   3792222.35945  25090306.039    25090304.9134   25090311.5784
     -2771.380       -2159.517
 97  5 13 17 27  0.0000000  0  8 24  2 27 26  4  9  7 15             0.000828700
   -676821.020 9   -512251.15655  25161375.701    25161374.9145   25161380.5505
      3615.369        2817.171
   1961681.890 9   1530155.02948  21773518.166    21773517.3454   21773522.2384
     -1070.570        -834.210
  15573221.228 9  12133605.68047  23387147.081    23387146.8094   23387153.2984
     -3638.849       -2835.467
   -234561.174 9   -170744.97847  23584394.631    23584394.4824   23584400.3794
     -1900.009       -1480.526
 -12071814.507 9  -9393614.79147  22992374.984    22992375.1454   22992380.9854
      3284.336        2559.223
 -11600730.450 9  -9027273.89347  23238688.286    23238687.8174   23238693.1024
      2904.209        2263.020
  -7248926.197 9  -5620779.64348  20604200.997    20604200.2454   20604204.9634
      -827.538        -644.835
   4939513.092 8   3857159.71245  25106164.538    25106163.8784   25106170.5544
     -2784.066       -2169.402
 97  5 13 17 27 30.0000000  0  8 24  2 27 26  4  9  7 15             0.000828633
   -785327.125 8   -596801.34345  25140726.197    25140726.0164   25140733.4634
      3617.807        2819.070
   1993899.279 9   1555259.47248  21779648.877    21779648.1474   21779653.0364
     -1077.574        -839.668
  15682498.463 9  12218756.70946  23407942.316    23407941.6424   23407948.0294
     -3646.671       -2841.562
   -177423.595 9   -126222.21747  23595267.460    23595267.3904   23595273.2224
     -1909.466       -1487.896
 -12170258.867 9  -9470324.60947  22973641.956    22973641.8424   22973647.6124
      3278.249        2554.480
 -11687742.623 9  -9095075.54547  23222130.407    23222129.9734   23222135.2474
      2896.295        2256.853
  -7223933.773 9  -5601305.03148  20608956.780    20608956.1194   20608960.8124
      -839.009        -653.773
   5023208.490 8   3922376.83945  25122091.358    25122090.7174   25122097.2434
     -2795.818       -2178.559
 97  5 13 17 28  0.0000000  0  8 24  2 27 26  4  9  7 15             0.000828576
   -893888.980 8   -681395.01846  25120067.144    25120067.2994   25120074.4824
      3619.937        2820.730
   2026346.487 9   1580542.98748  21785823.484    21785822.6554   21785827.5434
     -1085.287        -845.678
  15792025.319 9  12304102.23946  23428785.189    23428783.9184   23428790.3484
     -3654.619       -2847.755
   -119979.245 9    -81460.42047  23606198.981    23606198.7674   23606204.5764
     -1919.826       -1495.968
 -12268497.956 9  -9546874.50047  22954947.664    22954947.6094   22954953.1924
      3271.282        2549.051
 -11774499.439 9  -9162678.25647  23205620.974    23205620.7254   23205625.9454
      2887.791        2250.227
  -7198579.723 9  -5581548.63448  20613781.768    20613780.8594   20613785.5364
      -850.802        -662.962
   5107271.709 8   3987880.58145  25138087.856    25138087.6474   25138093.9934
     -2807.968       -2188.027
 97  5 13 17 28 30.0000000  0  8 24  2 27 26  4  9  7 15             0.000828542
  -1002516.779 8   -766039.98545  25099395.705    25099395.8964   25099403.1134
      3622.216        2822.506
   2059024.199 9   1606006.12148  21792041.936    21792041.0404   21792045.9544
     -1092.704        -851.458
  15901794.558 9  12389636.68246  23449673.853    23449672.4424   23449678.7704
     -3662.697       -2854.050
    -62218.360 9    -36451.98047  23617190.670    23617190.2834   23617196.2034
     -1930.518       -1504.300
 -12366525.461 9  -9623259.51347  22936293.975    22936293.5304   22936299.0634
      3264.311        2543.619
 -11860994.086 9  -9230076.65947  23189161.320    23189161.3454   23189166.5304
      2878.976        2243.358
  -7172878.064 9  -5561521.37248  20618672.699    20618671.7824   20618676.3884
      -862.101        -671.767
   5191697.249 8   4053666.66745  25154153.825    25154153.1774   25154159.5064
     -2819.978       -2197.385
 97  5 13 17 29  0.0000000  0  7 24  2 27 26  4  9  7                0.000828534
  -1111202.881 8   -850730.43246  25078714.539    25078713.7414   25078721.0384
      3624.250        2824.091
   2091926.826 9   1631644.50948  21798302.975    21798302.2094   21798307.1224
     -1100.012        -857.152
  16011803.750 9  12475358.06746  23470607.784    23470606.5104   23470612.8824
     -3670.323       -2859.992
     -4119.458 9      8819.85447  23628246.719    23628246.2064   23628252.0674
     -1941.835       -1513.118
 -12464336.966 9  -9699476.21647  22917680.695    22917680.5924   22917686.0984
      3257.167        2538.052
 -11947218.852 9  -9297264.75847  23172753.046    23172753.2774   23172758.5344
      2870.162        2236.490
  -7146832.428 9  -5541226.07648  20623629.066    20623628.1704   20623632.7184
      -873.407        -680.577
 97  5 13 17 29 30.0000000  0  7 24  2 27 26  4  9  7                0.000828524
  -1219973.264 8   -935486.58445  25058016.472    25058015.4364   25058022.2354
      3627.513        2826.633
   2125036.723 9   1657444.41148  21804603.550    21804602.8044   21804607.7274
     -1106.819        -862.456
  16122017.684 9  12561239.00846  23491581.094    23491579.5134   23491585.9724
     -3676.698       -2864.959
     54308.776 9     54348.32647  23639365.200    23639364.7984   23639370.5584
     -1952.880       -1521.725
 -12561934.352 9  -9775526.08047  22899108.632    22899108.3844   22899113.8824
      3249.765        2532.284
 -12033195.459 9  -9364259.50947  23156392.106    23156392.4594   23156397.6364
      2862.071        2230.185
  -7120450.501 9  -5520668.73248  20628649.406    20628648.5094   20628653.0224
      -885.042        -689.643
 97  5 13 17 30  0.0000000  0  7 24  2 27 26  4  9  7                0.000828491
  -1328835.419 8  -1020314.15445  25037301.304    25037299.6064   25037306.5804
      3630.369        2828.859
   2158355.157 9   1683406.80948  21810943.882    21810943.0754   21810948.0124
     -1113.832        -867.921
  16232422.023 9  12647268.33646  23512590.467    23512588.9864   23512595.3034
     -3682.984       -2869.858
    113081.856 9    100145.49747  23650549.050    23650548.9124   23650554.8004
     -1964.597       -1530.855
 -12659293.880 9  -9851390.62247  22880581.469    22880581.4014   22880586.8464
      3241.386        2525.755
 -12118919.939 9  -9431057.78847  23140079.709    23140079.6054   23140084.8054
      2853.460        2223.475
  -7093710.444 9  -5499832.32648  20633737.809    20633736.9994   20633741.4564
      -897.051        -699.001
 97  5 13 17 30 30.0000000  0  7 24  2 27 26  4  9  7                0.000828407
  -1437798.125 8  -1105220.12945  25016565.552    25016564.5414   25016571.7164
      3633.440        2831.252
   2191856.976 9   1709512.10248  21817319.091    21817318.2764   21817323.2124
     -1119.960        -872.696
  16342988.243 9  12733423.79146  23533630.218    23533629.1044   23533635.3244
     -3688.426       -2874.098
    172178.059 9    146194.45547  23661795.031    23661794.6004   23661800.4134
     -1975.311       -1539.203
 -12756422.575 9  -9927075.27747  22862098.219    22862098.4234   22862103.7964
      3233.444        2519.567
 -12204406.907 9  -9497670.97147  23123812.261    23123811.8254   23123817.1594
      2845.351        2217.157
  -7066626.696 9  -5478728.11348  20638891.612    20638890.8354   20638895.3024
      -908.891        -708.227
 97  5 13 17 31  0.0000000  0  7 24  2 27 26  4  9  7                0.000828262
  -1546862.930 8  -1190205.60945  24995811.076    24995809.8044   24995817.4674
      3636.714        2833.803
   2225541.754 9   1735759.95948  21823728.930    21823728.2764   21823733.2124
     -1126.369        -877.690
  16453709.877 9  12819700.33846  23554699.477    23554698.7514   23554704.9974
     -3693.840       -2878.317
    231584.639 9    192485.26947  23673099.836    23673099.3134   23673105.1414
     -1985.537       -1547.172
 -12853317.688 9 -10002577.92947  22843659.818    22843659.8564   22843665.2224
      3225.349        2513.259
 -12289651.731 9  -9564095.48947  23107590.478    23107590.2324   23107595.6344
      2836.834        2210.520
  -7039190.282 9  -5457349.09448  20644112.636    20644111.8024   20644116.2714
      -920.873        -717.563
 97  5 13 17 31 30.0000000  0  7 24  2 27 26  4  9  7                0.000828081
  -1656009.678 8  -1275254.97545  24975041.226    24975039.9564   24975047.6334
      3639.635        2836.079
   2259433.419 9   1762169.03148  21830178.372    21830177.6694   21830182.6004
     -1133.013        -882.867
  16564607.623 9  12906114.09446  23575802.007    23575801.9494   23575808.1564
     -3699.250       -2882.532
    291287.806 9    239007.19047  23684461.007    23684460.4224   23684466.3524
     -1994.444       -1554.112
 -12949951.690 9 -10077877.12747  22825271.146    22825270.9844   22825276.2994
      3217.177        2506.891
 -12374623.947 9  -9630307.58747  23091421.176    23091420.5694   23091425.8764
      2828.124        2203.733
  -7011384.009 9  -5435681.87248  20649403.971    20649403.1534   20649407.6384
      -932.532        -726.648
 97  5 13 17 32  0.0000000  0  7 24  2 27 26  4  9  7                0.000827897
  -1765214.388 8  -1360349.54246  24954259.942    24954258.6914   24954266.3924
      3640.515        2836.765
   2293547.727 9   1788751.59248  21836670.209    21836669.3994   21836674.3134
     -1141.307        -889.330
  16675690.598 9  12992672.24146  23596940.553    23596940.3274   23596946.4904
     -3706.414       -2888.115
    351265.663 9    285743.14947  23695874.314    23695873.8444   23695879.8924
     -2003.960       -1561.527
 -13046332.995 9 -10152979.40947  22806930.465    22806930.1914   22806935.5184
      3208.252        2499.937
 -12459315.848 9  -9696301.25047  23075304.923    23075304.2074   23075309.5714
      2818.101        2195.923
  -6983232.386 9  -5413745.54648  20654760.968    20654760.2544   20654764.7384
      -944.134        -735.689
 97  5 13 17 32 30.0000000  0  7 24  2 27 26  4  9  7                0.000827744
  -1874454.292 8  -1445471.53845  24933471.658    24933471.0144   24933478.5554
      3641.821        2837.783
   2327909.263 9   1815526.79448  21843208.935    21843208.2014   21843213.1014
     -1149.703        -895.872
  16786982.706 9  13079393.32846  23618118.412    23618118.6084   23618124.6714
     -3713.456       -2893.602
    411511.995 9    332688.30247  23707338.751    23707338.2744   23707344.3964
     -2012.699       -1568.337
 -13142467.456 9 -10227889.36247  22788636.454    22788636.4284   22788641.6574
      3200.391        2493.811
 -12543720.538 9  -9762071.12947  23059243.393    23059242.4954   23059247.8194
      2808.662        2188.568
  -6954751.668 9  -5391552.78348  20660180.680    20660179.9594   20660184.4424
      -954.702        -743.924
 97  5 13 17 33  0.0000000  0  7 24  2 27 26  4  9  7                0.000827644
  -1983739.032 9  -1530628.39745  24912674.913    24912674.7224   24912682.4334
      3642.801        2838.546
   2362524.062 9   1842499.34848  21849795.943    21849795.2494   21849800.0804
     -1158.662        -902.854
  16898487.416 9  13166280.05746  23639336.867    23639337.2714   23639343.4424
     -3720.826       -2899.345
    472014.852 9    379833.33847  23718852.071    23718851.6164   23718857.7194
     -2021.609       -1575.280
 -13238368.993 9 -10302617.81647  22770386.690    22770386.9724   22770392.0194
      3192.279        2487.490
 -12627849.075 9  -9827625.81847  23043234.138    23043233.4844   23043238.7754
      2799.187        2181.185
  -6925968.729 9  -5369124.52548  20665657.889    20665657.1714   20665661.6694
      -965.080        -752.010
 97  5 13 17 33 30.0000000  0  7 24  2 27 26  4  9  7                0.000827587
  -2093047.396 8  -1615803.75545  24891873.834    24891874.0154   24891881.6124
      3644.482        2839.856
   2397400.251 9   1869675.57648  21856432.775    21856431.9934   21856436.8284
     -1166.286        -908.794
  17010196.216 9  13253325.81846  23660594.248    23660594.7324   23660600.9234
     -3726.244       -2903.567
    532787.657 9    427188.73347  23730416.509    23730416.2884   23730422.4194
     -2030.012       -1581.828
 -13334031.366 9 -10377159.91947  22752182.757    22752183.0624   22752188.0864
      3185.413        2482.140
 -12711703.477 9  -9892966.88847  23027276.824    23027276.5094   23027281.7874
      2791.243        2174.995
  -6896874.211 9  -5346453.48148  20671194.487    20671193.6724   20671198.2144
      -974.446        -759.308
 97  5 13 17 34  0.0000000  0  7 24  2 27 26  4  9  7                0.000827547
  -2202386.974 9  -1701003.35245  24871066.636    24871067.3754   24871075.0134
      3644.546        2839.906
   2432516.850 9   1897039.13148  21863115.298    21863114.5104   21863119.3384
     -1174.855        -915.471
  17122083.521 9  13340510.65746  23681885.956    23681886.2844   23681892.4504
     -3733.190       -2908.979
    593842.431 9    474763.85647  23742034.728    23742034.5894   23742040.6904
     -2040.555       -1590.043
 -13429468.493 9 -10451526.49547  22734021.584    22734021.9634   22734026.9974
      3176.670        2475.327
 -12795303.632 9  -9958109.82947  23011367.987    23011367.8204   23011373.2164
      2781.758        2167.604
  -6867475.160 9  -5323545.13848  20676788.780    20676788.1124   20676792.6924
      -985.938        -768.263
 97  5 13 17 34 30.0000000  0  7 24  2 27 26  4  9  7                0.000827496
  -2311771.051 8  -1786237.66245  24850251.247    24850252.1394   24850259.8054
      3646.836        2841.690
   2467847.608 9   1924569.57648  21869838.549    21869837.7504   21869842.5674
     -1181.132        -920.363
  17234143.440 9  13427830.02546  23703210.663    23703210.6124   23703216.6914
     -3738.184       -2912.871
    655183.005 9    522561.69947  23753707.550    23753707.3744   23753713.3104
     -2049.508       -1597.019
 -13524668.114 9 -10525708.01147  22715905.884    22715906.0694   22715911.0364
      3169.147        2469.465
 -12878644.458 9 -10023050.71847  22995509.281    22995508.6574   22995513.8974
      2773.536        2161.197
  -6837755.980 9  -5300387.34848  20682444.360    20682443.5294   20682448.1214
      -996.130        -776.205
 97  5 13 17 35  0.0000000  0  7 24  2 27 26  4  9  7                0.000827399
  -2421211.412 8  -1871515.84045  24829425.964    24829426.1474   24829433.9834
      3648.650        2843.104
   2503364.254 9   1952244.86748  21876597.180    21876596.3594   21876601.2214
     -1186.927        -924.878
  17346353.174 9  13515266.09446  23724563.181    23724563.4244   23724569.6184
     -3742.824       -2916.486
    716797.197 9    570572.71547  23765432.045    23765432.1044   23765438.1374
     -2058.516       -1604.038
 -13619623.853 9 -10599699.48847  22697836.389    22697836.6334   22697841.5304
      3160.914        2463.050
 -12961728.182 9 -10087791.25847  22979699.483    22979698.3864   22979703.6324
      2764.978        2154.528
  -6807713.189 9  -5276977.38748  20688161.194    20688160.4874   20688165.1214
     -1007.282        -784.895
 97  5 13 17 35 30.0000000  0  7 24  2 27 26  4  9  7                0.000827236
  -2530698.434 8  -1956830.38045  24808590.451    24808591.5334   24808599.4044
      3649.986        2844.145
   2539057.599 9   1980057.84048  21883389.311    21883388.5264   21883393.4644
     -1193.094        -929.684
  17458715.318 9  13602820.94746  23745945.580    23745945.2444   23745951.3204
     -3748.380       -2920.816
    778683.426 9    618795.72647  23777208.722    23777208.7864   23777214.6834
     -2067.512       -1611.048
 -13714319.762 9 -10673488.49247  22679816.121    22679816.5534   22679821.4834
      3151.840        2455.979
 -13044541.343 9 -10152320.96747  22963940.470    22963939.5554   22963944.7794
      2755.542        2147.176
  -6777322.811 9  -5253296.58248  20693944.122    20693943.5834   20693948.2594
     -1018.720        -793.808
 97  5 13 17 36  0.0000000  0  7 24  2 27 26  4  9  7                0.000827052
  -2640212.655 8  -2042166.10145  24787751.278    24787751.8784   24787759.3274
      3651.174        2845.071
   2574961.612 9   2008034.96448  21890221.377    21890220.8324   21890225.8074
     -1200.193        -935.215
  17571271.549 9  13690527.00346  23767363.651    23767364.1234   23767370.2864
     -3755.010       -2925.982
    840841.965 9    667230.91647  23789037.191    23789037.2154   23789043.0654
     -2075.999       -1617.662
 -13808726.802 9 -10747052.40747  22661851.155    22661851.4424   22661856.4624
      3142.278        2448.528
 -13127048.374 9 -10216612.13447  22948239.555    22948238.9534   22948244.1224
      2745.300        2139.195
  -6746581.760 9  -5229342.52548  20699794.034    20699793.4104   20699798.0934
     -1030.152        -802.716
 97  5 13 17 36 30.0000000  0  7 24  2 27 26  4  9  7                0.000826870
  -2749770.758 8  -2127536.01345  24766903.093    24766903.6094   24766911.2564
      3653.261        2846.697
   2611070.760 9   2036171.93748  21897092.927    21897092.1954   21897097.1804
     -1206.496        -940.127
  17684015.997 9  13778379.71846  23788818.436    23788818.7794   23788824.8064
     -3760.544       -2930.294
    903241.931 9    715854.22347  23800911.803    23800911.6054   23800917.4934
     -2083.297       -1623.348
 -13902860.070 9 -10820403.00747  22643938.012    22643938.4754   22643943.4774
      3134.079        2442.139
 -13209257.681 9 -10280671.31547  22932595.527    22932595.0584   22932600.2844
      2736.109        2132.033
  -6715519.876 9  -5205138.46948  20705704.969    20705704.2624   20705708.9714
     -1039.989        -810.381
 97  5 13 17 37  0.0000000  0  7 24  2 27 26  4  9  7                0.000826685
  -2859366.772 8  -2212935.44945  24746047.677    24746048.1884   24746055.7564
      3653.378        2846.788
   2647392.607 9   2064474.65748  21904004.772    21904004.0414   21904009.0564
     -1214.582        -946.428
  17796945.725 9  13866376.83846  23810308.646    23810308.5844   23810314.6354
     -3767.582       -2935.778
    965882.054 9    764664.68147  23812832.050    23812831.6804   23812837.5884
     -2092.403       -1630.444
 -13996731.140 9 -10893549.26147  22626075.092    22626075.4064   22626080.3684
      3124.488        2434.666
 -13291175.071 9 -10344503.03547  22917007.001    22917006.6714   22917011.8344
      2725.400        2123.688
  -6684138.032 9  -5180685.09048  20711676.681    20711676.0034   20711680.7514
     -1051.668        -819.481
 97  5 13 17 37 30.0000000  0  7 24  2 27 26  4  9  7                0.000826509
  -2969002.455 9  -2298365.80545  24725184.276    24725184.9754   24725192.5854
      3655.409        2848.371
   2683927.356 9   2092943.27948  21910956.888    21910956.3874   21910961.4394
     -1221.221        -951.601
  17910050.448 9  13954510.31946  23831832.217    23831831.8564   23831838.0054
     -3772.716       -2939.779
   1028761.409 9    813661.58347  23824797.684    23824797.2244   23824803.1194
     -2099.708       -1636.136
 -14090351.487 9 -10966500.16347  22608259.823    22608260.0564   22608265.0304
      3116.870        2428.730
 -13372803.569 9 -10408109.61447  22901473.120    22901473.1714   22901478.4494
      2716.429        2116.698
  -6652452.919 9  -5155995.40048  20717706.103    20717705.4864   20717710.2614
     -1060.681        -826.505
 97  5 13 17 38  0.0000000  0  7 24  2 27 26  4  9  7                0.000826348
  -3078669.695 8  -2383820.79145  24704314.982    24704316.1144   24704323.5624
      3655.739        2848.628
   2720690.977 9   2121590.23448  21917952.732    21917952.2354   21917957.3234
     -1229.321        -957.912
  18023335.034 9  14042783.91146  23853389.798    23853389.0174   23853395.2424
     -3779.397       -2944.985
   1091899.215 9    862859.87747  23836812.542    23836812.0824   23836818.0114
     -2109.287       -1643.600
 -14183716.950 9 -11039252.44347  22590493.025    22590493.1564   22590498.2014
      3107.695        2421.581
 -13454138.221 9 -10471487.23747  22885995.757    22885995.6824   22886000.9864
      2706.121        2108.666
  -6620462.043 9  -5131067.45548  20723793.751    20723793.1634   20723797.9814
     -1072.022        -835.342
 97  5 13 17 38 30.0000000  0  7 24  2 27 26  4  9  7                0.000826163
  -3188374.495 8  -2469305.03645  24683438.240    24683439.9574   24683447.3854
      3656.257        2849.031
   2757661.420 9   2150398.34848  21924987.986    21924987.4764   21924992.6014
     -1236.893        -963.813
  18136789.248 8  14131189.70146  23874979.725    23874978.6874   23874985.1584
     -3785.470       -2949.717
   1155305.393 9    912267.28747  23848878.301    23848877.8144   23848883.8094
     -2119.000       -1651.169
 -14276832.800 9 -11111810.22747  22572773.758    22572773.7634   22572778.8434
      3098.644        2414.528
 -13535193.036 9 -10534646.81847  22870571.566    22870571.5514   22870576.7194
      2696.153        2100.898
  -6588150.086 9  -5105889.30948  20729942.597    20729941.9524   20729946.7864
     -1083.511        -844.294
 97  5 13 17 39  0.0000000  0  7 24  2 27 26  4  9  7                0.000825969
  -3298081.518 9  -2554791.01345  24662562.125    24662563.3094   24662570.9524
      3657.053        2849.652
   2794866.138 9   2179389.00848  21932067.777    21932067.3294   21932072.4454
     -1243.846        -969.231
  18250416.819 9  14219730.60246  23896601.871    23896601.3174   23896607.5724
     -3790.090       -2953.317
   1218997.506 9    961897.49747  23860998.446    23860998.0614   23861003.9684
     -2127.409       -1657.721
 -14369673.440 9 -11184153.56047  22555106.742    22555106.7314   22555111.8334
      3090.170        2407.925
 -13615946.559 9 -10597571.60647  22855204.789    22855204.6244   22855209.9024
      2687.031        2093.790
  -6555496.837 9  -5080445.22648  20736156.168    20736155.6684   20736160.5014
     -1093.649        -852.194
 97  5 13 17 39 30.0000000  0  7 24  2 27 26  4  9  7                0.000825773
  -3407796.545 8  -2640283.20045  24641684.775    24641685.1634   24641692.7814
      3657.004        2849.613
   2832305.686 9   2208562.65248  21939192.299    21939191.8524   21939196.9724
     -1252.276        -975.799
  18364217.618 9  14308406.44146  23918257.150    23918257.0054   23918263.4254
     -3796.683       -2958.454
   1282962.451 9   1011740.27247  23873170.518    23873170.2694   23873176.1634
     -2136.969       -1665.171
 -14462225.898 9 -11256272.33847  22537494.764    22537494.5764   22537499.6874
      3079.868        2399.897
 -13696402.678 9 -10660264.65448  22839894.659    22839894.3454   22839899.6044
      2676.648        2085.700
  -6522522.218 9  -5054750.71948  20742431.083    20742430.5694   20742435.4194
     -1104.804        -860.886
 97  5 13 17 40  0.0000000  0  7 24  2 27 26  4  9  7                0.000825566
  -3517525.163 8  -2725785.96845  24620804.530    24620804.5614   24620812.3464
      3658.385        2850.690
   2869982.888 9   2237921.47448  21946362.054    21946361.6154   21946366.7384
     -1259.268        -981.248
  18478191.870 9  14397217.43346  23939944.935    23939945.5954   23939952.0154
     -3801.373       -2962.109
   1347197.435 9   1061793.47847  23885393.825    23885393.7584   23885399.6214
     -2144.953       -1671.392
 -14554479.857 9 -11328158.49547  22519939.196    22519939.2084   22519944.3624
      3070.655        2392.718
 -13776563.560 9 -10722727.65148  22824640.669    22824640.2464   22824645.5374
      2667.659        2078.695
  -6489223.641 9  -5028803.78048  20748767.560    20748767.1254   20748771.9744
     -1114.691        -868.590
 97  5 13 17 40 30.0000000  0  7 24  2 27 26  4  9  7                0.000825353
  -3627284.714 9  -2811312.87046  24599917.426    24599917.6964   24599925.8084
      3659.246        2851.361
   2907888.723 9   2267458.46448  21953575.543    21953574.8514   21953579.9974
     -1267.216        -987.441
  18592308.216 8  14486139.17346  23961661.247    23961661.4494   23961667.8404
     -3805.710       -2965.488
   1411676.336 9   1112036.76147  23897664.092    23897663.7264   23897669.5014
     -2153.010       -1677.670
 -14646444.677 9 -11399819.35947  22502438.524    22502438.9354   22502444.0904
      3060.902        2385.118
 -13856439.398 9 -10784968.53548  22809440.731    22809440.3514   22809445.6454
      2657.914        2071.102
  -6455634.622 9  -5002630.52048  20755159.368    20755158.9394   20755163.7824
     -1123.954        -875.808
 97  5 13 17 41  0.0000000  0  7 24  2 27 26  4  9  7                0.000825154
  -3737062.932 8  -2896854.30946  24579027.898    24579027.6194   24579035.8334
      3659.739        2851.745
   2946034.138 9   2297182.13748  21960834.404    21960833.6724   21960838.8664
     -1275.214        -993.673
  18706558.907 9  14575165.62846  23983403.121    23983402.6264   23983409.0374
     -3810.622       -2969.316
   1476401.536 9   1162471.94847  23909980.969    23909980.5124   23909986.2634
     -2161.531       -1684.310
 -14738108.846 9 -11471245.94647  22484995.667    22484995.8464   22485000.9374
      3050.442        2376.968
 -13936009.640 9 -10846971.28447  22794298.982    22794298.5454   22794303.8794
      2647.213        2062.763
  -6421767.297 9  -4976240.39848  20761604.120    20761603.6724   20761608.5194
     -1133.551        -883.286
 97  5 13 17 41 30.0000000  0  7 24  2 27 26  4  9  7                0.000824949
  -3846875.209 8  -2982422.30246  24558131.689    24558131.0184   24558139.1394
      3661.471        2853.094
   2984399.410 9   2327077.12448  21968134.992    21968134.3334   21968139.5654
     -1281.935        -998.910
  18820941.789 9  14664295.01146  24005169.450    24005168.8914   24005175.4794
     -3814.307       -2972.187
   1541370.523 9   1213097.09047  23922343.702    23922343.6884   23922349.5634
     -2169.089       -1690.199
 -14829476.671 9 -11542441.61447  22467609.220    22467609.1364   22467614.2064
      3041.357        2369.889
 -14015268.558 9 -10908731.44548  22779216.701    22779216.0714   22779221.4334
      2637.168        2054.936
  -6387613.908 9  -4949627.37148  20768103.527    20768102.8434   20768107.7104
     -1142.860        -890.540
 97  5 13 17 42  0.0000000  0  7 24  2 27 26  4  9  7                0.000824738
  -3956710.908 8  -3068008.51346  24537231.341    24537230.0984   24537237.9914
      3661.482        2853.103
   3022987.732 9   2357145.92448  21975478.115    21975477.4844   21975482.7094
     -1289.839       -1005.069
  18935440.835 9  14753515.00246  24026958.338    24026957.5644   24026963.9154
     -3818.214       -2975.232
   1606579.684 9   1263909.43047  23934752.463    23934752.6504   23934758.3694
     -2177.283       -1696.584
 -14920556.576 9 -11613412.93147  22450277.283    22450277.2294   22450282.2924
      3031.507        2362.213
 -14094205.498 9 -10970240.73247  22764195.669    22764194.8434   22764200.0714
      2626.046        2046.270
  -6353161.729 9  -4922781.51848  20774659.512    20774658.8244   20774663.7034
     -1153.097        -898.517
 97  5 13 17 42 30.0000000  0  7 24  2 27 26  4  9  7                0.000824525
  -4066550.702 8  -3153597.88845  24516328.641    24516328.2864   24516336.2514
      3661.091        2852.798
   3061805.684 9   2387393.65148  21982865.118    21982864.3704   21982869.5544
     -1297.707       -1011.200
  19050054.924 9  14842824.52846  24048768.646    24048767.9564   24048774.7504
     -3822.535       -2978.599
   1672024.435 9   1314905.32047  23947206.746    23947206.4074   23947212.1754
     -2185.403       -1702.911
 -15011351.033 9 -11684161.82547  22432999.690    22432999.5744   22433004.6714
      3021.574        2354.473
 -14172815.065 9 -11031494.90647  22749236.954    22749235.9894   22749241.2264
      2614.756        2037.472
  -6318408.645 9  -4895701.19248  20781272.647    20781272.1194   20781276.9894
     -1163.670        -906.756
 97  5 13 17 43  0.0000000  0  7 24  2 27 26  4  9  7                0.000824292
  -4176386.322 8  -3239183.98845  24495427.513    24495427.2314   24495435.3784
      3660.610        2852.423
   3100832.532 9   2417804.14848  21990291.792    21990291.0074   21990296.1824
     -1304.742       -1016.682
  19164786.677 8  14932225.86346  24070600.885    24070600.5964   24070607.2884
     -3826.976       -2982.059
   1737690.511 9   1366073.64647  23959702.797    23959702.3914   23959708.1384
     -2192.743       -1708.631
 -15101866.529 9 -11754693.33647  22415774.945    22415774.9784   22415780.0854
      3012.040        2347.044
 -14251101.583 9 -11092497.37048  22734339.504    22734338.5714   22734343.6544
      2603.831        2028.959
  -6283345.498 9  -4868379.26248  20787945.070    20787944.4144   20787949.2374
     -1174.469        -915.171
 97  5 13 17 43 30.0000000  0  7 24  2 27 26  4  9  7                0.000824030
  -4286207.410 8  -3324758.80246  24474529.205    24474528.8474   24474537.0184
      3660.310        2852.190
   3140078.232 9   2448385.18948  21997759.706    21997759.2304   21997764.4474
     -1312.093       -1022.410
  19279657.282 9  15021735.32746  24092459.986    24092459.9504   24092466.5974
     -3831.552       -2985.625
   1803570.494 9   1417408.66947  23972239.448    23972238.9274   23972244.7984
     -2199.559       -1713.942
 -15192089.480 9 -11824996.88447  22398606.121    22398606.0264   22398611.1974
      3002.357        2339.499
 -14329073.227 9 -11153254.46247  22719501.864    22719501.0234   22719506.1624
      2593.848        2021.180
  -6247954.789 9  -4840802.08648  20794679.857    20794679.0644   20794683.8404
     -1185.184        -923.520
 97  5 13 17 44  0.0000000  0  8 24  2 27 26  4  9  7  5             0.000823752
  -4395998.669 8  -3410310.36546  24453635.995    24453636.1584   24453644.3344
      3659.344        2851.437
   3179562.128 9   2479151.83748  22005273.399    22005272.7954   22005278.0284
     -1319.860       -1028.462
  19394680.075 9  15111363.33846  24114348.252    24114348.0504   24114354.8964
     -3836.429       -2989.425
   1869666.991 9   1468912.42347  23984817.073    23984816.7204   23984822.5104
     -2206.827       -1719.605
 -15281997.037 9 -11895054.67547  22381497.282    22381497.0994   22381502.3254
      2991.723        2331.213
 -14406730.530 9 -11213766.62448  22704723.811    22704723.3544   22704728.4564
      2583.509        2013.124
  -6212235.455 9  -4812968.84248  20801477.144    20801476.2724   20801480.9514
     -1195.737        -931.743
   -436182.72719   -330371.72655  25440904.004    25440903.0015   25440910.6105
      2787.359        2171.968
 97  5 13 17 44 30.0000000  0  8 24  2 27 26  4  9  7  5             0.000823449
  -4505780.650 8  -3495854.67846  24432745.047    24432745.3404   24432753.4624
      3659.050        2851.208
   3219256.797 9   2510082.72348  22012827.221    22012826.5124   22012831.7564
     -1326.715       -1033.804
  19509845.683 8  15201102.73946  24136263.645    24136263.5094   24136270.2104
     -3841.557       -2993.421
   1935971.167 9   1520577.99847  23997434.292    23997433.8894   23997439.8564
     -2213.868       -1725.092
 -15371595.782 9 -11964871.83647  22364446.993    22364446.9494   22364452.1504
      2981.046        2322.893
 -14484088.342 9 -11274045.42147  22690002.874    22690002.6164   22690007.6344
      2573.205        2005.095
  -6176219.523 9  -4784904.48548  20808330.728    20808329.9074   20808334.5394
     -1205.600        -939.429
   -519826.234 9   -395548.43145  25424987.141    25424986.2794   25424994.2634
      2788.622        2172.952
 97  5 13 17 45  0.0000000  0  8 24  2 27 26  4  9  7  5             0.000823124
  -4615555.902 9  -3581393.76546  24411854.988    24411855.6424   24411863.6624
      3659.197        2851.322
   3259152.473 9   2541170.23048  22020419.056    22020418.4734   22020423.6904
     -1333.224       -1038.876
  19625158.918 9  15290957.17946  24158206.538    24158207.0484   24158213.4354
     -3846.022       -2996.900
   2002479.924 9   1572402.96747  24010090.148    24010089.9634   24010096.0444
     -2220.335       -1730.131
 -15460873.982 9 -12034439.22847  22347457.902    22347457.8194   22347463.0454
      2970.710        2314.839
 -14561136.128 9 -11334082.62848  22675341.199    22675340.8874   22675345.9654
      2563.149        1997.259
  -6139922.792 9  -4756621.32048  20815237.688    20815236.8964   20815241.5534
     -1214.279        -946.191
   -603524.581 9   -460767.87645  25409059.928    25409058.8784   25409067.0244
      2791.157        2174.928
 97  5 13 17 45 30.0000000  0  8 24  2 27 26  4  9  7  5             0.000822806
  -4725318.127 8  -3666922.70046  24390967.657    24390968.6384   24390976.5814
      3659.394        2851.476
   3299278.452 9   2572437.20148  22028054.940    22028054.2454   22028059.4484
     -1340.461       -1044.515
  19740627.473 9  15380932.50646  24180179.534    24180179.9594   24180186.9194
     -3850.383       -3000.298
   2069220.627 9   1624408.71247  24022790.387    24022790.3844   24022796.3324
     -2227.707       -1735.876
 -15549811.968 9 -12103741.51447  22330533.733    22330533.4064   22330538.6934
      2960.016        2306.506
 -14637850.000 9 -11393859.64948  22660743.066    22660742.6764   22660747.7394
      2552.306        1988.810
  -6103342.697 9  -4728117.35348  20822198.622    20822197.8164   20822202.5404
     -1222.997        -952.985
   -687265.295 9   -526020.32245  25393124.374    25393123.4674   25393131.7394
      2792.811        2176.216
 97  5 13 17 46  0.0000000  0  8 24  2 27 26  4  9  7  5             0.000822501
  -4835087.439 9  -3752457.13846  24370079.664    24370080.2134   24370088.1894
      3658.903        2851.093
   3339617.237 9   2603869.99048  22035731.318    22035730.4774   22035735.6844
     -1348.209       -1050.552
  19856215.455 8  15471001.04446  24202175.571    24202175.6214   24202182.3484
     -3854.986       -3003.885
   2136183.641 9   1676587.65647  24035533.212    24035532.9744   24035539.1424
     -2236.010       -1742.345
 -15638442.246 9 -12172804.02147  22313667.666    22313667.5674   22313672.9284
      2949.212        2298.087
 -14714230.432 9 -11453376.86147  22646208.362    22646208.0204   22646213.0004
      2540.335        1979.482
  -6066512.188 9  -4699418.25748  20829207.318    20829206.3944   20829211.1954
     -1231.844        -959.878
   -771049.076 8   -591306.29345  25377180.877    25377179.8584   25377188.2224
      2793.392        2176.669
 97  5 13 17 46 30.0000000  0  8 24  2 27 26  4  9  7  5             0.000822222
  -4944858.388 8  -3837992.90446  24349190.920    24349191.5084   24349199.3514
      3658.823        2851.031
   3380179.911 9   2635477.24648  22043450.210    22043449.3184   22043454.5484
     -1356.037       -1056.652
  19971937.995 9  15561174.34646  24224196.883    24224196.9584   24224203.8244
     -3859.754       -3007.601
   2203379.767 9   1728948.22447  24048319.921    24048319.9714   24048326.1534
     -2243.473       -1748.161
 -15726761.432 9 -12241624.12047  22296861.177    22296861.0004   22296866.3494
      2938.666        2289.870
 -14790264.820 9 -11512624.40848  22631739.655    22631739.1934   22631744.2404
      2528.632        1970.363
  -6029425.616 9  -4670519.63148  20836264.480    20836263.6994   20836268.5674
     -1240.773        -966.836
   -854866.426 8   -656618.44245  25361230.788    25361229.8584   25361238.0724
      2794.461        2177.502
 97  5 13 17 47  0.0000000  0  8 24  2 27 26  4  9  7  5             0.000821967
  -5054621.230 9  -3923522.33346  24328304.939    24328304.4474   24328312.0944
      3658.661        2850.905
   3420981.298 9   2667270.50348  22051214.413    22051213.6044   22051218.8414
     -1364.004       -1062.860
  20087792.028 8  15651450.08645  24246243.654    24246243.0604   24246250.4374
     -3863.779       -3010.737
   2270793.810 9   1781478.57347  24061148.565    24061148.5024   24061154.6134
     -2250.678       -1753.775
 -15814768.428 9 -12310200.95047  22280114.405    22280113.8134   22280119.1934
      2928.543        2281.982
 -14865956.092 9 -11571604.60048  22617336.093    22617335.5584   22617340.5154
      2517.555        1961.731
  -5992069.072 9  -4641410.64248  20843373.204    20843372.4484   20843377.3254
     -1249.868        -973.923
   -938724.252 8   -721962.15345  25345272.887    25345271.9204   25345280.4164
      2795.985        2178.690
 97  5 13 17 47 30.0000000  0  8 24  2 27 26  4  9  7  5             0.000821713
  -5164380.953 9  -4009049.33346  24307419.051    24307417.9744   24307425.3664
      3658.296        2850.620
   3462021.414 9   2699249.79248  22059024.011    22059023.2884   22059028.5434
     -1372.209       -1069.254
  20203766.672 9  15741819.94246  24268312.901    24268312.5284   24268319.5554
     -3868.032       -3014.051
   2338416.652 9   1834171.67447  24074016.778    24074016.7264   24074022.7584
     -2257.516       -1759.103
 -15902466.625 9 -12378537.15947  22263425.740    22263425.3354   22263430.7434
      2917.738        2273.562
 -14941317.922 9 -11630328.07348  22602995.431    22602994.6104   22602999.6624
      2506.365        1953.012
  -5954424.726 9  -4612077.38548  20850536.590    20850535.9474   20850540.7824
     -1260.025        -981.838
  -1022619.275 9   -787334.84545  25329308.014    25329307.1624   25329315.4974
      2796.791        2179.318
 97  5 13 17 48  0.0000000  0  8 24  2 27 26  4  9  7  5             0.000821447
  -5274124.881 9  -4094564.05346  24286535.344    24286534.4734   24286541.7244
      3657.983        2850.376
   3503306.487 9   2731419.94548  22066880.333    22066879.5714   22066884.8334
     -1379.938       -1075.276
  20319868.602 8  15832288.86145  24290406.548    24290405.8784   24290413.2594
     -3871.892       -3017.059
   2406236.641 9   1887018.38147  24086922.324    24086922.4684   24086928.8034
     -2263.628       -1763.866
 -15989830.761 9 -12446613.05747  22246800.759    22246800.4854   22246805.8864
      2906.522        2264.822
 -15016341.093 9 -11688787.65248  22588718.666    22588718.1214   22588723.2054
      2495.293        1944.384
  -5916475.933 9  -4582506.90648  20857758.114    20857757.3774   20857762.1674
     -1269.722        -989.394
  -1106542.937 9   -852729.80045  25313337.977    25313336.9584   25313345.0174
      2798.326        2180.514
 97  5 13 17 48 30.0000000  0  8 24  2 27 26  4  9  7  5             0.000821161
  -5383848.997 9  -4180063.31946  24265656.079    24265654.6384   24265661.8614
      3656.668        2849.352
   3544830.507 9   2763776.30548  22074781.946    22074781.3054   22074786.6164
     -1388.185       -1081.703
  20436084.054 9  15922846.30646  24312521.682    24312521.2994   24312528.2984
     -3875.701       -3020.027
   2474236.527 9   1940005.30547  24099862.813    24099862.3954   24099868.7424
     -2269.715       -1768.609
 -16076844.967 9 -12514416.28447  22230242.204    22230242.2274   22230247.5294
      2894.474        2255.434
 -15091024.495 9 -11746982.49848  22574506.643    22574506.3414   22574511.3174
      2483.535        1935.222
  -5878232.270 9  -4552706.65648  20865035.599    20865034.9484   20865039.6824
     -1279.817        -997.260
  -1190519.322 8   -918165.84345  25297357.601    25297356.8434   25297364.9434
      2800.108        2181.902
 97  5 13 17 49  0.0000000  0  8 24  2 27 26  4  9  7  5             0.000820840
  -5493539.833 9  -4265536.66446  24244782.947    24244781.2044   24244788.3664
      3655.592        2848.513
   3586583.359 9   2796310.96448  22082727.164    22082726.6334   22082731.9084
     -1395.693       -1087.553
  20552389.722 8  16013474.05145  24334653.599    24334653.5354   24334660.4034
     -3878.600       -3022.286
   2542420.010 9   1993135.29047  24112837.573    24112837.3024   24112843.6514
     -2276.173       -1773.641
 -16163499.037 9 -12581938.87947  22213752.540    22213752.5094   22213757.6694
      2882.188        2245.861
 -15165362.162 9 -11804907.92048  22560360.713    22560360.3424   22560365.3844
      2471.878        1926.139
  -5839701.661 9  -4522682.81948  20872367.751    20872367.1224   20872371.8154
     -1289.338       -1004.679
  -1274562.042 8   -983653.56445  25281364.687    25281363.9324   25281372.1154
      2802.252        2183.573
 97  5 13 17 49 30.0000000  0  8 24  2 27 26  4  9  7  5             0.000820482
  -5603204.161 9  -4350989.35346  24223914.044    24223912.7814   24223919.9734
      3655.206        2848.212
   3628556.092 9   2829016.96548  22090714.451    22090713.8614   22090719.1004
     -1402.554       -1092.899
  20668784.122 8  16104170.85546  24356802.038    24356802.7864   24356809.8964
     -3880.985       -3024.144
   2610793.021 9   2046412.95447  24125848.385    24125848.1854   24125854.5464
     -2281.923       -1778.122
 -16249786.640 9 -12649175.92147  22197332.658    22197332.5054   22197337.6144
      2870.477        2236.735
 -15239346.142 9 -11862557.75148  22546282.233    22546281.6344   22546286.5834
      2460.333        1917.143
  -5800892.942 9  -4492442.26848  20879752.811    20879752.1484   20879756.8504
     -1297.698       -1011.193
  -1358671.290 9  -1049193.19145  25265359.078    25265358.1314   25265366.7054
      2804.976        2185.696
 97  5 13 17 50  0.0000000  0  8 24  2 27 26  4  9  7  5             0.000820113
  -5712835.739 9  -4436416.55046  24203050.125    24203050.5574   24203057.6744
      3653.645        2846.996
   3670750.480 9   2861895.68448  22098744.105    22098743.2734   22098748.5244
     -1409.969       -1098.677
  20785263.332 8  16194933.84345  24378967.894    24378968.1624   24378975.0044
     -3884.020       -3026.509
   2679358.936 9   2099840.94347  24138896.121    24138895.8774   24138902.1844
     -2288.792       -1783.474
 -16335714.800 9 -12716132.87447  22180981.079    22180980.9014   22180985.9604
      2858.481        2227.388
 -15312961.241 9 -11919920.13748  22532273.735    22532273.0924   22532278.0794
      2447.780        1907.361
  -5761826.894 9  -4462001.20748  20887186.870    20887186.1584   20887190.8554
     -1306.362       -1017.944
  -1442848.347 9  -1114785.73245  25249341.020    25249340.0974   25249347.8854
      2807.096        2187.348
 97  5 13 17 50 30.0000000  0  8 24  2 27 26  4  9  7  5             0.000819731
  -5822424.440 9  -4521810.32746  24182196.861    24182196.5104   24182203.5564
      3651.968        2845.689
   3713156.201 9   2894939.09248  22106813.637    22106812.8904   22106818.0934
     -1417.128       -1104.255
  20901829.071 8  16285764.21846  24401149.009    24401149.6954   24401156.5034
     -3887.207       -3028.992
   2748120.651 9   2153421.50147  24151980.666    24151980.8634   24151987.0834
     -2295.498       -1788.700
 -16421300.411 9 -12782822.93048  22164694.783    22164694.4934   22164699.5194
      2847.063        2218.491
 -15386219.598 9 -11977004.53848  22518332.990    22518332.4734   22518337.4994
      2436.062        1898.230
  -5722509.695 9  -4431364.44448  20894668.773    20894667.9844   20894672.6574
     -1315.090       -1024.745
  -1527094.879 8  -1180432.26445  25233309.587    25233308.7044   25233316.4584
      2808.988        2188.822
 97  5 13 17 51  0.0000000  0  8 24  2 27 26  4  9  7  5             0.000819331
  -5931965.413 9  -4607166.89046  24161351.621    24161351.5244   24161358.7094
      3650.690        2844.694
   3755769.177 9   2928143.98648  22114922.615    22114921.8934   22114927.1494
     -1423.891       -1109.525
  21018496.502 8  16376673.80546  24423350.699    24423351.0354   24423358.0624
     -3890.795       -3031.788
   2817083.118 9   2207158.48247  24165104.078    24165104.0194   24165110.2424
     -2301.770       -1793.587
 -16506547.044 9 -12849248.83447  22148472.488    22148472.5144   22148477.5634
      2836.093        2209.943
 -15459129.900 9 -12033817.73848  22504458.533    22504458.1124   22504463.1084
      2424.525        1889.240
  -5682918.979 9  -4400514.54548  20902202.637    20902201.8854   20902206.5544
     -1324.297       -1031.920
  -1611383.781 9  -1246111.79245  25217269.759    25217268.8164   25217277.2924
      2810.261        2189.814
 97  5 13 17 51 30.0000000  0  8 24  2 27 26  4  9  7  5             0.000818919
  -6041472.792 9  -4692497.27046  24140513.122    24140512.8824   24140520.2314
      3648.809        2843.228
   3798580.581 9   2961503.50748  22123069.264    22123068.6744   22123073.8784
     -1431.057       -1115.109
  21135261.587 9  16467659.49345  24445570.989    24445570.5974   24445577.1394
     -3894.315       -3034.531
   2886210.512 9   2261023.98547  24178258.550    24178258.5154   24178264.7354
     -2307.644       -1798.164
 -16591486.663 9 -12915435.51148  22132308.875    22132309.0064   22132314.0904
      2825.593        2201.761
 -15531701.372 9 -12090366.92048  22490648.667    22490648.2164   22490653.1854
      2412.712        1880.035
  -5643065.344 9  -4369459.77748  20909786.494    20909785.8334   20909790.4844
     -1333.433       -1039.039
  -1695719.312 9  -1311827.68945  25201221.415    25201220.3474   25201228.8524
      2811.151        2190.507
 97  5 13 17 52  0.0000000  0  8 24  2 27 26  4  9  7  5             0.000818504
  -6150920.093 9  -4777780.84446  24119685.980    24119685.5924   24119693.0854
      3647.321        2842.068
   3841602.755 9   2995027.25548  22131256.155    22131255.5224   22131260.7414
     -1437.315       -1119.986
  21252125.856 8  16558722.57346  24467810.412    24467809.6104   24467816.0234
     -3896.975       -3036.604
   2955515.368 9   2315027.78547  24191446.943    24191446.9404   24191452.9704
     -2312.832       -1802.207
 -16676107.498 9 -12981373.79248  22116205.754    22116206.2134   22116211.3244
      2815.386        2193.807
 -15603918.631 9 -12146640.08148  22476906.118    22476905.7414   22476910.7784
      2401.660        1871.423
  -5602934.219 9  -4338188.78848  20917423.236    20917422.5884   20917427.2144
     -1342.150       -1045.831
  -1780081.428 9  -1377564.46845  25185167.781    25185167.1614   25185174.5424
      2812.897        2191.868
 97  5 13 17 52 30.0000000  0  8 24  2 27 26  4  9  7  5             0.000818076
  -6260297.440 9  -4863009.90146  24098872.623    24098871.8154   24098879.3694
      3645.134        2840.364
   3884846.874 9   3028723.95048  22139485.095    22139484.6214   22139489.8434
     -1444.844       -1125.852
  21369097.480 8  16649869.12446  24490069.016    24490068.3384   24490075.2094
     -3900.323       -3039.213
   3024993.180 9   2369166.32547  24204668.263    24204668.2254   24204674.3054
     -2318.178       -1806.372
 -16760387.524 9 -13047046.50348  22100168.035    22100168.3184   22100173.4214
      2803.939        2184.888
 -15675782.373 9 -12202637.77448  22463231.016    22463230.4914   22463235.5344
      2389.845        1862.217
  -5562518.025 9  -4306695.66248  20925114.284    20925113.5574   20925118.1794
     -1351.438       -1053.069
  -1864466.927 8  -1443319.38945  25169109.568    25169108.8664   25169116.5394
      2813.695        2192.490
 97  5 13 17 53  0.0000000  0  8 24  2 27 26  4  9  7  5             0.000817644
  -6369628.128 9  -4948202.60446  24078066.597    24078066.7894   24078074.3404
      3643.141        2838.811
   3928310.388 9   3062591.59848  22147756.225    22147755.4924   22147760.7374
     -1453.182       -1132.350
  21486158.082 8  16741085.17845  24512344.861    24512344.4384   24512351.0254
     -3903.972       -3042.056
   3094614.222 9   2423416.47646  24217917.037    24217916.6764   24217922.6834
     -2323.455       -1810.484
 -16844334.681 9 -13112459.83348  22084193.664    22084193.7274   22084198.8044
      2792.131        2175.686
 -15747292.499 9 -12258359.93148  22449623.307    22449622.5514   22449627.5734
      2377.091        1852.279
  -5521843.110 9  -4275000.93348  20932854.540    20932853.7404   20932858.3804
     -1360.344       -1060.008
  -1948909.043 9  -1509118.27046  25153040.410    25153039.8124   25153048.1834
      2815.421        2193.834
 97  5 13 17 53 30.0000000  0  8 24  2 27 26  4  9  7  5             0.000817251
  -6478879.311 9  -5033333.32446  24057277.206    24057276.8824   24057284.5214
      3640.776        2836.968
   3972051.755 9   3096675.75848  22156079.842    22156079.2244   22156084.4644
     -1462.292       -1139.448
  21603336.027 8  16832392.55845  24534643.480    24534642.4604   24534649.3724
     -3907.359       -3044.695
   3164412.019 9   2477804.37346  24231199.020    24231198.7224   24231204.6124
     -2329.269       -1815.015
 -16927901.863 9 -13177577.07848  22068291.513    22068291.4634   22068296.5404
      2779.396        2165.763
 -15818402.697 9 -12313770.44348  22436091.216    22436090.6664   22436095.7684
      2364.225        1842.253
  -5480893.959 9  -4243092.51348  20940646.763    20940646.0854   20940650.7464
     -1369.126       -1066.851
  -2033380.398 9  -1574940.01346  25136966.182    25136965.5974   25136973.9104
      2816.406        2194.602
 97  5 13 17 54  0.0000000  0  8 24  2 27 26  4  9  7  5             0.000816875
  -6588067.105 9  -5118414.67046  24036499.145    24036499.0754   24036506.7124
      3639.021        2835.601
   4016067.839 9   3130973.98148  22164455.917    22164455.2064   22164460.4434
     -1471.482       -1146.609
  21720619.080 8  16923781.89845  24556961.532    24556960.9104   24556967.5714
     -3910.981       -3047.518
   3234382.833 9   2532327.08146  24244513.891    24244513.6304   24244519.6994
     -2334.664       -1819.219
 -17011079.674 9 -13242390.92148  22052463.221    22052463.2354   22052468.2884
      2766.486        2155.703
 -15889130.764 9 -12368883.20248  22422631.943    22422631.5804   22422636.6174
      2351.852        1832.612
  -5439681.255 9  -4210978.73348  20948489.459    20948488.6214   20948493.2624
     -1377.644       -1073.489
  -2117885.307 9  -1640787.98146  25120885.640    25120885.1164   25120893.1734
      2818.013        2195.854
 97  5 13 17 54 30.0000000  0  8 24  2 27 26  4  9  7  5             0.000816531
  -6697192.031 9  -5203447.03246  24015732.814    24015733.2654   24015740.8614
      3636.694        2833.787
   4060381.344 9   3165503.96448  22172888.736    22172887.8654   22172893.0314
     -1481.577       -1154.476
  21838031.741 8  17015272.21945  24579303.640    24579303.7714   24579310.7594
     -3915.402       -3050.963
   3304530.723 9   2586987.76846  24257862.682    24257862.2324   24257868.3664
     -2340.984       -1824.143
 -17093858.044 9 -13306893.51648  22036710.942    22036711.0094   22036716.0494
      2753.038        2145.224
 -15959481.204 9 -12423701.70748  22409244.757    22409244.3544   22409249.3354
      2338.938        1822.549
  -5398200.229 9  -4178655.86848  20956382.881    20956382.2214   20956386.8404
     -1386.845       -1080.658
  -2202419.758 8  -1706658.89845  25104799.206    25104798.5064   25104806.3734
      2818.480        2196.218
 97  5 13 17 55  0.0000000  0  8 24  2 27 26  4  9  7  5             0.000816210
  -6806277.556 9  -5288448.70446  23994974.396    23994974.9824   23994982.5264
      3634.760        2832.281
   4104962.797 9   3200242.73448  22181372.212    22181371.4184   22181376.6304
     -1491.156       -1161.940
  21955545.966 8  17106841.66945  24601666.129    24601665.9914   24601672.7624
     -3919.391       -3054.071
   3374855.807 9   2641786.53046  24271244.882    24271244.5554   24271250.7694
     -2348.091       -1829.681
 -17176267.459 9 -13371108.61048  22021028.774    22021028.9454   22021034.0004
      2740.240        2135.252
 -16029469.904 9 -12478238.34448  22395926.695    22395926.0214   22395930.9654
      2326.242        1812.656
  -5356468.996 9  -4146138.03648  20964324.098    20964323.4424   20964328.0214
     -1396.039       -1087.822
  -2286996.388 9  -1772562.73245  25088704.454    25088703.7984   25088711.6984
      2818.967        2196.598
 97  5 13 17 55 30.0000000  0  8 24  2 27 26  4  9  7  5             0.000815902
  -6915315.077 9  -5373412.96146  23974225.494    23974225.8594   23974233.2854
      3633.496        2831.296
   4149801.002 9   3235181.57548  22189904.925    22189903.8594   22189909.0854
     -1498.641       -1167.772
  22073149.411 8  17198480.63845  24624045.674    24624045.3374   24624052.2404
     -3921.608       -3055.798
   3445374.994 9   2696736.53846  24284664.724    24284663.9114   24284670.1344
     -2353.819       -1834.145
 -17258315.721 9 -13435042.28748  22005415.601    22005415.6524   22005420.7304
      2728.913        2126.426
 -16099100.080 9 -12532495.60848  22382676.404    22382675.8754   22382680.7764
      2315.051        1803.936
  -5314477.771 9  -4113417.61048  20972314.771    20972314.1394   20972318.6534
     -1404.101       -1094.105
  -2371586.825 9  -1838477.27546  25072607.577    25072607.1054   25072614.6204
      2819.744        2197.203
 97  5 13 17 56  0.0000000  0  8 24  2 27 26  4  9  7  5             0.000815593
  -7024287.904 9  -5458326.76346  23953488.802    23953488.9534   23953496.4084
      3631.074        2829.408
   4194877.893 9   3270306.40448  22198482.682    22198481.7494   22198486.9644
     -1506.573       -1173.953
  22190841.389 8  17290188.60045  24646441.813    24646441.4474   24646448.1384
     -3924.642       -3058.163
   3516085.107 9   2751835.31146  24298120.660    24298119.6634   24298125.8854
     -2360.247       -1839.154
 -17340001.581 9 -13498693.57848  21989871.364    21989871.3574   21989876.4124
      2716.593        2116.826
 -16168375.882 9 -12586476.72348  22369493.425    22369493.0414   22369497.9804
      2303.113        1794.634
  -5272223.877 9  -4080492.51248  20980355.583    20980354.8414   20980359.3144
     -1412.973       -1101.018
  -2456189.382 9  -1904401.24446  25056508.372    25056507.7474   25056515.3294
      2820.368        2197.689
 97  5 13 17 56 30.0000000  0  8 24  2 27 26  4  9  7  5             0.000815269
  -7133196.137 9  -5543190.28046  23932764.082    23932764.5064   23932771.8594
      3629.136        2827.898
   4240170.634 9   3305599.41648  22207101.767    22207100.6704   22207105.9244
     -1512.927       -1178.904
  22308601.169 9  17381949.40546  24668850.500    24668850.4824   24668857.2464
     -3925.992       -3059.215
   3586973.837 9   2807073.25946  24311610.337    24311609.3994   24311615.5364
     -2365.545       -1843.282
 -17421328.273 9 -13562064.99048  21974395.425    21974395.3894   21974400.4784
      2705.076        2107.851
 -16237297.097 9 -12640181.54348  22356378.032    22356377.7364   22356382.7134
      2291.463        1785.556
  -5229714.499 9  -4047368.33248  20988444.912    20988444.1084   20988448.5424
     -1420.990       -1107.265
  -2540821.640 9  -1970348.37345  25040403.143    25040402.5024   25040409.9164
      2821.736        2198.755
 97  5 13 17 57  0.0000000  0  8 24  2 27 26  4  9  7  5             0.000814919
  -7242049.297 9  -5628010.83646  23912050.162    23912050.4214   23912057.6344
      3627.093        2826.306
   4285644.804 9   3341033.81748  22215754.993    22215754.0984   22215759.4074
     -1519.325       -1183.890
  22426383.844 8  17473728.07645  24691264.442    24691263.8914   24691270.8274
     -3926.864       -3059.894
   3658000.576 9   2862418.73447  24325126.042    24325125.4544   24325131.5644
     -2369.816       -1846.610
 -17502316.714 9 -13625172.83948  21958983.723    21958983.7834   21958988.8864
      2693.562        2098.879
 -16305874.753 9 -12693618.65648  22343327.910    22343327.8004   22343332.7764
      2279.919        1776.560
  -5186979.676 9  -4014068.48148  20996577.000    20996576.2794   20996580.7024
     -1428.599       -1113.194
  -2625511.663 9  -2036340.55946  25024287.285    25024286.6304   25024293.8254
      2823.701        2200.286
 97  5 13 17 57 30.0000000  0  8 24  2 27 26  4  9  7  5             0.000814550
  -7350811.194 9  -5712760.31446  23891354.024    23891353.7064   23891360.8864
      3624.178        2824.035
   4331338.116 9   3376638.96848  22224450.246    22224449.2094   22224454.5464
     -1526.425       -1189.422
  22544226.309 8  17565553.23645  24713689.256    24713688.7314   24713695.6984
     -3928.788       -3061.393
   3729163.829 9   2917870.60746  24338667.698    24338667.3594   24338673.4994
     -2373.770       -1849.691
 -17582917.777 9 -13687978.83548  21943645.749    21943645.8784   21943651.0224
      2680.278        2088.528
 -16374075.847 9 -12746762.34848  22330349.950    22330349.5674   22330354.4804
      2267.439        1766.836
  -5143989.238 9  -3980569.45648  21004757.903    21004757.1094   21004761.4904
     -1436.928       -1119.684
  -2710239.515 9  -2102362.19446  25008164.218    25008163.6294   25008170.6644
      2825.482        2201.674
 97  5 13 17 58  0.0000000  0  8 24  2 27 26  4  9  7  5             0.000814129
  -7459486.361 9  -5797442.18146  23870673.494    23870673.5144   23870680.6874
      3621.149        2821.675
   4377258.654 9   3412421.18848  22233188.650    22233187.6204   22233192.9484
     -1534.630       -1195.816
  22662133.222 8  17657428.76745  24736125.456    24736125.4064   24736132.1344
     -3931.425       -3063.448
   3800451.981 9   2973419.81047  24352233.254    24352233.1454   24352239.1434
     -2378.393       -1853.293
 -17663108.143 9 -13750464.80648  21928386.095    21928386.1024   21928391.2814
      2666.224        2077.577
 -16441890.245 9 -12799604.71148  22317445.449    22317444.9094   22317449.8454
      2253.805        1756.212
  -5100734.041 9  -3946864.11848  21012989.119    21012988.3094   21012992.6734
     -1446.338       -1127.017
  -2795028.899 9  -2168431.76746  24992029.329    24992028.6374   24992035.7694
      2827.520        2203.262
 97  5 13 17 58 30.0000000  0  8 24  2 27 26  4  9  7  5             0.000813683
  -7568091.352 9  -5882069.37946  23850006.482    23850006.7364   23850013.7314
      3618.906        2819.927
   4423408.236 9   3448381.88948  22241970.829    22241969.6324   22241974.9134
     -1542.087       -1201.626
  22780096.948 8  17749348.35845  24758573.362    24758573.3914   24758580.6414
     -3932.991       -3064.668
   3871856.246 9   3029059.47946  24365821.114    24365820.8984   24365827.0814
     -2381.857       -1855.992
 -17742904.789 9 -13812643.97948  21913201.374    21913201.2734   21913206.4194
      2653.494        2067.658
 -16509308.302 9 -12852138.24648  22304616.365    22304615.7174   22304620.5814
      2240.695        1745.996
  -5057228.873 9  -3912963.99948  21021267.866    21021267.0154   21021271.3994
     -1453.928       -1132.931
  -2879895.039 9  -2234561.12646  24975879.646    24975878.9264   24975886.2354
      2830.156        2205.316
 97  5 13 17 59  0.0000000  0  8 24  2 27 26  4  9  7  5             0.000813245
  -7676605.497 9  -5966625.78946  23829357.362    23829357.2534   23829364.1264
      3615.074        2816.941
   4469811.712 9   3484540.41548  22250801.030    22250799.9504   22250805.2254
     -1551.686       -1209.106
  22898134.427 8  17841325.70345  24781035.778    24781035.1864   24781041.9564
     -3936.518       -3067.417
   3943384.558 9   3084795.79747  24379432.555    24379432.2894   24379438.6034
     -2387.140       -1860.109
 -17822295.308 9 -13874506.68948  21898093.984    21898093.7494   21898098.8364
      2638.830        2056.231
 -16576305.783 9 -12904344.06448  22291866.870    22291866.4914   22291871.2444
      2225.458        1734.123
  -5013481.217 9  -3878874.93048  21029592.767    21029591.9184   21029596.2584
     -1463.055       -1140.043
  -2964819.584 9  -2300736.04446  24959719.323    24959718.2644   24959725.8234
      2831.038        2206.004
 97  5 13 17 59 30.0000000  0  8 24  2 27 26  4  9  7  5             0.000812816
  -7785020.428 9  -6051104.90046  23808726.950    23808726.5384   23808733.4234
      3612.306        2814.784
   4516483.276 9   3520907.83348  22259682.391    22259681.2734   22259686.5124
     -1559.864       -1215.478
  23016259.918 8  17933371.35245  24803514.343    24803513.7734   24803521.2174
     -3938.605       -3069.043
   4015064.684 9   3140650.39146  24393073.006    24393072.5614   24393079.0494
     -2391.778       -1863.723
 -17901255.692 9 -13936034.23048  21883068.284    21883068.0724   21883073.0914
      2625.160        2045.579
 -16642856.431 9 -12956201.68848  22279202.670    22279202.2914   22279207.0974
      2211.245        1723.048
  -4969466.122 9  -3844577.46748  21037968.656    21037967.7224   21037972.0634
     -1471.323       -1146.485
  -3049777.600 9  -2366936.99346  24943552.108    24943551.2244   24943558.9004
      2832.670        2207.275
 97  5 13 18  0  0.0000000  0  8 24  2 27 26  4  9  7  5             0.000812386
  -7893358.048 9  -6135523.75246  23788110.512    23788110.5754   23788117.5684
      3609.749        2812.791
   4563389.885 9   3557458.42148  22268608.575    22268607.3444   22268612.5464
     -1567.401       -1221.351
  23134432.817 8  18025454.12345  24826001.226    24826001.4214   24826008.5424
     -3939.854       -3070.016
   4086879.583 9   3196610.03846  24406738.768    24406738.4584   24406744.9294
     -2396.085       -1867.079
 -17979823.894 9 -13997256.17448  21868117.238    21868117.0114   21868121.9914
      2612.484        2035.702
 -16708994.096 9 -13007737.50948  22266616.980    22266616.6884   22266621.4774
      2197.772        1712.550
  -4925219.026 9  -3810099.22148  21046388.406    21046387.6774   21046392.0224
     -1478.520       -1152.093
  -3134788.373 8  -2433179.13845  24927374.796    24927373.9234   24927381.5874
      2834.362        2208.594
 97  5 13 18  0 30.0000000  0  8 24  2 27 26  4  9  7  5             0.000811911
  -8001606.219 9  -6219872.92146  23767511.666    23767511.5004   23767518.5904
      3606.272        2810.082
   4610529.433 9   3594190.51648  22277578.798    22277577.6964   22277582.9234
     -1575.445       -1227.619
  23252653.299 8  18117573.90645  24848497.981    24848498.1974   24848505.2944
     -3941.674       -3071.434
   4158826.419 9   3252672.48446  24420429.687    24420429.4664   24420436.0574
     -2400.650       -1870.636
 -18057993.907 9 -14058167.84248  21853241.862    21853241.7554   21853246.7124
      2598.473        2024.784
 -16774726.065 9 -13058957.20748  22254108.775    22254108.2394   22254113.0084
      2183.982        1701.804
  -4880757.690 9  -3775454.03648  21054849.279    21054848.4314   21054852.7644
     -1486.055       -1157.965
  -3219828.178 9  -2499443.84046  24911192.483    24911191.3844   24911199.0894
      2834.674        2208.837
 97  5 13 18  1  0.0000000  0  8 24  2 27 26  4  9  7  5             0.000811431
  -8109758.995 9  -6304147.76946  23746931.237    23746930.7724   23746937.7414
      3603.834        2808.182
   4657902.458 9   3631104.54448  22286593.655    22286592.5234   22286597.6974
     -1582.693       -1233.267
  23370919.834 8  18209729.59145  24871003.440    24871003.6824   24871010.8784
     -3942.708       -3072.240
   4230910.685 9   3308842.00846  24434146.644    24434146.7234   24434153.2244
     -2404.865       -1873.921
 -18135746.549 9 -14118754.28648  21838445.868    21838445.8724   21838450.8884
      2585.051        2014.325
 -16840046.423 9 -13109856.16248  22241678.861    22241678.1634   22241682.9734
      2170.768        1691.508
  -4836056.042 9  -3740621.59348  21063355.587    21063354.9214   21063359.2394
     -1494.162       -1164.282
  -3304880.283 9  -2565718.11246  24895007.347    24895006.4604   24895014.2764
      2835.511        2209.489
 97  5 13 18  1 30.0000000  0  8 24  2 27 26  4  9  7  5             0.000810934
  -8217820.044 9  -6388351.10546  23726367.875    23726367.3434   23726374.3624
      3600.611        2805.671
   4705508.120 9   3668199.84648  22295652.771    22295651.5234   22295656.7224
     -1590.658       -1239.474
  23489225.124 8  18301915.51045  24893516.861    24893516.3954   24893523.6934
     -3944.038       -3073.276
   4303131.705 9   3365118.08846  24447889.840    24447889.9444   24447896.3234
     -2409.236       -1877.327
 -18213082.803 9 -14179016.27748  21823729.321    21823729.2904   21823734.2994
      2571.199        2003.532
 -16904963.273 9 -13160440.70648  22229325.739    22229324.9334   22229329.6754
      2157.498        1681.167
  -4791099.440 9  -3705590.48748  21071910.524    21071909.9044   21071914.2364
     -1502.363       -1170.672
  -3389944.938 9  -2632002.18646  24878819.908    24878819.2384   24878827.0024
      2835.881        2209.777
 97  5 13 18  2  0.0000000  0  8 24  2 27 26  4  9  7  5             0.000810440
  -8325780.393 9  -6472476.00946  23705823.729    23705823.0754   23705830.0914
      3596.855        2802.744
   4753363.707 9   3705489.90048  22304759.127    22304758.1504   22304763.4004
     -1599.620       -1246.457
  23607580.894 8  18394140.72045  24916038.680    24916038.8254   24916046.1414
     -3946.271       -3075.016
   4375480.366 9   3421493.63846  24461657.672    24461657.5634   24461663.8154
     -2413.742       -1880.838
 -18289996.331 9 -14238948.86848  21809092.946    21809093.1084   21809098.1584
      2556.441        1992.032
 -16969474.198 9 -13210708.94448  22217049.552    22217048.9034   22217053.6014
      2143.316        1670.116
  -4745896.917 9  -3670367.75548  21080512.432    21080511.6794   21080516.0204
     -1511.043       -1177.436
  -3475011.772 9  -2698288.02745  24862632.466    24862631.4444   24862638.6334
      2835.434        2209.429
 97  5 13 18  2 30.0000000  0  8 24  2 27 26  4  9  7  5             0.000809989
  -8433581.379 9  -6556476.73546  23685309.931    23685309.1674   23685316.2584
      3591.692        2798.721
   4801540.696 9   3743030.39648  22313926.763    22313925.9854   22313931.1834
     -1610.167       -1254.676
  23726057.319 8  18486459.96045  24938583.835    24938584.2604   24938591.5254
     -3950.051       -3077.962
   4448010.430 9   3478010.54446  24475459.437    24475459.4764   24475465.8504
     -2419.543       -1885.358
 -18366420.049 9 -14298499.79148  21794549.910    21794550.1024   21794555.1694
      2540.654        1979.730
 -17033505.280 9 -13260603.27948  22204864.827    22204864.1814   22204868.8594
      2127.330        1657.660
  -4700380.963 9  -3634900.79448  21089173.878    21089173.0794   21089177.4814
     -1521.448       -1185.544
  -3560015.557 9  -2764524.66646  24846456.439    24846455.6884   24846462.9944
      2833.641        2208.032
 97  5 13 18  3  0.0000000  0  8 24  2 27 26  4  9  7  5             0.000809540
  -8541291.779 9  -6640406.86646  23664812.520    23664812.4064   23664819.5984
      3588.417        2796.169
   4849966.103 9   3780764.46148  22323141.654    22323141.0624   22323146.2764
     -1618.541       -1261.201
  23844579.995 8  18578815.24545  24961138.493    24961138.3974   24961145.5974
     -3951.788       -3079.315
   4520643.686 9   3534607.84846  24489281.453    24489281.1104   24489287.5344
     -2422.931       -1887.998
 -18442447.587 9 -14357742.01048  21780082.223    21780082.5154   21780087.5504
      2527.454        1969.445
 -17097124.993 9 -13310177.06448  22192758.346    22192757.7254   22192762.4114
      2113.717        1647.052
  -4654623.155 9  -3599245.37148  21097881.188    21097880.5144   21097884.9304
     -1529.313       -1191.672
  -3645048.507 9  -2830783.98846  24830275.286    24830274.4474   24830282.1134
      2834.872        2208.991
 97  5 13 18  3 30.0000000  0  8 24  2 27 26  4  9  7  5             0.000809105
  -8648884.661 9  -6724245.43346  23644337.835    23644338.0194   23644345.2814
      3584.738        2793.302
   4898655.509 9   3818704.24348  22332407.314    22332406.4024   22332411.6524
     -1627.036       -1267.820
  23963164.349 8  18671218.59545  24983704.862    24983704.1264   24983711.3694
     -3953.550       -3080.688
   4593381.309 9   3591286.47546  24503123.232    24503122.6154   24503129.0964
     -2425.917       -1890.325
 -18518062.982 9 -14416663.07648  21765693.113    21765693.3574   21765698.3404
      2513.964        1958.933
 -17160335.112 9 -13359431.68548  22180729.735    22180729.1974   22180733.8534
      2100.565        1636.804
  -4608628.622 9  -3563405.49148  21106633.758    21106632.9644   21106637.4564
     -1536.677       -1197.411
  -3730110.458 9  -2897065.95945  24814088.262    24814087.4784   24814095.1834
      2836.205        2210.030
 97  5 13 18  4  0.0000000  0  8 24  2 27 26  4  9  7  5             0.000808669
  -8756374.820 9  -6808003.93946  23623883.514    23623883.1594   23623890.5814
      3581.494        2790.774
   4947590.995 9   3856835.77148  22341719.318    22341718.5474   22341723.8224
     -1634.782       -1273.856
  24081803.712 8  18763664.81845  25006280.447    25006280.3114   25006287.8724
     -3955.224       -3081.993
   4666212.360 9   3648037.91146  24516982.910    24516982.0254   24516988.4384
     -2429.050       -1892.766
 -18593278.450 9 -14475272.51048  21751380.213    21751380.3104   21751385.2234
      2500.796        1948.672
 -17223150.774 9 -13408378.93348  22168776.194    22168775.7204   22168780.3964
      2087.591        1626.694
  -4562405.218 9  -3527387.26348  21115429.724    21115428.9874   21115433.5624
     -1544.425       -1203.448
  -3815219.039 9  -2963384.28346  24797892.775    24797891.8124   24797899.0934
      2838.265        2211.635
 97  5 13 18  4 30.0000000  0  8 24  2 27 26  4  9  7  5             0.000808217
  -8863753.321 9  -6891675.44646  23603449.916    23603449.6984   23603457.0534
      3576.815        2787.129
   4996750.322 9   3895141.71448  22351074.359    22351073.2714   22351078.6194
     -1642.614       -1279.959
  24200483.619 7  18856142.65745  25028864.301    25028864.0524   25028872.2014
     -3956.878       -3083.282
   4739144.764 9   3704868.32046  24530861.304    24530860.6314   24530867.0944
     -2433.199       -1895.999
 -18668101.849 9 -14533576.43448  21737141.821    21737141.8754   21737146.7484
      2487.192        1938.072
 -17285577.905 9 -13457023.42648  22156896.764    22156896.1864   22156900.8934
      2073.947        1616.062
  -4515950.264 9  -3491188.60948  21124269.940    21124269.0914   21124273.7344
     -1552.628       -1209.840
  -3900390.951 9  -3029751.92346  24781684.822    24781684.1024   24781691.4574
      2839.637        2212.704
 97  5 13 18  5  0.0000000  0  8 24  2 27 26  4  9  7  5             0.000807754
  -8970996.092 9  -6975241.19146  23583042.204    23583042.0004   23583049.4294
      3572.512        2783.776
   5046140.088 9   3933627.22648  22360472.819    22360471.8954   22360477.1924
     -1650.222       -1285.887
  24319198.71416  18948647.89454  25051455.732    25051455.0725          0.0005
     -3956.960       -3083.345
   4812195.556 9   3761791.02146  24544762.327    24544761.8244   24544768.1394
     -2437.077       -1899.021
 -18742509.271 9 -14591556.22648  21722982.533    21722982.6224   21722987.4494
      2472.906        1926.940
 -17347593.944 9 -13505347.59748  22145095.443    22145094.9294   22145099.5964
      2060.275        1605.409
  -4469260.268 9  -3454806.80348  21133154.687    21133153.9044   21133158.5954
     -1560.281       -1215.803
  -3985604.951 9  -3096152.36746  24765468.912    24765468.3274   24765475.8094
      2840.973        2213.745
 97  5 13 18  5 30.0000000  0  7 24  2 26  4  9  7  5                0.000807270
  -9078117.138 9  -7058712.08846  23562658.146    23562657.4604   23562664.8644
      3568.710        2780.813
   5095755.650 9   3972288.68648  22369914.236    22369913.4074   22369918.7274
     -1657.596       -1291.633
   4885353.084 9   3818796.86546  24558683.654    24558683.1524   24558689.5924
     -2440.370       -1901.587
 -18816485.391 9 -14649199.93948  21708905.346    21708905.3974   21708910.2414
      2458.713        1915.880
 -17409202.819 9 -13553354.50348  22133371.553    22133371.1784   22133375.7754
      2046.764        1594.881
  -4422339.227 9  -3418244.96548  21142083.401    21142082.6674   21142087.3754
     -1567.881       -1221.725
  -4070854.723 9  -3162580.65845  24749246.003    24749245.5224   24749253.4364
      2842.142        2214.656
 97  5 13 18  6  0.0000000  0  7 24  2 26  4  9  7  5                0.000806770
  -9185123.059 9  -7142093.27746  23542295.372    23542294.9024   23542302.2224
      3564.398        2777.453
   5145590.047 9   4011120.66448  22379397.532    22379396.6184   22379401.9604
     -1665.025       -1297.422
   4958619.200 9   3875887.28246  24572625.611    24572625.3344   24572631.6664
     -2444.196       -1904.568
 -18890036.249 9 -14706512.27248  21694909.027    21694909.0734   21694913.9344
      2444.219        1904.586
 -17470397.996 9 -13601039.04248  22121726.419    22121726.1384   22121730.6924
      2032.672        1583.900
  -4375196.042 9  -3381510.02748  21151054.333    21151053.6844   21151058.3714
     -1575.095       -1227.347
  -4156131.576 9  -3229030.13546  24733018.491    24733017.8174   24733025.4784
      2842.763        2215.140
 97  5 13 18  6 30.0000000  0  7 24  2 26  4  9  7  5                0.000806267
  -9291974.622 9  -7225354.17846  23521962.330    23521961.6694   23521969.0094
      3559.522        2773.654
   5195657.231 9   4050134.02748  22388924.743    22388924.0634   22388929.3864
     -1672.582       -1303.311
   5032005.086 9   3933071.04446  24586590.630    24586590.0794   24586596.6594
     -2447.669       -1907.274
 -18963137.734 9 -14763474.44348  21680998.075    21680998.2434   21681003.1654
      2429.605        1893.199
 -17531157.734 9 -13648384.27748  22110164.283    22110163.9564   22110168.4464
      2018.271        1572.679
  -4327840.630 9  -3344609.71648  21160065.839    21160065.1274   21160069.7944
     -1581.558       -1232.383
  -4241411.726 9  -3295482.10046  24716790.519    24716789.8054   24716797.4354
      2842.999        2215.324
 97  5 13 18  7  0.0000000  0  7 24  2 26  4  9  7  5                0.000805771
  -9398672.382 9  -7308495.23246  23501658.747    23501657.7844   23501664.9504
      3553.799        2769.194
   5245978.411 9   4089345.31448  22398500.728    22398499.8844   22398505.2354
     -1681.931       -1310.596
   5105497.508 9   3990337.89146  24600575.591    24600575.1914   24600581.7084
     -2451.530       -1910.283
 -19035782.796 9 -14820080.95748  21667174.350    21667174.3384   21667179.2714
      2413.750        1880.844
 -17591469.607 9 -13695380.52748  22098687.215    22098686.9474   22098691.4324
      2002.935        1560.729
  -4280278.603 9  -3307548.40348  21169116.540    21169115.8804   21169120.5144
     -1589.206       -1238.342
  -4326694.961 9  -3361936.46746  24700561.697    24700560.7544   24700568.6454
      2842.870        2215.223
 97  5 13 18  7 30.0000000  0  7 24  2 26  4  9  7  5                0.000805278
  -9505227.700 9  -7391525.28746  23481382.012    23481381.0044   23481388.0474
      3549.103        2765.535
   5296553.327 9   4128754.31048  22408124.625    22408123.9194   22408129.3554
     -1690.389       -1317.186
   5179079.016 9   4047674.13746  24614577.955    24614577.2364   24614583.9584
     -2454.488       -1912.588
 -19107988.957 9 -14876345.47148  21653434.115    21653433.9604   21653438.9014
      2399.390        1869.655
 -17651359.269 9 -13742047.78348  22087290.656    22087290.3234   22087294.7974
      1989.013        1549.880
  -4232510.483 9  -3270326.50248  21178206.480    21178205.8334   21178210.4264
     -1595.931       -1243.582
  -4412009.094 9  -3428414.96846  24684326.825    24684326.0264   24684333.6554
      2844.045        2216.139
 97  5 13 18  8  0.0000000  0  7 24  2 26  4  9  7  5                0.000804803
  -9611635.765 9  -7474440.60346  23461132.901    23461132.2614   23461139.1604
      3543.576        2761.228
   5347390.567 9   4168367.73248  22417799.055    22417797.9514   22417803.3834
     -1699.846       -1324.555
   5252760.822 9   4105088.51746  24628598.951    24628598.3774   24628605.1004
     -2458.412       -1915.646
 -19179758.867 9 -14932270.04448  21639776.721    21639776.6104   21639781.5414
      2384.087        1857.730
 -17710821.613 9 -13788382.06848  22075975.576    22075975.0374   22075979.4774
      1974.100        1538.260
  -4184539.229 9  -3232946.31548  21187335.048    21187334.4364   21187339.0724
     -1603.263       -1249.296
  -4497350.355 9  -3494914.58946  24668086.664    24668086.2044   24668093.7544
      2844.456        2216.459
 97  5 13 18  8 30.0000000  0  7 24  2 26  4  9  7  5                0.000804336
  -9717902.034 9  -7557245.42246  23440910.772    23440910.4324   23440917.2704
      3540.159        2758.565
   5398492.697 9   4208187.54148  22427523.312    22427522.3464   22427527.7564
     -1707.900       -1330.831
   5326521.304 9   4162564.16046  24642635.236    24642634.6164   24642641.2814
     -2459.654       -1916.614
 -19251091.011 9 -14987853.50248  21626202.592    21626202.5204   21626207.4754
      2370.612        1847.230
 -17769854.380 9 -13834381.61848  22064742.033    22064741.4834   22064745.8864
      1960.580        1527.725
  -4136359.226 9  -3195403.47248  21196503.319    21196502.7684   21196507.4444
     -1609.718       -1254.326
  -4582724.623 9  -3561439.90446  24651840.525    24651839.9594   24651847.3204
      2846.404        2217.977
 97  5 13 18  9  0.0000000  0  7 24  2 26  4  9  7  5                0.000803880
  -9824045.898 9  -7639954.84446  23420712.164    23420711.8524   23420718.7244
      3536.113        2755.413
   5449877.137 9   4248227.35148  22437301.437    22437300.5114   22437305.9084
     -1717.206       -1338.082
   5400353.185 9   4220095.41046  24656684.990    24656684.4024   24656691.2174
     -2462.225       -1918.617
 -19321983.350 9 -15043094.24948  21612712.128    21612712.1344   21612717.0974
      2355.792        1835.682
 -17828452.078 9 -13880042.15048  22053591.288    22053590.7004   22053595.0954
      1946.184        1516.507
  -4087939.395 9  -3157673.74548  21205717.401    21205716.7004   21205721.4464
     -1618.062       -1260.828
  -4668128.860 9  -3627988.60646  24635588.627    24635587.9844   24635594.9504
      2847.304        2218.678
 97  5 13 18  9 30.0000000  0  7 24  2 26  4  9  7  5                0.000803432
  -9930064.100 9  -7722566.36246  23400537.587    23400537.1704   23400544.0564
      3531.809        2752.059
   5501531.009 9   4288477.08648  22447130.929    22447129.8774   22447135.3684
     -1726.087       -1345.003
   5474268.356 9   4277691.63946  24670750.874    24670750.1984   24670756.8314
     -2465.195       -1920.931
 -19392425.802 9 -15097984.43948  21599307.431    21599307.3514   21599312.3834
      2340.577        1823.826
 -17886611.029 9 -13925360.80048  22042523.990    22042523.4254   22042527.8314
      1931.140        1504.784
  -4039266.189 9  -3119746.58348  21214979.484    21214978.9124   21214983.6984
     -1626.465       -1267.375
  -4753543.513 9  -3694545.42046  24619334.659    24619334.1974   24619340.9414
      2847.220        2218.613
 97  5 13 18 10  0.0000000  0  7 24  2 26  4  9  7  5                0.000802978
 -10035953.076 9  -7805077.18546  23380387.761    23380387.1924   23380393.9734
      3527.493        2748.696
   5553435.694 9   4328922.27248  22457008.141    22457007.0544   22457012.4504
     -1733.805       -1351.017
   5548260.593 9   4335347.90046  24684831.388    24684830.4684   24684837.0284
     -2467.245       -1922.529
 -19462417.194 9 -15152523.14848  21585988.516    21585988.4154   21585993.4854
      2325.821        1812.328
 -17944321.503 9 -13970329.98948  22031542.210    22031541.5084   22031545.8854
      1916.507        1493.382
  -3990351.589 9  -3081631.32548  21224287.742    21224287.0724   21224291.8784
     -1634.138       -1273.354
  -4838967.877 9  -3761109.74646  24603079.213    24603078.3444   24603085.4914
      2848.138        2219.328
 97  5 13 18 10 30.0000000  0  7 24  2 26  4  9  7  5                0.000802502
 -10141701.810 9  -7887478.71946  23360264.139    23360263.8464   23360270.5894
      3522.839        2745.069
   5605568.760 9   4369545.41148  22466928.742    22466927.6354   22466933.1054
     -1741.170       -1356.756
   5622310.290 9   4393048.87746  24698922.558    24698921.7664   24698928.4194
     -2469.069       -1923.950
 -19531966.804 9 -15206717.61648  21572753.582    21572753.5244   21572758.6354
      2311.358        1801.058
 -18001588.955 9 -14014953.96348  22020644.772    22020643.8814   22020648.2524
      1901.887        1481.990
  -3941198.839 9  -3043330.49248  21233641.169    21233640.5174   21233645.3394
     -1641.998       -1279.479
  -4924413.945 9  -3827690.98746  24586819.025    24586818.6494   24586825.6584
      2849.008        2220.006
 97  5 13 18 11  0.0000000  0  7 24  2 26  4  9  7  5                0.000802006
 -10247303.376 9  -7969765.58947  23340169.117    23340168.4884   23340175.2294
      3516.661        2740.255
   5657920.491 9   4410338.93748  22476890.783    22476889.8304   22476895.2834
     -1749.256       -1363.057
   5696430.088 9   4450804.56146  24713026.745    24713026.2744   24713032.8994
     -2472.566       -1926.675
 -19601075.887 9 -15260568.81248  21559602.469    21559602.4654   21559607.5914
      2295.516        1788.714
 -18058419.253 9 -14059237.30348  22009829.977    22009829.4264   22009833.7854
      1886.474        1469.980
  -3891827.840 9  -3004859.59848  21243036.306    21243035.5634   21243040.3274
     -1649.668       -1285.456
  -5009893.152 9  -3894298.18146  24570552.835    24570552.4234   24570558.9824
      2849.161        2220.125
 97  5 13 18 11 30.0000000  0  7 24  2 26  4  9  7  5                0.000801505
 -10352711.955 9  -8051902.08246  23320110.863    23320109.8924   23320116.5584
      3510.402        2735.378
   5710511.658 9   4451319.04148  22486898.456    22486897.5764   22486903.0624
     -1757.023       -1369.109
   5770643.879 9   4508633.42946  24727148.830    24727148.7624   24727155.2254
     -2475.113       -1928.659
 -19669708.674 9 -15314048.87248  21546542.063    21546542.0784   21546547.1524
      2279.856        1776.511
 -18114792.766 9 -14103164.70748  21999102.450    21999101.8904   21999106.2674
      1871.669        1458.443
  -3842241.074 9  -2966220.57048  21252472.473    21252471.6574   21252476.3534
     -1656.171       -1290.523
  -5095382.357 9  -3960912.97546  24554284.774    24554284.3004   24554291.4964
      2850.042        2220.812
 97  5 13 18 12  0.0000000  0  7 24  2 26  4  9  7  5                0.000800991
 -10457934.757 9  -8133893.79347  23300087.051    23300086.6174   23300093.2314
      3503.926        2730.332
   5763332.713 9   4492478.29148  22496950.311    22496949.1004   22496954.6344
     -1765.030       -1375.348
   5844926.138 9   4566515.71846  24741284.177    24741284.3064   24741290.6654
     -2477.511       -1930.528
 -19737877.529 9 -15367167.42748  21533569.765    21533569.9484   21533574.9804
      2264.156        1764.277
 -18170733.281 9 -14146754.70648  21988457.330    21988456.6964   21988461.1844
      1857.094        1447.086
  -3792470.078 9  -2927437.98848  21261943.603    21261942.7694   21261947.4294
     -1662.458       -1295.422
  -5180909.271 9  -4027557.23445  24538009.258    24538008.7084   24538016.0994
      2851.211        2221.723
 97  5 13 18 12 30.0000000  0  7 24  2 26  4  9  7  5                0.000800470
 -10562980.288 9  -8215747.38947  23280097.845    23280097.0554   23280103.6424
      3498.617        2726.195
   5816396.246 9   4533826.47948  22507048.063    22507046.8444   22507052.2314
     -1773.004       -1381.562
   5919268.246 9   4624444.58646  24755431.492    24755431.1604   24755437.6394
     -2479.084       -1931.754
 -19805580.314 9 -15419922.81148  21520686.661    21520686.5304   21520691.4664
      2248.949        1752.428
 -18226236.687 9 -14190004.10248  21977895.285    21977894.7124   21977899.2414
      1842.785        1435.936
  -3742520.385 9  -2888516.16448  21271448.732    21271447.9294   21271452.5224
     -1667.883       -1299.649
  -5266469.089 9  -4094227.16946  24521727.853    24521727.1204   24521734.0714
      2852.611        2222.814
 97  5 13 18 13  0.0000000  0  7 24  2 26  4  9  7  5                0.000799939
 -10667861.596 9  -8297473.02647  23260139.233    23260138.7404   23260145.3004
      3492.944        2721.774
   5869711.701 9   4575370.96048  22517193.593    22517192.4974   22517197.9114
     -1781.813       -1388.426
   5993665.645 9   4682416.58346  24769588.595    24769588.4834   24769594.9674
     -2481.081       -1933.310
 -19872813.050 9 -15472311.92848  21507892.460    21507892.5494   21507897.4354
      2232.739        1739.797
 -18281302.976 9 -14232912.88948  21967416.338    21967415.8714   21967420.4344
      1827.719        1424.197
  -3692402.257 9  -2849463.08948  21280985.985    21280985.1104   21280989.6684
     -1674.060       -1304.462
  -5352071.285 9  -4160930.09446  24505438.453    24505437.6574   24505444.7294
      2853.630        2223.608
 97  5 13 18 13 30.0000000  0  7 24  2 26  4  9  7  5                0.000799407
 -10772557.137 9  -8379053.90647  23240216.557    23240215.8234   23240222.3264
      3487.344        2717.411
   5923306.826 9   4617133.36448  22527392.410    22527391.3584   22527396.7654
     -1790.497       -1395.192
   6068136.574 9   4740445.88146  24783760.027    24783759.8744   24783766.3894
     -2483.102       -1934.885
 -19939545.166 9 -15524310.95148  21495193.723    21495193.7964   21495198.6244
      2216.730        1727.322
 -18335888.806 9 -14275447.29448  21957028.997    21957028.5114   21957033.1174
      1811.817        1411.805
  -3642065.531 9  -2810239.67848  21290564.744    21290563.8894   21290568.4204
     -1681.104       -1309.951
  -5437688.497 9  -4227644.73846  24489145.645    24489144.9324   24489151.9744
      2854.775        2224.500
 97  5 13 18 14  0.0000000  0  7 24  2 26  4  9  7  5                0.000798845
 -10877113.688 9  -8460526.49247  23220319.970    23220319.3054   23220325.7694
      3482.462        2713.607
   5977140.664 9   4659081.80148  22537636.765    22537635.6814   22537640.9944
     -1799.125       -1401.916
   6142650.552 9   4798508.72346  24797939.653    24797939.4754   24797945.7064
     -2484.943       -1936.319
 -20005822.802 9 -15575955.83648  21482581.468    21482581.5364   21482586.3424
      2201.208        1715.227
 -18390005.769 9 -14317616.34548  21946731.010    21946730.3944   21946735.0424
      1795.395        1399.009
  -3591538.041 9  -2770867.62448  21300179.693    21300178.9434   21300183.4874
     -1688.006       -1315.329
  -5523360.619 9  -4294402.13846  24472843.006    24472842.3474   24472849.5254
      2856.027        2225.476
 97  5 13 18 14 30.0000000  0  7 24  2 26  4  9  7  5                0.000798275
 -10981516.057 9  -8541878.92747  23200452.232    23200452.1044   23200458.5694
      3477.889        2710.043
   6031249.723 9   4701244.66648  22547933.437    22547932.2944   22547937.7024
     -1807.646       -1408.555
   6217227.655 9   4856620.74546  24812131.292    24812130.9694   24812137.2324
     -2486.526       -1937.553
 -20071623.595 9 -15627229.15848  21470060.055    21470060.0244   21470064.8074
      2185.752        1703.183
 -18443615.501 9 -14359390.15248  21936529.366    21936528.7964   21936533.4744
      1779.077        1386.294
  -3540786.570 9  -2731321.03948  21309837.439    21309836.6564   21309841.1644
     -1695.075       -1320.838
  -5609053.213 9  -4361175.61146  24456535.906    24456535.3114   24456542.1174
      2857.251        2226.429
 97  5 13 18 15  0.0000000  0  7 24  2 26  4  9  7  5                0.000797690
 -11085774.136 9  -8623118.93447  23180612.877    23180612.3564   23180618.8424
      3473.899        2706.934
   6085617.732 9   4743609.33248  22558279.411    22558278.2364   22558283.5594
     -1815.428       -1414.619
   6291862.418 9   4914777.69446  24826333.841    24826333.4804   24826339.6814
     -2487.544       -1938.346
 -20136947.292 9 -15678130.71448  21457629.180    21457629.3234   21457634.0914
      2170.460        1691.268
 -18496733.527 9 -14400780.81648  21926421.410    21926420.7754   21926425.4454
      1763.513        1374.166
  -3489815.247 9  -2691603.14148  21319537.260    21319536.2184   21319540.7534
     -1701.552       -1325.885
  -5694773.342 9  -4427970.35546  24440223.742    24440223.1854   24440230.9214
      2858.685        2227.547
 97  5 13 18 15 30.0000000  0  7 24  2 26  4  9  7  5                0.000797077
 -11189899.509 9  -8704255.53847  23160798.321    23160797.9074   23160804.4354
      3468.127        2702.437
   6140221.747 9   4786157.90148  22568670.380    22568668.9974   22568674.4504
     -1824.456       -1421.654
   6366527.827 9   4972958.50346  24840542.262    24840541.8554   24840548.0624
     -2489.648       -1939.985
 -20201801.205 9 -15728666.20848  21445288.054    21445288.0364   21445292.7394
      2153.594        1678.125
 -18549380.441 9 -14441804.37648  21916402.809    21916402.3854   21916407.1154
      1746.838        1361.172
  -3438652.567 9  -2651736.13148  21329273.168    21329272.1544   21329276.7254
     -1708.683       -1331.441
  -5780517.788 9  -4494784.12446  24423907.516    24423906.3914   24423914.2084
      2857.942        2226.968
 97  5 13 18 16  0.0000000  0  7 24  2 26  4  9  7  5                0.000796462
 -11293865.469 9  -8785267.93147  23141015.069    23141013.7854   23141020.3024
      3461.954        2697.626
   6195084.423 9   4828908.00148  22579110.413    22579109.0904   22579114.5154
     -1833.784       -1428.923
   6441233.258 9   5031170.51046  24854758.150    24854757.6854   24854763.9324
     -2491.299       -1941.272
 -20266162.537 9 -15778817.87148  21433040.680    21433040.4914   21433045.2114
      2136.394        1664.723
 -18601551.348 9 -14482457.02548  21906475.029    21906474.5584   21906479.3404
      1730.689        1348.589
  -3387300.118 9  -2611721.25348  21339045.198    21339044.2474   21339048.8304
     -1715.579       -1336.815
  -5866248.682 9  -4561587.39346  24407593.993    24407592.6634   24407599.9544
      2856.671        2225.977
 97  5 13 18 16 30.0000000  0  7 24  2 26  4  9  7  5                0.000795837
 -11397674.556 9  -8866158.08447  23121260.482    23121259.4894   23121266.0434
      3456.727        2693.553
   6250183.674 9   4871842.45947  22589595.587    22589594.1384   22589599.4964
     -1841.099       -1434.623
   6515945.078 9   5089387.47546  24868975.347    24868974.7974   24868981.0214
     -2491.307       -1941.278
 -20330044.709 9 -15828596.17048  21420884.442    21420884.1014   21420888.8524
      2120.772        1652.550
 -18653293.356 9 -14522775.46848  21896628.865    21896628.3514   21896633.2074
      1717.107        1338.005
  -3335778.294 9  -2571574.39448  21348849.529    21348848.5764   21348853.1644
     -1720.781       -1340.868
  -5951974.463 9  -4628386.58346  24391280.620    24391279.3914   24391286.6784
      2856.850        2226.117
 97  5 13 18 17  0.0000000  0  7 24  2 26  4  9  7  5                0.000795229
 -11501279.228 9  -8946888.96047  23101544.948    23101544.0974   23101550.7164
      3449.932        2688.259
   6305538.111 9   4914975.76948  22600129.191    22600127.7904   22600133.1884
     -1849.224       -1440.954
   6590699.684 9   5147637.77546  24883200.981    24883200.0184   24883206.3044
     -2492.336       -1942.080
 -20393423.573 9 -15877982.28148  21408823.906    21408823.4764   21408828.2584
      2104.503        1639.872
 -18704594.559 9 -14562750.42748  21886866.469    21886866.0794   21886870.9624
      1702.873        1326.914
  -3284073.792 9  -2531285.19248  21358688.656    21358687.6534   21358692.2694
     -1726.248       -1345.128
  -6037671.396 9  -4695163.44146  24374973.225    24374972.0355   24374978.6324
      2856.355        2225.731
 97  5 13 18 17 30.0000000  0  7 24  2 26  4  9  7  5                0.000794629
 -11604669.854 9  -9027453.05247  23081870.238    23081869.4654   23081876.1104
      3442.538        2682.497
   6361132.653 9   4958296.13947  22610708.560    22610707.0684   22610712.5174
     -1857.272       -1447.225
   6665486.882 9   5205913.47146  24897432.002    24897431.5214   24897437.9524
     -2493.676       -1943.124
 -20456316.655 9 -15926989.85448  21396855.659    21396855.2864   21396860.0864
      2088.260        1627.216
 -18755464.843 9 -14602389.60748  21877186.281    21877185.8124   21877190.7094
      1688.311        1315.567
  -3232201.697 9  -2490865.39348  21368559.526    21368558.5974   21368563.2344
     -1732.179       -1349.750
  -6123363.281 9  -4761936.13846  24358666.003    24358665.2684   24358672.4844
      2856.387        2225.756
 97  5 13 18 18  0.0000000  0  7 24  2 26  4  9  7  5                0.000794030
 -11707851.101 9  -9107853.98547  23062235.348    23062234.6774   23062241.3034
      3435.856        2677.290
   6416959.842 9   5001797.80848  22621331.800    22621330.6984   22621336.0394
     -1864.749       -1453.051
   6740304.434 9   5264212.84846  24911669.396    24911668.9604   24911675.3514
     -2494.309       -1943.617
 -20518737.837 9 -15975629.72448  21384977.144    21384976.9334   21384981.6794
      2072.953        1615.288
 -18805908.681 9 -14641696.49248  21867587.302    21867586.6364   21867591.5664
      1674.405        1304.731
  -3180155.938 9  -2450310.27248  21378463.518    21378462.5934   21378467.2324
     -1737.842       -1354.163
  -6209084.714 9  -4828732.09246  24342353.802    24342352.7504   24342359.4304
      2858.177        2227.151
 97  5 13 18 18 30.0000000  0  7 24  2 26  4  9  7  5                0.000793435
 -11810819.143 9  -9188088.78947  23042640.887    23042640.5564   23042647.1374
      3428.299        2671.402
   6473026.155 9   5045485.80748  22632001.083    22631999.7594   22632005.2164
     -1873.409       -1459.799
   6815158.508 9   5322540.65146  24925913.675    24925913.3074   24925919.6714
     -2496.379       -1945.230
 -20580690.504 9 -16023904.51048  21373187.958    21373187.7464   21373192.4094
      2056.732        1602.648
 -18855923.244 9 -14680668.87248  21858069.775    21858069.1974   21858074.1194
      1659.153        1292.846
  -3127924.718 9  -2409610.64248  21388402.664    21388401.8844   21388406.5184
     -1744.686       -1359.495
  -6294853.918 9  -4895565.11246  24326032.511    24326031.6084   24326038.5684
      2859.420        2228.119
 97  5 13 18 19  0.0000000  0  7 24  2 26  4  9  7  5                0.000792837
 -11913564.616 9  -9268150.15447  23023089.651    23023088.8154   23023095.3284
      3421.575        2666.162
   6529353.308 9   5089377.06348  22642719.865    22642718.6374   22642723.9264
     -1881.376       -1466.007
   6890080.037 9   5380921.03446  24940170.754    24940170.6104   24940176.7954
     -2497.900       -1946.416
 -20642143.574 9 -16071790.00248  21361493.776    21361493.7154   21361498.2314
      2040.368        1589.897
 -18905453.782 9 -14719264.09848  21848644.704    21848643.9194   21848648.7574
      1643.167        1280.390
  -3075478.643 9  -2368743.58848  21398382.920    21398382.1114   21398386.6464
     -1751.482       -1364.791
  -6380663.720 9  -4962429.82046  24309703.192    24309702.5174   24309709.2784
      2861.621        2229.834
 97  5 13 18 19 30.0000000  0  7 24  2 26  4  9  7  5                0.000792207
 -12016108.000 9  -9348054.04947  23003576.394    23003575.5024   23003581.9234
      3414.959        2661.007
   6585916.851 9   5133452.51348  22653483.519    22653482.4584   22653487.6434
     -1889.388       -1472.250
   6965040.220 9   5439331.56646  24954435.009    24954435.1364   24954441.2194
     -2499.157       -1947.395
 -20703101.005 9 -16119289.28148  21349894.033    21349893.9624   21349898.4044
      2023.778        1576.970
 -18954496.624 9 -14757479.29648  21839312.198    21839311.4564   21839316.2224
      1626.603        1267.483
  -3022824.750 9  -2327714.59748  21408402.673    21408401.8944   21408406.3344
     -1758.518       -1370.274
  -6466540.250 9  -5029346.55646  24293361.677    24293361.1424   24293367.4844
      2863.519        2231.314
